[[{"header":{"parameterUnit":"m.s-1","parameterCategory":1,"la1":30.6,"la2":28.766,"lo1":-90.7593,"lo2":-88.6598,"dy":0.0162,"dx":0.0183,"nx":116,"ny":114,"refTime":"2023-11-07T06:00:00:Z","depth":0,"parameterNumber":2,"parameterNumberName":"U-component_of_WINDS"},"data":[0.0,0.0,0.0,0.0,0.0,0.0,0.0,0.0,0.0,0.0,0.0,0.0,0.0,0.0,0.0,0.0,0.0,0.0,0.0,0.0,0.0,0.0,0.0,0.0,0.0,0.0,0.0,0.0,0.0,0.0,0.0,0.0,0.0,0.0,0.0,0.0,0.0,0.0,0.0,0.0,0.0,0.0,0.0,0.0,0.0,0.0,0.0,0.0,0.0,0.0,0.0,0.0,0.0,0.0,0.0,0.0,0.0,0.0,0.0,0.0,0.0,0.0,0.0,0.0,0.0,0.0,0.0,0.0,0.0,0.0,0.0,0.0,0.0,0.0,0.0,0.0,0.0,0.0,0.0,0.0,0.0,0.0,0.0,0.0,0.0,0.0,0.0,0.0,0.0,0.0,0.0,0.0,0.0,0.0,0.0,0.0,0.0,0.0,0.0,0.0,0.0,0.0,0.0,0.0,0.0,0.0,0.0,0.0,0.0,0.0,0.0,0.0,0.0,0.0,0.0,0.0,0.0,0.0,0.0,0.0,0.0,0.0,0.0,0.0,0.0,0.0,0.0,0.0,0.0,0.0,0.0,0.0,0.0,0.0,0.0,0.0,0.0,0.0,0.0,0.0,0.0,0.0,0.0,0.0,0.0,0.0,0.0,0.0,0.0,0.0,0.0,0.0,0.0,0.0,0.0,0.0,0.0,0.0,0.0,0.0,0.0,0.0,0.0,0.0,0.0,0.0,0.0,0.0,0.0,0.0,0.0,0.0,0.0,0.0,0.0,0.0,0.0,0.0,0.0,0.0,0.0,0.0,0.0,0.0,0.0,0.0,0.0,0.0,0.0,0.0,0.0,0.0,0.0,0.0,0.0,0.0,0.0,0.0,0.0,0.0,0.0,0.0,0.0,0.0,0.0,0.0,0.0,0.0,0.0,0.0,0.0,0.0,0.0,0.0,0.0,0.0,0.0,0.0,0.0,0.0,0.0,0.0,0.0,0.0,0.0,0.0,0.0,0.0,0.0,0.0,0.0,0.0,0.0,0.0,0.0,0.0,0.0,0.0,0.0,0.0,0.0,0.0,0.0,0.0,0.0,0.0,0.0,0.0,0.0,0.0,0.0,0.0,0.0,0.0,0.0,0.0,0.0,0.0,0.0,0.0,0.0,0.0,0.0,0.0,0.0,0.0,0.0,0.0,0.0,0.0,0.0,0.0,0.0,0.0,0.0,0.0,0.0,0.0,0.0,0.0,0.0,0.0,0.0,0.0,0.0,0.0,0.0,0.0,0.0,0.0,0.0,0.0,0.0,0.0,0.0,0.0,0.0,0.0,0.0,0.0,0.0,0.0,0.0,0.0,0.0,0.0,0.0,0.0,0.0,0.0,0.0,0.0,0.0,0.0,0.0,0.0,0.0,0.0,0.0,0.0,0.0,0.0,0.0,0.0,0.0,0.0,0.0,0.0,0.0,0.0,0.0,0.0,0.0,0.0,0.0,0.0,0.0,0.0,0.0,0.0,0.0,0.0,0.0,0.0,0.0,0.0,0.0,0.0,0.0,0.0,0.0,0.0,0.0,0.0,0.0,0.0,0.0,0.0,0.0,0.0,0.0,0.0,0.0,0.0,0.0,0.0,0.0,0.0,0.0,0.0,0.0,0.0,0.0,0.0,0.0,0.0,0.0,0.0,0.0,0.0,0.0,0.0,0.0,0.0,0.0,0.0,0.0,0.0,0.0,0.0,0.0,0.0,0.0,0.0,0.0,0.0,0.0,0.0,0.0,0.0,0.0,0.0,0.0,0.0,0.0,0.0,0.0,0.0,0.0,0.0,0.0,0.0,0.0,0.0,0.0,0.0,0.0,0.0,0.0,0.0,0.0,0.0,0.0,0.0,0.0,0.0,0.0,0.0,0.0,0.0,0.0,0.0,0.0,0.0,0.0,0.0,0.0,0.0,0.0,0.0,0.0,0.0,0.0,0.0,0.0,0.0,0.0,0.0,0.0,0.0,0.0,0.0,0.0,0.0,0.0,0.0,0.0,0.0,0.0,0.0,0.0,0.0,0.0,0.0,0.0,0.0,0.0,0.0,0.0,0.0,0.0,0.0,0.0,0.0,0.0,0.0,0.0,0.0,0.0,0.0,0.0,0.0,0.0,0.0,0.0,0.0,0.0,0.0,0.0,0.0,0.0,0.0,0.0,0.0,0.0,0.0,0.0,0.0,0.0,0.0,0.0,0.0,0.0,0.0,0.0,0.0,0.0,0.0,0.0,0.0,0.0,0.0,0.0,0.0,0.0,0.0,0.0,0.0,0.0,0.0,0.0,0.0,0.0,0.0,0.0,0.0,0.0,0.0,0.0,0.0,0.0,0.0,0.0,0.0,0.0,0.0,0.0,0.0,0.0,0.0,0.0,0.0,0.0,0.0,0.0,0.0,0.0,0.0,0.0,0.0,0.0,0.0,0.0,0.0,0.0,0.0,0.0,0.0,0.0,0.0,0.0,0.0,0.0,0.0,0.0,0.0,0.0,0.0,0.0,0.0,0.0,0.0,0.0,0.0,0.0,0.0,0.0,0.0,0.0,0.0,0.0,0.0,0.0,0.0,0.0,0.0,0.0,0.0,0.0,0.0,0.0,0.0,0.0,0.0,0.0,0.0,0.0,0.0,0.0,0.0,0.0,0.0,0.0,0.0,0.0,0.0,0.0,0.0,0.0,0.0,0.0,0.0,0.0,0.0,0.0,0.0,0.0,0.0,0.0,0.0,0.0,0.0,0.0,0.0,0.0,0.0,0.0,0.0,0.0,0.0,0.0,0.0,0.0,0.0,0.0,0.0,0.0,0.0,0.0,0.0,0.0,0.0,0.0,0.0,0.0,0.0,0.0,0.0,0.0,0.0,0.0,0.0,0.0,0.0,0.0,0.0,0.0,0.0,0.0,0.0,0.0,0.0,0.0,0.0,0.0,0.0,0.0,0.0,0.0,0.0,0.0,0.0,0.0,0.0,0.0,0.0,0.0,0.0,0.0,0.0,0.0,0.0,0.0,0.0,0.0,0.0,0.0,0.0,0.0,0.0,0.0,0.0,0.0,0.0,0.0,0.0,0.0,0.0,0.0,0.0,0.0,0.0,0.0,0.0,0.0,0.0,0.0,0.0,0.0,0.0,0.0,0.0,0.0,0.0,0.0,0.0,0.0,0.0,0.0,0.0,0.0,0.0,0.0,0.0,0.0,0.0,0.0,0.0,0.0,0.0,0.0,0.0,0.0,0.0,0.0,0.0,0.0,0.0,0.0,0.0,0.0,0.0,0.0,0.0,0.0,0.0,0.0,0.0,0.0,0.0,0.0,0.0,0.0,0.0,0.0,0.0,0.0,0.0,0.0,0.0,0.0,0.0,0.0,0.0,0.0,0.0,0.0,0.0,0.0,0.0,0.0,0.0,0.0,0.0,0.0,0.0,0.0,0.0,0.0,0.0,0.0,0.0,0.0,0.0,0.0,0.0,0.0,0.0,0.0,0.0,0.0,0.0,0.0,0.0,0.0,0.0,0.0,0.0,0.0,0.0,0.0,0.0,0.0,0.0,0.0,0.0,0.0,0.0,0.0,0.0,0.0,0.0,0.0,0.0,0.0,0.0,0.0,0.0,0.0,0.0,0.0,0.0,0.0,0.0,0.0,0.0,0.0,0.0,0.0,0.0,0.0,0.0,0.0,0.0,0.0,0.0,0.0,0.0,0.0,0.0,0.0,0.0,0.0,0.0,0.0,0.0,0.0,0.0,0.0,0.0,0.0,0.0,0.0,0.0,0.0,0.0,0.0,0.0,0.0,0.0,0.0,0.0,0.0,0.0,0.0,0.0,0.0,0.0,0.0,0.0,0.0,0.0,0.0,0.0,0.0,0.0,0.0,0.0,0.0,0.0,0.0,0.0,0.0,0.0,0.0,0.0,0.0,0.0,0.0,0.0,0.0,0.0,0.0,0.0,0.0,0.0,0.0,0.0,0.0,0.0,0.0,0.0,0.0,0.0,0.0,0.0,0.0,0.0,0.0,0.0,0.0,0.0,0.0,0.0,0.0,0.0,0.0,0.0,0.0,0.0,0.0,0.0,0.0,0.0,0.0,0.0,0.0,0.0,0.0,0.0,0.0,0.0,0.0,0.0,0.0,0.0,0.0,0.0,0.0,0.0,0.0,0.0,0.0,0.0,0.0,0.0,0.0,0.0,0.0,0.0,0.0,0.0,0.0,0.0,0.0,0.0,0.0,0.0,0.0,0.0,0.0,0.0,0.0,0.0,0.0,0.0,0.0,0.0,0.0,0.0,0.0,0.0,0.0,0.0,0.0,0.0,0.0,0.0,0.0,0.0,0.0,0.0,0.0,0.0,0.0,0.0,0.0,0.0,0.0,0.0,0.0,0.0,0.0,0.0,0.0,0.0,0.0,0.0,0.0,0.0,0.0,0.0,0.0,0.0,0.0,0.0,0.0,0.0,0.0,0.0,0.0,0.0,0.0,0.0,0.0,0.0,0.0,0.0,0.0,0.0,0.0,0.0,0.0,0.0,0.0,0.0,0.0,0.0,0.0,0.0,0.0,0.0,0.0,0.0,0.0,0.0,0.0,0.0,0.0,0.0,0.0,0.0,0.0,0.0,0.0,0.0,0.0,0.0,0.0,0.0,0.0,0.0,0.0,0.0,0.0,0.0,0.0,0.0,0.0,0.0,0.0,0.0,0.0,0.0,0.0,0.0,0.0,0.0,0.0,0.0,0.0,0.0,0.0,0.0,0.0,0.0,0.0,0.0,0.0,0.0,0.0,0.0,0.0,0.0,0.0,0.0,0.0,0.0,0.0,0.0,0.0,0.0,0.0,0.0,0.0,0.0,0.0,0.0,0.0,0.0,0.0,0.0,0.0,0.0,0.0,0.0,0.0,0.0,0.0,0.0,0.0,0.0,0.0,0.0,0.0,0.0,0.0,0.0,0.0,0.0,0.0,0.0,0.0,0.0,0.0,0.0,0.0,0.0,0.0,0.0,0.0,0.0,0.0,0.0,0.0,0.0,0.0,0.0,0.0,0.0,0.0,0.0,0.0,0.0,0.0,0.0,0.0,0.0,0.0,0.0,0.0,0.0,0.0,0.0,0.0,0.0,0.0,0.0,0.0,0.0,0.0,0.0,0.0,0.0,0.0,0.0,0.0,0.0,0.0,0.0,0.0,0.0,0.0,0.0,0.0,0.0,0.0,0.0,0.0,0.0,0.0,0.0,0.0,0.0,0.0,0.0,0.0,0.0,0.0,0.0,0.0,0.0,0.0,0.0,0.0,0.0,0.0,0.0,0.0,0.0,0.0,0.0,0.0,0.0,0.0,0.0,0.0,0.0,0.0,0.0,0.0,0.0,0.0,0.0,0.0,0.0,0.0,0.0,0.0,0.0,0.0,0.0,0.0,0.0,0.0,0.0,0.0,0.0,0.0,0.0,0.0,0.0,0.0,0.0,0.0,0.0,0.0,0.0,0.0,0.0,0.0,0.0,0.0,0.0,0.0,0.0,0.0,0.0,0.0,0.0,0.0,0.0,0.0,0.0,0.0,0.0,0.0,0.0,0.0,0.0,0.0,0.0,0.0,0.0,0.0,0.0,0.0,0.0,0.0,0.0,0.0,0.0,0.0,0.0,0.0,0.0,0.0,0.0,0.0,0.0,0.0,0.0,0.0,0.0,0.0,0.0,0.0,0.0,0.0,0.0,0.0,0.0,0.0,0.0,0.0,0.0,0.0,0.0,0.0,0.0,0.0,0.0,0.0,0.0,0.0,0.0,0.0,0.0,0.0,0.0,0.0,0.0,0.0,0.0,0.0,0.0,0.0,0.0,0.0,0.0,0.0,0.0,0.0,0.0,0.0,0.0,0.0,0.0,0.0,0.0,0.0,0.0,0.0,0.0,0.0,0.0,0.0,0.0,0.0,0.0,0.0,0.0,0.0,0.0,0.0,0.0,0.0,0.0,0.0,0.0,0.0,0.0,0.0,0.0,0.0,0.0,0.0,0.0,0.0,0.0,0.0,0.0,0.0,0.0,0.0,0.0,0.0,0.0,0.0,0.0,0.0,0.0,0.0,0.0,0.0,0.0,0.0,0.0,0.0,0.0,-1.2162,0.0,0.0,0.0,0.0,0.0,0.0,0.0,0.0,0.0,0.0,0.0,0.0,0.0,0.0,0.0,0.0,0.0,0.0,0.0,0.0,0.0,0.0,0.0,0.0,0.0,0.0,0.0,0.0,0.0,0.0,0.0,0.0,0.0,0.0,0.0,0.0,0.0,0.0,0.0,-0.0394,-0.0952,-0.167,-0.1986,-0.2207,-0.2348,0.0,0.0,0.0,0.0,0.0,0.0,0.0,0.0,0.0,0.0,0.0,0.0,0.0,0.0,0.0,0.0,0.0,0.0,0.0,0.0,0.0,0.0,0.0,0.0,0.0,0.0,0.0,0.0,0.0,0.0,0.0,0.0,0.0,0.0,0.0,0.0,0.0,0.0,0.0,0.0,0.0,0.0,0.0,0.0,0.0,0.0,0.0,0.0,0.0,0.0,0.0,0.0,0.0,0.0,0.0,0.0,0.0,0.0,0.0,0.0,0.0,0.0,0.0,0.0,0.0,0.0,0.0,0.0,0.0,0.0,0.0,-1.2142,0.0,0.0,0.0,0.0,0.0,0.0,0.0,0.0,0.0,0.0,0.0,0.0,0.0,0.0,0.0,0.0,0.0,0.0,0.0,0.0,0.0,0.0,0.0,0.0,0.0,0.0,0.0,0.0,0.0,0.0,0.0,0.0,0.0,0.0,0.0,0.0,0.0,-0.065,-0.132,-0.2047,-0.2728,-0.2742,-0.2752,-0.2807,-0.3487,0.0,0.0,0.0,0.0,0.0,0.0,0.0,0.0,0.0,0.0,0.0,0.0,0.0,0.0,0.0,0.0,0.0,0.0,0.0,0.0,0.0,0.0,0.0,0.0,0.0,0.0,0.0,0.0,0.0,0.0,0.0,0.0,0.0,0.0,0.0,0.0,0.0,0.0,0.0,0.0,0.0,0.0,0.0,0.0,0.0,0.0,0.0,0.0,0.0,0.0,0.0,0.0,0.0,0.0,0.0,0.0,0.0,0.0,0.0,0.0,0.0,0.0,0.0,-1.4151,-1.4553,-1.4481,-1.5426,-1.5578,-1.5002,-1.327,-1.2753,-1.3092,-1.2624,0.0,0.0,0.0,0.0,0.0,0.0,0.0,0.0,0.0,0.0,0.0,0.0,0.0,0.0,0.0,0.0,0.0,0.0,0.0,0.0,0.0,0.0,0.0,0.0,0.0,0.0,0.0,0.0,0.0,0.0,0.0,0.0,0.0,-0.1017,-0.1533,-0.1607,-0.1825,-0.2257,-0.288,-0.2936,-0.3036,-0.3151,-0.3598,-0.3916,-0.4192,0.0,0.0,0.0,0.0,0.0,0.0,0.0,0.0,0.0,0.0,0.0,0.0,0.0,0.0,0.0,0.0,0.0,0.0,0.0,0.0,0.0,0.0,0.0,0.0,0.0,0.0,0.0,0.0,0.0,0.0,0.0,0.0,0.0,0.0,0.0,0.0,0.0,0.0,0.0,0.0,0.0,-1.318,-1.3345,0.0,0.0,0.0,0.0,0.0,0.0,0.0,0.0,0.0,0.0,0.0,0.0,0.0,-1.344,-1.3936,-1.4394,-1.4651,-1.4711,-1.5771,-1.6003,-1.5521,-1.6111,-1.6342,-1.6246,-1.5916,0.0,-1.3989,-1.3519,0.0,0.0,0.0,0.0,0.0,0.0,0.0,0.0,0.0,0.0,0.0,0.0,0.0,0.0,0.0,0.0,0.0,0.0,0.0,0.0,0.0,0.0,0.0,0.0,0.0,0.0,0.0,0.0,0.0,0.0,0.0,0.0,-0.09,-0.1838,-0.2392,-0.26,-0.2656,-0.284,-0.3184,-0.3213,-0.3427,-0.3818,-0.399,-0.4058,-0.4061,-0.4359,0.0,0.0,0.0,0.0,0.0,0.0,0.0,0.0,0.0,0.0,0.0,0.0,0.0,0.0,0.0,0.0,0.0,0.0,0.0,0.0,0.0,0.0,0.0,0.0,0.0,0.0,0.0,0.0,0.0,0.0,0.0,0.0,0.0,0.0,0.0,0.0,0.0,0.0,0.0,-1.3611,-1.3745,-1.384,-1.4105,-1.4285,0.0,0.0,0.0,0.0,0.0,0.0,0.0,0.0,0.0,-1.5153,-1.5186,-1.5325,-1.5599,-1.6137,-1.6255,-1.596,-1.7053,-1.7431,-1.7178,-1.7671,-1.7901,-1.7897,-1.7601,-1.6913,-1.5948,-1.5143,-1.459,-1.4237,0.0,0.0,0.0,0.0,-1.3633,-1.342,0.0,0.0,0.0,0.0,0.0,0.0,0.0,0.0,0.0,0.0,0.0,0.0,0.0,0.0,0.0,0.2743,0.0,0.0,0.0,0.0,0.0,0.0,0.0,-0.1151,-0.2014,-0.2689,-0.3155,-0.3416,-0.3357,-0.3463,-0.3741,-0.376,-0.4045,-0.4596,-0.4533,-0.4317,-0.4018,-0.4195,-0.4616,-0.5265,0.0,0.0,0.0,0.0,0.0,0.0,0.0,0.0,0.0,0.0,0.0,0.0,0.0,0.0,0.0,0.0,0.0,0.0,0.0,0.0,0.0,0.0,0.0,0.0,0.0,0.0,0.0,0.0,0.0,0.0,0.0,0.0,0.0,0.0,0.0,0.0,0.0,-1.4443,-1.4457,-1.4358,-1.4751,-1.4946,0.0,0.0,0.0,0.0,0.0,0.0,-1.5324,-1.5863,-1.62,-1.629,-1.6634,-1.688,-1.7032,-1.7668,-1.7821,-1.7514,-1.8434,-1.8899,-1.8887,-1.9268,-1.9504,-1.9602,-1.8972,-1.8425,-1.7908,-1.6575,-1.5778,-1.5387,-1.5387,-1.5111,-1.4747,-1.4767,-1.4633,-1.4327,0.0,0.0,0.0,0.0,0.0,0.0,0.0,0.0,0.0,0.0,0.0,0.0,0.0,0.0,0.2722,0.2693,0.217,0.1652,0.0,0.0,0.0,-0.1446,-0.181,-0.257,-0.3752,-0.3813,-0.39,-0.4062,-0.373,-0.3946,-0.4645,-0.4717,-0.4966,-0.5416,-0.517,-0.4786,-0.4301,-0.4771,-0.5366,-0.61,-0.6638,0.0,0.0,0.0,0.0,0.0,0.0,0.0,0.0,0.0,0.0,0.0,0.0,0.0,0.0,0.0,0.0,0.0,0.0,0.0,0.0,0.0,0.0,0.0,0.0,0.0,0.0,0.0,0.0,0.0,0.0,0.0,0.0,0.0,0.0,0.0,0.0,0.0,0.0,-1.481,-1.4687,0.0,0.0,0.0,0.0,-1.7182,-1.6252,-1.5749,-1.5933,-1.5523,-1.5318,-1.5468,-1.6702,-1.753,-1.7915,-1.8652,-1.9222,-1.9657,-2.0222,-2.0491,-2.0495,-2.0586,-2.0878,-2.1315,-2.0211,-1.9709,-1.9519,-1.7501,-1.6561,-1.6431,-1.6409,-1.6324,-1.6219,-1.6347,-1.637,-1.6361,0.0,0.0,0.0,0.0,0.0,0.0,0.0,0.0,0.0,0.0,0.0,0.0,0.0,0.2169,0.2029,0.1637,0.1421,0.1204,0.1046,0.0,0.0,-0.1693,-0.2255,-0.2913,-0.369,-0.3914,-0.4194,-0.4498,-0.4488,-0.507,-0.6108,-0.6218,-0.6779,-0.7691,-0.7605,-0.7284,-0.6792,-0.547,-0.5273,-0.5787,-0.5858,-0.6663,0.0,0.0,0.0,0.0,0.0,0.0,0.0,0.0,0.0,0.0,0.0,0.0,0.0,0.0,0.0,0.0,0.0,0.0,0.0,0.0,0.0,0.0,0.0,0.0,0.0,0.0,0.0,0.0,0.0,0.0,0.0,0.0,0.0,0.0,0.0,0.0,0.0,-1.7058,-1.7297,0.0,-1.7607,-1.7615,-1.7746,-1.8071,-1.7363,-1.6961,-1.7044,-1.7178,-1.7404,-1.7779,-1.8829,-1.961,-2.0056,-2.0771,-2.1064,-2.0889,-2.142,-2.1679,-2.1683,-2.1347,-2.1493,-2.197,-2.1217,-2.0891,-2.0826,-2.0091,-1.8924,-1.7617,-1.7958,-1.7898,-1.7591,-1.7641,-1.7798,-1.7938,0.0,0.0,0.0,0.0,0.0,0.0,0.0,0.0,0.0,0.0,0.0,0.2188,0.1579,0.1581,0.1462,0.1081,0.1027,0.0854,0.051,0.0,0.0,-0.2004,-0.2843,-0.3456,-0.3757,-0.4264,-0.4767,-0.5289,-0.5442,-0.6185,-0.7456,-0.7572,-0.8139,-0.9132,-0.9105,-0.8973,-0.8679,-0.7066,-0.6412,-0.6467,-0.6271,-0.7051,-0.8294,0.0,0.0,0.0,0.0,0.0,0.0,0.0,0.0,0.0,0.0,0.0,0.0,0.0,0.0,0.0,0.0,0.0,0.0,0.0,0.0,0.0,0.0,0.0,0.0,0.0,0.0,0.0,0.0,0.0,0.0,0.0,0.0,0.0,0.0,0.0,-1.8979,-1.8908,-1.9453,-1.9703,-1.9424,-1.9373,-1.9333,-1.9278,-1.8688,-1.8323,-1.8323,-1.8657,-1.8971,-1.9303,-2.032,-2.1054,-2.1416,-2.2147,-2.2351,-2.2046,-2.2393,-2.2556,-2.2543,-2.202,-2.2071,-2.2518,-2.1807,-2.1594,-2.1769,-2.1769,-2.079,-1.9346,-1.971,-1.9667,-1.9394,-1.9394,-1.9528,-1.9657,0.0,0.0,0.0,0.0,0.0,0.0,0.0,0.0,0.0,0.0,0.1786,0.1579,0.1048,0.1073,0.1109,0.1109,0.1017,0.0559,-0.0424,-0.1255,0.0,-0.2501,-0.3667,-0.4254,-0.4139,-0.5002,-0.5767,-0.6452,-0.6505,-0.7257,-0.8651,-0.866,-0.9034,-0.9701,-0.954,-0.9625,-0.9769,-0.9511,-0.8981,-0.83,-0.808,-0.8557,-0.9384,0.0,0.0,0.0,0.0,0.0,0.0,0.0,0.0,0.0,0.0,0.0,0.0,0.0,0.0,0.0,0.0,0.0,0.0,0.0,0.0,0.0,0.0,0.0,0.0,0.0,0.0,0.0,0.0,0.0,0.0,0.0,0.0,0.0,-1.9429,-1.9877,-2.0292,-2.0193,-2.0857,-2.109,-2.0568,-2.0849,-2.1033,-2.0879,-2.0194,-1.9771,-1.9748,-1.9748,-1.9759,-1.9771,-2.1003,-2.175,-2.1982,-2.2625,-2.2994,-2.3133,-2.3108,-2.3108,-2.3083,-2.2556,-2.2606,-2.3045,-2.2008,-2.1845,-2.2305,-2.2305,-2.202,-2.1543,-2.1518,-2.1506,-2.1506,-2.1506,-2.1559,-2.1543,0.0,0.0,0.0,0.0,0.0,0.0,0.0,0.0,0.0,0.0,0.1413,0.1113,0.1016,0.1054,0.1109,0.1109,0.0655,0.0219,-0.0116,0.0,0.0,-0.2975,-0.4076,-0.4771,-0.4959,-0.5731,-0.6518,-0.7274,-0.7577,-0.848,-0.9913,-0.9992,-1.0684,-1.1832,-1.1807,-1.1719,-1.1591,-1.1489,-1.1145,-1.0477,-0.8898,-0.8531,-0.8914,0.0,0.0,0.0,0.0,0.0,0.0,0.0,0.0,0.0,0.0,0.0,0.0,0.0,0.0,0.0,0.0,0.0,0.0,0.0,0.0,0.0,0.0,0.0,0.0,0.0,0.0,0.0,0.0,0.0,0.0,0.0,0.0,-2.0959,-2.0739,-2.1798,-2.2603,-2.2567,-2.3086,-2.3313,-2.3054,-2.3099,-2.3074,-2.2769,-2.1981,-2.1396,-2.1093,-2.0718,-2.0859,-2.1619,-2.2288,-2.303,-2.3839,-2.3735,-2.3735,-2.3753,-2.3308,-2.3108,-2.3095,-2.2945,-2.2957,-2.3083,-2.2782,-2.2732,-2.2882,-2.2882,-2.2794,-2.2606,-2.2234,-2.2083,-2.2083,-2.2083,-2.2334,-2.2594,0.0,0.0,0.0,0.0,0.0,0.0,0.0,0.0,0.0,0.0,0.0933,0.0673,0.0964,0.1059,0.1008,0.0739,0.032,-0.0151,-0.0679,0.0,-0.2808,-0.3827,-0.4706,-0.5401,-0.5931,-0.6762,-0.7719,-0.876,-0.8996,-0.9822,-1.1206,-1.1274,-1.1811,-1.2705,-1.2705,-1.262,-1.2475,-1.2475,-1.2439,-1.2326,-1.11,-1.0355,-0.9951,-1.0173,-1.1111,-1.2282,-1.2224,-1.3077,-1.4173,-1.3691,0.0,0.0,0.0,0.0,0.0,0.0,0.0,0.0,0.0,0.0,0.0,0.0,0.0,0.0,0.0,0.0,0.0,0.0,0.0,0.0,0.0,0.0,0.0,0.0,-2.1395,-2.2435,-2.3035,-2.3656,-2.418,-2.4595,-2.5177,-2.5326,-2.4711,-2.4804,-2.4632,-2.4023,-2.3422,-2.2973,-2.2759,-2.2435,-2.2565,-2.3191,-2.343,-2.3749,-2.4213,-2.4234,-2.4167,-2.4004,-2.386,-2.381,-2.381,-2.381,-2.3684,-2.3471,-2.371,-2.3684,-2.3471,-2.3471,-2.3471,0.0,0.0,0.0,0.0,0.0,-2.2832,-2.3058,0.0,0.0,0.0,0.0,0.0,0.0,0.0,0.0,0.0,0.0,0.0,0.031,0.0928,0.0985,0.0766,0.02,-0.0123,-0.0767,0.0,-0.2693,-0.3635,-0.481,-0.5467,-0.6229,-0.7038,-0.8047,-0.919,-1.056,-1.056,-1.1178,-1.2312,-1.2312,-1.2451,-1.2705,-1.279,-1.2784,-1.2705,-1.2954,-1.3316,-1.379,-1.3913,-1.3135,-1.1928,-1.1997,-1.2858,-1.3989,-1.3663,-1.4354,-1.5386,-1.5072,0.0,0.0,0.0,0.0,0.0,0.0,0.0,0.0,0.0,0.0,0.0,0.0,0.0,0.0,0.0,0.0,0.0,0.0,0.0,0.0,0.0,0.0,0.0,0.0,-2.2619,-2.4515,-2.5803,-2.5523,-2.5482,-2.626,-2.6962,-2.6954,-2.5854,-2.609,-2.585,-2.478,-2.453,-2.4394,-2.4365,0.0,0.0,0.0,0.0,-2.4307,-2.4002,-2.4469,-2.4541,-2.418,-2.4587,-2.4788,-2.4788,-2.4788,-2.4556,-2.4148,-2.4639,-2.4576,-2.4155,-2.4155,-2.4117,-2.4003,-2.3364,-2.3108,-2.3108,-2.3138,-2.3138,-2.3138,0.0,0.0,0.0,0.0,0.0,0.0,0.0,0.0,0.0,0.0813,0.0377,0.0271,0.0931,0.0469,0.0094,-0.0031,-0.1349,-0.2542,-0.343,-0.3738,-0.4269,-0.5178,-0.6082,-0.725,-0.8718,-0.9562,-1.0437,-1.1353,-1.1508,-1.185,-1.2312,-1.2312,-1.2451,-1.2747,-1.3415,-1.3372,-1.2833,-1.4413,-1.4789,-1.4324,-1.5221,-1.4924,-1.3985,-1.4298,-1.4903,-1.5585,-1.5672,-1.6399,-1.727,-1.6739,-1.6579,-1.6678,-1.6857,0.0,0.0,0.0,0.0,0.0,0.0,0.0,0.0,0.0,0.0,0.0,0.0,0.0,0.0,0.0,0.0,0.0,0.0,0.0,0.0,-2.3441,-2.4868,-2.6343,-2.801,-2.7821,-2.7473,-2.7492,-2.7604,-2.7454,-2.6793,-2.6795,-2.6432,-2.5469,-2.5228,-2.4975,-2.4716,-2.4691,-2.4911,-2.5336,-2.5348,-2.5544,-2.5941,-2.559,-2.5365,-2.5285,0.0,0.0,-2.4788,-2.4788,-2.4822,-2.49,-2.5014,-2.5052,-2.5046,-2.5046,-2.4777,-2.4318,-2.3442,-2.3108,-2.3108,-2.3271,-2.333,-2.333,0.0,0.0,0.0,0.0,0.0,0.0,0.0,0.0,0.0,0.0,-0.0719,-0.0974,-0.0629,-0.0799,-0.12,-0.181,-0.2736,0.0,-0.4153,-0.4518,-0.5098,-0.6014,-0.743,-0.8749,-0.9991,-1.0901,-1.1632,-1.2147,-1.223,-1.2379,-1.2512,-1.296,-1.3281,-1.3578,-1.4455,-1.4657,-1.4441,-1.5433,-1.5854,-1.5951,-1.67,-1.7033,-1.6971,-1.6156,-1.6509,-1.7422,-1.7357,-1.7876,-1.8525,-1.802,-1.7749,-1.7583,-1.7486,-1.7553,-1.7739,0.0,0.0,0.0,0.0,0.0,0.0,0.0,0.0,0.0,0.0,0.0,0.0,0.0,0.0,-1.9978,0.0,0.0,-2.3498,-2.5165,-2.6194,-2.7237,-2.87,-2.865,-2.8474,-2.835,-2.835,-2.8138,-2.7588,-2.7788,-2.7524,-2.6527,-2.6349,-2.6111,-2.5674,-2.5636,-2.5762,-2.6047,-2.6059,-2.6059,-2.6059,-2.6059,-2.5954,-2.5744,-2.5757,-2.5802,-2.5914,-2.5914,-2.5815,-2.5671,-2.5952,-2.5934,-2.5743,-2.5743,-2.5397,-2.4877,-2.4753,-2.415,-2.3348,-2.345,-2.3509,-2.3548,0.0,0.0,0.0,0.0,0.0,0.0,0.0,0.0,0.0,0.0,-0.183,-0.2206,-0.2198,-0.2149,-0.2597,0.0,0.0,-0.4265,-0.484,-0.5255,-0.6024,-0.7206,-0.8855,-1.0181,-1.1003,-1.1974,-1.2534,-1.2705,-1.2705,-1.2705,-1.2705,-1.3669,-1.4203,-1.4448,-1.5523,-1.6018,-1.6044,-1.6413,-1.6919,-1.7505,-1.8119,-1.8946,-1.9614,-1.806,-1.8267,-1.9264,-1.8853,-1.9002,-1.9293,-1.8854,-1.8385,-1.7962,-1.7706,-1.7769,-1.798,-1.8082,-1.8169,0.0,0.0,0.0,0.0,0.0,0.0,0.0,0.0,0.0,-2.0091,-2.0686,-2.1345,-2.2214,-2.3429,-2.4482,-2.5485,-2.6611,-2.7351,-2.8084,-2.8925,-2.9051,-2.9051,-2.9051,-2.9051,-2.8875,-2.8323,-2.8662,-2.8511,-2.7519,-2.7444,-2.7241,-2.6688,-2.665,-2.66,-2.6499,-2.6521,-2.6357,-2.5992,-2.6526,-2.6595,-2.6286,-2.6744,-2.6977,-2.699,-2.699,-2.6868,-2.6641,-2.7228,-2.7229,-2.6817,-2.6713,-2.6386,-2.5992,-2.6417,-2.5711,-2.44,-2.44,-2.437,-2.4435,0.0,0.0,0.0,0.0,0.0,0.0,0.0,0.0,0.0,0.0,0.0,0.0,0.0,0.0,0.0,0.0,-0.4759,-0.4934,-0.612,-0.6131,-0.6937,-0.886,-0.9807,-1.0793,-1.1851,-1.2397,-1.2662,-1.2705,-1.2705,-1.2705,-1.2705,-1.3824,-1.4364,-1.449,-1.6306,-1.6715,-1.6126,-1.7917,-1.8287,-1.7781,-1.9131,-1.997,-2.04,-2.0533,-2.0687,-2.0807,-2.0416,-1.9916,-1.9402,-1.8877,-1.8284,-1.7767,-1.7981,-1.7934,-1.7929,-1.838,0.0,-1.8278,-1.82,-1.8165,-1.8177,-1.8199,-1.9092,-2.0346,0.0,0.0,-2.3113,-2.5054,-2.487,-2.4876,-2.6508,-2.6914,-2.7344,-2.8422,-2.9126,-2.9553,-2.9679,-2.9691,-2.9691,-2.9691,-2.9691,-2.9465,-2.885,-2.885,-2.8637,-2.8059,-2.8009,-2.777,-2.7253,-2.7228,-2.7002,-2.6512,-2.6624,-2.6882,-2.7383,-2.7611,-2.7729,-2.7665,-2.7729,-2.7498,-2.699,-2.699,-2.7397,-2.8096,-2.8894,-2.9195,-2.9084,-2.8614,-2.8379,-2.8254,-2.7814,-2.7506,-2.7322,-2.7205,-2.7147,-2.7147,0.0,0.0,0.0,0.0,0.0,0.0,0.0,0.0,0.0,0.0,0.0,0.0,0.0,0.0,0.0,-0.5737,-0.5117,-0.5245,-0.6611,-0.6891,-0.781,-0.965,-1.0776,-1.1754,-1.2626,-1.282,-1.3173,-1.3675,-1.33,-1.3591,-1.4455,-1.5032,-1.5688,-1.638,-1.7706,-1.8158,-1.798,-1.8816,-1.9119,-1.9029,-1.9893,-2.0512,-2.0851,-2.0796,-2.0769,-2.0719,-2.0372,-1.9657,0.0,0.0,-1.8112,-1.7777,-1.8347,-1.8227,-1.8082,-1.9145,-1.8844,0.0,-1.9096,-1.9812,-2.0511,0.0,-2.2241,-2.3113,-2.3993,-2.4541,-2.5157,-2.6161,-2.6568,-2.7042,-2.8047,-2.8511,-2.89,0.0,-2.9641,-2.9792,-2.9792,-2.9503,-2.9164,-2.885,-2.8812,-2.8976,-2.939,-2.9428,-2.9202,-2.8624,-2.8586,-2.8372,-2.7963,-2.7925,-2.7744,-2.7338,-2.7678,-2.7828,-2.7774,-2.8177,-2.8402,-2.8544,-2.8585,-2.8535,-2.8411,-2.8851,-2.9455,-3.0192,-3.0517,-3.0453,-3.0084,-3.0242,-3.0087,-2.9812,-3.0344,-3.054,-3.0307,-2.8405,-2.7736,-2.7763,0.0,0.0,0.0,0.0,0.0,0.0,0.0,0.0,0.0,0.0,0.0,0.0,0.0,0.0,-0.6417,-0.6282,-0.5572,-0.5733,-0.7196,-0.7564,-0.8503,-1.0211,-1.1323,-1.2248,-1.2976,-1.3057,-1.3555,-1.4468,-1.4013,-1.4461,-1.5771,-1.6232,-1.6927,-1.7738,-1.8656,-1.9152,-1.9301,-1.9301,-1.954,-1.9921,-2.0356,-2.0622,-2.0769,-2.0585,-2.0182,-1.9708,-1.9535,-1.8938,-1.8207,-1.7994,-1.7861,-1.7858,-1.8461,-1.8359,-1.8289,-1.9791,-1.9575,-1.9189,-2.0398,-2.1481,-2.2535,-2.359,-2.4668,-2.5561,-2.5818,-2.6442,-2.7026,-2.7344,-2.8021,-2.8699,-2.9101,-2.9515,-2.9792,-2.9792,-2.9792,-2.9792,-2.9792,-2.9164,-2.8549,-2.8184,-2.8044,-2.832,-2.9176,-2.9315,-2.9214,-2.8913,-2.8888,-2.8824,-2.8629,-2.8604,-2.8471,-2.8136,-2.8757,-2.8976,-2.8751,-2.9403,-2.9812,-2.994,-2.9991,-3.0009,-2.9992,-3.0717,-3.1326,-3.1781,-3.1976,-3.1782,-3.1366,-3.1854,-3.1768,-3.1412,-3.2409,-3.2788,-3.2491,-3.0216,-2.936,-2.9403,0.0,0.0,0.0,0.0,0.0,0.0,0.0,0.0,0.0,0.0,0.0,0.0,0.0,0.0,-0.6775,-0.6943,-0.6358,-0.663,-0.8145,-0.8151,-0.8904,-1.0689,-1.1296,-1.1978,-1.2702,-1.2964,-1.3633,-1.4706,-1.4657,-1.5108,-1.6003,-1.7123,-1.7658,-1.7738,-1.8807,-1.9301,-1.9301,-1.9301,-1.954,-1.9921,-2.0356,-2.0259,-1.9966,-2.0383,-1.9386,-1.7871,-1.7876,-1.7956,-1.7988,-1.7263,-1.7416,-1.7951,-1.8232,-1.8305,0.0,-2.0051,-2.0816,-2.1322,-2.1874,-2.26,-2.3155,-2.3217,-2.5098,-2.6945,-2.7018,-2.7975,-2.8976,-2.9578,-2.9716,-2.9741,-2.9767,-2.9779,-2.9792,-2.9792,-2.9792,-2.9792,-2.9792,-2.8825,-2.8158,-2.8279,-2.7896,-2.7697,0.0,-2.8026,-2.8373,-2.885,-2.8888,-2.8988,-2.9187,-2.9187,-2.9007,-2.869,-2.9561,-3.0338,-3.089,-3.1813,-3.2272,-3.232,-3.2292,-3.2002,-3.1458,-3.2126,-3.246,-3.2521,-3.3161,-3.3423,-3.3408,-3.3423,-3.3423,-3.3408,-3.3454,-3.3469,-3.3454,-3.3364,-3.3334,-3.3259,0.0,0.0,0.0,0.0,0.0,0.0,0.0,0.0,0.0,0.0,0.0,0.0,0.0,0.0,0.0,0.0,-0.6504,-0.696,-0.8714,-0.8491,-0.9058,-1.0775,-1.126,-1.176,-1.2353,-1.3068,-1.3987,-1.5085,-1.5431,-1.6309,-1.7598,-1.7797,-1.8198,-1.8767,-1.9134,-1.9301,-1.932,-1.9756,-1.9999,-2.0138,-2.0432,-2.0438,-2.0262,-1.9658,-1.886,-1.7971,0.0,-1.7162,-1.7077,-1.6818,-1.7089,-1.7638,-1.8495,-1.8766,-1.8991,-2.0041,-2.1355,-2.2464,-2.255,0.0,-2.4834,-2.5803,-2.6964,-2.8064,-2.8712,-2.9201,-2.9453,-2.9252,-2.8933,-2.8551,-2.8155,-2.7786,-2.7793,-2.8559,-2.8762,-2.8995,-2.9365,-2.9643,-2.9388,-2.8258,-2.8745,0.0,0.0,0.0,0.0,-2.9993,-3.0453,-3.0972,-3.16,-3.1663,-3.1512,-3.115,-3.1799,-3.2083,-3.1923,-3.2604,-3.2939,-3.2939,-3.302,-3.3216,-3.3512,-3.3735,-3.4082,-3.4513,-3.4818,-3.4673,-3.4219,-3.4874,-3.4767,-3.4219,-3.4733,-3.4896,-3.4831,-3.4831,-3.4831,-3.4607,0.0,0.0,0.0,0.0,0.0,0.0,0.0,0.0,0.0,0.0,0.0,0.0,0.0,0.0,0.0,0.0,0.0,-0.7384,-0.8907,-0.8663,-0.9107,-1.0519,-1.0869,-1.1261,-1.1804,-1.2544,-1.3476,-1.4609,-1.5235,-1.6218,-1.7506,-1.7583,-1.7899,-1.844,-1.844,-1.8569,-1.8802,-1.9225,-1.9492,-1.9667,-1.986,-1.9759,-1.9386,-1.8692,-1.8015,0.0,-1.7,-1.6849,-1.6809,-1.6809,-1.7225,-1.7893,-1.8829,-1.9442,-1.9986,-2.0716,-2.2062,-2.336,-2.3616,-2.483,-2.6285,-2.7484,-2.8234,-2.8893,-2.9626,-2.9628,-2.9302,-2.872,-2.7988,-2.7354,-2.6942,-2.6458,-2.6485,-2.7595,-2.7754,-2.8191,-2.9462,-2.9459,-2.9207,-2.8833,-2.9375,-2.9348,0.0,0.0,0.0,-2.9982,-3.0788,-3.1675,-3.2493,-3.2765,-3.2828,-3.2686,-3.3293,-3.3431,-3.3067,-3.3719,-3.4002,-3.4036,-3.4116,-3.4413,-3.4846,-3.4846,-3.5102,-3.5572,-3.5671,-3.5461,-3.5083,-3.5728,-3.562,-3.5083,-3.5601,-3.575,-3.5683,-3.5683,-3.5683,-3.5426,0.0,0.0,0.0,0.0,0.0,0.0,0.0,0.0,0.0,0.0,0.0,0.0,0.0,0.0,0.0,0.0,0.0,0.0,-0.8804,-0.8738,-0.9105,-0.9991,-1.0283,-1.0617,-1.1071,-1.1517,-1.2212,-1.324,-1.4107,-1.4983,-1.5871,-1.6566,-1.6876,-1.6911,-1.6938,-1.7265,-1.7778,-1.7832,-1.8132,-1.8655,-1.8655,-1.8245,-1.7585,-1.7595,-1.697,-1.6179,-1.6668,-1.7025,-1.7256,-1.7246,-1.7815,-1.8667,-1.9295,-2.0345,-2.1452,-2.2005,-2.2994,-2.411,-2.5109,-2.6295,-2.7415,-2.8136,-2.8853,-2.9457,-2.9703,-2.9277,-2.8721,-2.8125,-2.7035,-2.6179,0.0,0.0,-2.5908,-2.7039,-2.6987,-2.7657,-3.0139,-2.8644,-2.8042,0.0,0.0,0.0,0.0,0.0,0.0,-2.918,0.0,-3.1318,-3.2067,-3.2688,-3.3115,-3.3332,-3.4007,-3.4346,-3.4346,-3.5133,-3.5504,-3.5504,-3.5537,-3.5537,-3.5537,-3.5537,-3.5604,-3.572,-3.572,-3.5831,-3.6005,-3.6005,-3.6005,-3.6005,-3.6037,-3.6053,-3.6068,-3.6085,-3.6085,-3.5977,0.0,0.0,0.0,0.0,0.0,0.0,0.0,0.0,0.0,0.0,0.0,0.0,0.0,0.0,0.0,0.0,0.0,0.0,-0.9503,-0.98,-1.0124,-1.0581,-1.057,-1.0621,-1.0733,-1.1517,-1.215,-1.2618,-1.4038,-1.4849,-1.5119,-1.6275,-1.6835,-1.6854,-1.7236,-1.751,-1.7672,-1.8124,-1.8226,-1.8121,-1.8269,-1.8043,-1.758,-1.7429,-1.7,-1.6551,-1.717,-1.766,-1.7981,-1.7726,0.0,-1.9354,-2.0456,-2.1302,-2.2096,-2.3082,-2.4116,-2.5154,-2.6224,-2.7114,-2.7935,-2.8543,-2.9047,-2.9307,-2.8998,-2.8606,-2.8004,-2.7028,-2.5558,-2.4477,0.0,0.0,0.0,-2.7457,-2.8622,0.0,-3.144,-3.2098,0.0,-3.195,0.0,-3.2843,-3.1884,-3.2687,0.0,0.0,-3.2805,-3.3865,-3.4526,-3.4751,-3.4854,-3.4902,-3.51,-3.5198,-3.5198,-3.5492,-3.5638,-3.5638,-3.5782,-3.5861,-3.5861,-3.5861,-3.5878,-3.5941,-3.6022,-3.6053,-3.6005,-3.6273,-3.6241,-3.6053,-3.66,-3.6753,-3.6723,-3.7191,-3.7354,-3.7293,0.0,0.0,0.0,0.0,0.0,0.0,0.0,0.0,0.0,0.0,0.0,0.0,0.0,0.0,0.0,0.0,0.0,0.0,0.0,-0.9923,-1.031,-1.0924,-1.0853,-1.0747,-1.0611,-1.1343,-1.171,-1.166,-1.3113,-1.3856,-1.3911,-1.5186,-1.5828,-1.5904,-1.6448,-1.683,-1.7098,-1.744,-1.7513,0.0,0.0,-1.7417,-1.7225,-1.7135,-1.704,-1.708,-1.763,0.0,0.0,0.0,0.0,-2.103,-2.1723,-2.2741,-2.3857,-2.469,0.0,-2.6489,-2.731,-2.8003,-2.8582,-2.8954,-2.9051,-2.8936,-2.8471,-2.786,-2.7045,-2.5917,-2.4504,0.0,-2.4055,-2.4273,0.0,0.0,0.0,0.0,-3.1881,-3.2647,-3.3103,0.0,-3.4044,0.0,-3.344,-3.3978,-3.4218,0.0,-3.4233,-3.4668,-3.504,-3.534,-3.5504,-3.5504,-3.5504,-3.5522,-3.5604,-3.5671,-3.5752,-3.5831,-3.5941,-3.6005,-3.6005,-3.6005,-3.6037,-3.6085,0.0,-3.6211,-3.6258,-3.6708,-3.68,-3.6693,-3.737,-3.7589,-3.756,-3.7908,-3.8023,-3.8023,0.0,0.0,0.0,0.0,0.0,0.0,0.0,0.0,0.0,0.0,0.0,0.0,0.0,0.0,0.0,0.0,0.0,0.0,0.0,0.0,0.0,0.0,-1.1217,-1.1063,-1.0744,-1.1195,-1.1224,-1.0821,-1.2057,-1.272,-1.2893,-1.4138,-1.4822,-1.5026,-1.5581,-1.6093,-1.6579,-1.6579,-1.6686,-1.685,-1.685,-1.6915,-1.7034,0.0,0.0,0.0,0.0,0.0,0.0,0.0,-2.2084,-2.2909,-2.304,-2.4339,-2.5958,-2.6515,-2.7159,-2.7792,-2.836,-2.8836,-2.9157,-2.9302,-2.9009,-2.8525,-2.8055,-2.7102,-2.6008,-2.494,0.0,-2.3225,-2.4131,-2.4416,-2.5155,-2.7097,0.0,-2.9566,-3.2147,-3.2094,-3.2524,-3.4394,-3.4638,-3.4638,-3.4638,-3.516,-3.5504,-3.5504,-3.4951,-3.4638,-3.4638,-3.5175,-3.5504,-3.5504,-3.5537,-3.5572,-3.5688,-3.5752,-3.5847,-3.6037,-3.6068,-3.6068,-3.6068,-3.6068,-3.6132,-3.6242,-3.6242,-3.6352,-3.6554,-3.7058,-3.7328,-3.7476,-3.8067,-3.8351,-3.8418,-3.8518,-3.853,-3.853,0.0,0.0,0.0,0.0,0.0,0.0,0.0,0.0,0.0,0.0,-0.7901,0.0,0.0,0.0,0.0,0.0,0.0,0.0,0.0,0.0,0.0,0.0,-1.1788,-1.1724,-1.1433,-1.1523,-1.1528,-1.1445,-1.244,-1.3178,-1.3717,-1.5211,-1.6139,-1.6617,-1.7147,-1.7472,-1.7556,-1.7556,-1.7581,-1.7605,-1.7605,-1.7876,-1.8312,0.0,0.0,0.0,0.0,0.0,0.0,-2.1928,-2.2731,-2.3442,-2.4284,-2.548,-2.6814,-2.7754,-2.8112,-2.8397,-2.9428,-2.952,-2.9302,-2.9157,-2.8995,-2.8573,-2.7516,-2.6519,0.0,0.0,-2.3403,-2.2944,-2.4142,-2.4496,-2.5583,-2.8584,-2.9693,-3.1068,-3.3731,-3.4031,-3.4286,0.0,-3.5325,-3.5325,-3.5325,-3.5429,0.0,0.0,-3.5385,-3.5325,-3.5325,-3.5444,-3.5504,-3.5504,-3.5621,-3.5671,-3.5688,-3.5975,-3.6148,-3.6179,-3.632,-3.6429,-3.6429,-3.6429,-3.6429,-3.646,-3.646,0.0,-3.6523,-3.66,-3.6952,-3.7476,-3.8067,-3.8601,-3.9109,-3.9601,-3.9799,-3.9799,0.0,0.0,0.0,0.0,0.0,0.0,0.0,0.0,0.0,0.0,-0.7901,-0.7901,0.0,0.0,0.0,0.0,0.0,0.0,0.0,0.0,0.0,0.0,0.0,0.0,0.0,-1.2559,-1.2687,-1.2208,0.0,-1.4,-1.464,-1.5741,-1.6594,-1.7239,-1.7776,-1.8001,-1.8001,-1.8001,-1.8001,-1.8001,-1.8001,-1.8448,0.0,0.0,0.0,0.0,0.0,0.0,0.0,0.0,-2.2956,-2.4274,-2.5471,-2.6721,-2.7928,-2.8812,-2.9088,-2.9236,-2.9846,-2.9819,-2.9498,-2.9096,-2.8762,-2.8113,-2.668,0.0,0.0,0.0,-2.34,-2.3327,-2.4317,-2.4567,0.0,-2.7636,-2.914,-3.0702,-3.2662,-3.3829,0.0,-3.5429,-3.5504,-3.5504,0.0,-3.5504,-3.5504,-3.5504,-3.5572,-3.5572,-3.5504,-3.5587,-3.5653,-3.578,-3.5814,-3.5894,-3.5943,-3.6101,-3.6242,-3.6352,-3.646,-3.6492,-3.6492,-3.6492,-3.6492,-3.6523,-3.6831,-3.6983,-3.7013,-3.765,-3.8084,-3.8395,-3.8984,-3.9401,-3.9696,-3.9995,-4.0096,-4.0096,0.0,0.0,0.0,0.0,0.0,0.0,0.0,-0.681,-0.7413,-0.7848,-0.7928,-0.7955,-0.7955,-0.8115,-0.8242,0.0,0.0,0.0,0.0,0.0,0.0,0.0,0.0,0.0,0.0,0.0,0.0,-1.3148,-1.4055,0.0,0.0,0.0,0.0,0.0,-1.8307,-1.8543,-1.8543,-1.8543,-1.8543,0.0,0.0,-1.9066,0.0,0.0,0.0,0.0,0.0,0.0,0.0,0.0,-2.3004,-2.4807,-2.6128,-2.7364,-2.8467,-2.9299,-2.9613,-2.9783,-3.0081,-3.0011,-2.9731,-2.9189,-2.8585,-2.7758,-2.6149,-2.5371,0.0,-2.3723,-2.3427,-2.3555,-2.4269,-2.4164,-2.4504,0.0,-2.7579,-2.9175,-3.1017,-3.2781,-3.4203,0.0,-3.5415,0.0,-3.5504,-3.5504,0.0,-3.5504,-3.5621,-3.5671,-3.5619,-3.5718,-3.5831,-3.6005,-3.6037,-3.6085,-3.6196,-3.6242,-3.6352,-3.6492,-3.6492,-3.6492,-3.6492,-3.6631,-3.6693,-3.6723,-3.7312,-3.7608,-3.7666,-3.8618,-3.9082,-3.9259,-3.9722,-3.9995,-4.0096,-4.0096,-4.0096,-4.0096,0.0,0.0,0.0,0.0,0.0,0.0,0.0,-0.7133,-0.7848,-0.7901,-0.8062,-0.8168,-0.8168,-0.8195,-0.8242,0.0,0.0,0.0,0.0,0.0,0.0,0.0,0.0,0.0,0.0,0.0,0.0,-1.4248,-1.4895,0.0,0.0,0.0,0.0,0.0,0.0,-1.966,-1.966,-1.966,0.0,0.0,0.0,0.0,0.0,0.0,0.0,0.0,0.0,0.0,0.0,0.0,0.0,-2.4463,-2.5608,-2.6649,-2.7629,-2.8668,0.0,0.0,-3.0547,-3.0469,-2.9986,-2.9564,-2.8893,-2.7969,-2.6437,0.0,-2.496,-2.3807,-2.3146,-2.2954,-2.3594,-2.2746,-2.2784,-2.5282,0.0,-2.6353,0.0,-3.1271,-3.2497,0.0,0.0,0.0,0.0,0.0,0.0,0.0,0.0,-3.5752,-3.5941,-3.5973,-3.5973,-3.6005,-3.6116,-3.6179,-3.6196,-3.6383,-3.6492,-3.6492,-3.6492,-3.6492,-3.6523,-3.7074,-3.7328,-3.7358,-3.7953,-3.8238,0.0,-3.8351,-3.8712,-3.9206,-3.9259,-3.9618,-4.0096,-4.0096,-4.0096,-4.0096,0.0,0.0,0.0,0.0,0.0,0.0,0.0,-0.7568,-0.8115,-0.8189,-0.8268,-0.8321,-0.8321,-0.8395,-0.8474,0.0,0.0,0.0,0.0,0.0,0.0,0.0,0.0,0.0,0.0,0.0,-1.4841,-1.476,-1.5375,0.0,0.0,0.0,0.0,0.0,0.0,-1.9798,-1.9798,-1.9798,0.0,0.0,0.0,0.0,0.0,0.0,0.0,0.0,0.0,0.0,-2.1496,0.0,0.0,0.0,-2.4201,-2.4856,0.0,0.0,-2.8564,-2.9004,-2.9936,-3.0246,-3.0087,-2.9217,-2.8797,-2.8053,-2.6065,0.0,-2.4973,-2.3829,-2.34,-2.3321,-2.3548,-2.256,-2.2286,-2.4094,0.0,0.0,-2.8903,0.0,0.0,0.0,0.0,0.0,0.0,0.0,0.0,0.0,0.0,0.0,-3.6289,-3.6195,-3.6195,-3.6304,-3.6352,-3.6383,-3.6383,-3.646,-3.6492,-3.6492,-3.6492,-3.6492,-3.6523,-3.7118,-3.7417,-3.7492,-3.889,-3.9489,0.0,-3.9906,-4.0191,-4.0342,-3.9932,-3.9893,-4.0096,-4.0096,-4.0096,-4.0096,0.0,0.0,0.0,0.0,0.0,0.0,-0.7283,-0.7863,-0.8295,-0.8401,-0.8448,-0.8448,-0.8448,-0.858,-0.8685,-0.8705,0.0,0.0,0.0,0.0,0.0,0.0,0.0,0.0,0.0,0.0,-1.536,-1.5273,-1.5706,-1.622,0.0,0.0,-1.8147,-1.8762,0.0,0.0,0.0,0.0,0.0,0.0,0.0,0.0,0.0,0.0,0.0,0.0,0.0,0.0,0.0,0.0,0.0,0.0,0.0,0.0,-2.4429,0.0,-2.7552,-2.833,-2.9184,-2.9834,-2.9997,-2.9112,-2.8847,-2.8179,0.0,0.0,-2.5039,-2.3844,-2.3445,-2.3287,-2.3098,-2.2169,-2.1754,0.0,0.0,-2.3522,-2.7146,-2.8539,0.0,0.0,0.0,0.0,0.0,0.0,0.0,0.0,0.0,0.0,-3.6492,-3.6383,-3.6352,-3.6492,-3.6492,-3.6492,-3.6492,-3.6492,-3.6585,-3.6754,-3.6754,-3.697,-3.7401,-3.7998,-3.8386,-3.8685,-4.0227,-4.0782,0.0,-4.103,-4.1068,-4.0815,-4.0316,-4.0096,-4.0096,-4.0096,-4.0096,-4.0096,0.0,0.0,0.0,0.0,0.0,0.0,0.0,-0.801,-0.8395,-0.8395,-0.8521,-0.86,-0.86,-0.8718,-0.8857,-0.8982,0.0,0.0,0.0,0.0,0.0,0.0,0.0,0.0,0.0,0.0,-1.5565,-1.5885,-1.5885,-1.6058,-1.6431,-1.6972,-1.7534,-1.8147,0.0,0.0,0.0,0.0,0.0,0.0,0.0,0.0,0.0,0.0,0.0,0.0,0.0,0.0,0.0,0.0,0.0,0.0,0.0,-2.361,-2.3785,-2.4744,-2.6053,-2.7441,-2.8521,-2.9318,-2.9728,-2.9381,-2.913,-2.8395,0.0,-2.5586,-2.5226,-2.3881,-2.3137,-2.2529,-2.1919,-2.1276,-2.0862,-2.1004,-2.1022,0.0,-2.4569,-2.6713,0.0,0.0,0.0,0.0,0.0,0.0,0.0,0.0,0.0,0.0,-3.6492,-3.6492,-3.6492,-3.6492,-3.6492,-3.6492,-3.6492,-3.6492,-3.6816,-3.7387,-3.7387,-3.8091,-3.9376,-4.0,-4.0691,-4.1399,-4.2011,-4.188,0.0,-4.1204,-4.0764,-4.0113,-4.0096,-4.0096,-4.0096,-4.0096,-4.0096,-4.0096,0.0,0.0,0.0,0.0,0.0,0.0,0.0,-0.8501,-0.8672,-0.8672,-0.8798,-0.887,-0.887,-0.8903,-0.8982,-0.914,0.0,0.0,0.0,0.0,0.0,0.0,0.0,0.0,0.0,0.0,-1.5788,-1.5885,-1.5677,-1.5856,-1.6402,-1.6632,-1.6978,-1.7534,-1.8536,-1.9093,0.0,0.0,0.0,0.0,0.0,0.0,0.0,0.0,0.0,0.0,0.0,0.0,0.0,0.0,0.0,0.0,0.0,0.0,0.0,-2.4059,-2.5058,-2.6212,-2.7004,-2.7989,-2.8684,-2.8228,-2.8092,-2.7662,-2.6193,-2.5535,-2.4954,-2.407,-2.3731,-2.3519,-2.3349,-2.2758,-2.2606,-2.3593,-2.3046,0.0,0.0,0.0,0.0,0.0,0.0,0.0,0.0,0.0,0.0,0.0,0.0,0.0,-3.6492,-3.6492,-3.6492,-3.6492,-3.6492,-3.6492,-3.6492,-3.6892,-3.7208,-3.7401,-3.7825,-3.8237,-3.8691,-3.9276,-3.9669,-3.9945,-4.1069,-4.1424,-4.1204,-4.1204,-4.1068,-4.0849,-4.0849,-4.0849,-4.0849,-4.0849,-4.0849,-4.0781,0.0,0.0,0.0,0.0,0.0,0.0,0.0,-0.8877,-0.8956,-0.8956,-0.9035,-0.9087,-0.9087,-0.9087,-0.914,-0.9263,0.0,0.0,0.0,0.0,0.0,0.0,0.0,0.0,0.0,-1.501,-1.5614,-1.599,-1.5782,-1.5933,-1.6402,-1.6426,-1.6634,-1.6978,-1.8147,-1.8708,0.0,0.0,0.0,0.0,0.0,0.0,-2.214,0.0,0.0,0.0,0.0,0.0,0.0,0.0,0.0,0.0,0.0,0.0,0.0,0.0,-2.4335,-2.5175,-2.6318,-2.7168,-2.7724,-2.7708,-2.7484,0.0,-2.5889,-2.5295,-2.482,-2.413,-2.4003,-2.3927,-2.3696,-2.3315,-2.3244,-2.388,-2.3366,0.0,0.0,0.0,0.0,0.0,0.0,0.0,0.0,0.0,0.0,0.0,0.0,0.0,-3.6492,-3.6492,-3.6492,-3.6492,-3.6492,-3.6492,-3.6492,-3.7104,-3.7519,-3.7738,-3.8351,-3.8914,-3.9396,-3.9764,-4.0107,-4.0418,-4.1233,-4.1627,0.0,-4.1627,-4.1627,-4.1627,-4.1627,-4.1627,-4.1627,-4.1627,-4.1627,-4.1542,0.0,0.0,0.0,0.0,0.0,0.0,0.0,0.0,0.0,0.0,-0.9183,-0.9216,-0.923,-0.9237,-0.9316,0.0,0.0,0.0,0.0,0.0,0.0,0.0,0.0,0.0,0.0,-1.446,-1.5225,-1.6063,-1.6063,-1.6159,-1.6361,-1.6361,-1.6392,-1.6509,-1.7571,-1.8234,-1.8659,-1.9913,-2.0784,-2.138,-2.2021,-2.1995,0.0,0.0,0.0,0.0,0.0,0.0,0.0,0.0,0.0,0.0,0.0,0.0,0.0,0.0,0.0,0.0,0.0,-2.6681,-2.6803,-2.7455,0.0,0.0,-2.5262,-2.4978,0.0,-2.4146,-2.4024,-2.3848,-2.329,-2.3188,-2.3044,-2.2574,0.0,0.0,0.0,0.0,0.0,0.0,0.0,0.0,0.0,0.0,0.0,0.0,0.0,0.0,-3.6492,-3.6492,-3.6523,-3.6554,-3.6554,-3.6554,-3.6554,-3.7208,-3.7796,-3.8379,-3.8974,-3.9917,-4.1119,-4.1119,-4.1491,0.0,-4.2185,-4.2219,-4.2219,-4.2269,-4.2286,-4.2303,-4.2354,-4.2337,-4.2286,-4.2286,-4.2252,-4.2202,0.0,0.0,0.0,0.0,0.0,0.0,0.0,0.0,0.0,0.0,-0.9145,-0.9434,-0.9636,-0.9666,-0.9899,0.0,0.0,0.0,0.0,0.0,0.0,0.0,0.0,0.0,0.0,-1.5352,-1.5875,-1.5566,-1.5725,-1.5818,-1.5846,-1.5846,-1.5966,-1.6165,-1.7066,-1.8124,-1.9229,-1.9627,-2.0446,-2.1433,-2.1172,-2.1524,0.0,0.0,0.0,0.0,-2.2926,-2.3111,0.0,0.0,0.0,0.0,0.0,0.0,0.0,0.0,-2.3743,-2.3661,-2.5234,0.0,-2.5491,-2.5745,-2.5634,-2.5447,0.0,-2.4832,-2.4418,-2.4265,-2.4219,-2.4173,-2.4025,-2.403,-2.4138,-2.4527,0.0,0.0,0.0,0.0,0.0,0.0,0.0,0.0,0.0,0.0,0.0,0.0,0.0,-3.6492,-3.6492,-3.6492,-3.6723,-3.7178,-3.7178,-3.7178,-3.7178,-3.8254,-3.8838,-3.9001,-3.9601,-4.0054,-4.0367,-4.0367,-4.0468,-4.0654,-4.1204,-4.1457,-4.1508,-4.2066,-4.2286,-4.2354,-4.2929,-4.2811,-4.2286,-4.2286,-4.1931,-4.1373,0.0,0.0,0.0,0.0,0.0,0.0,0.0,0.0,0.0,0.0,0.0,0.0,0.0,0.0,0.0,0.0,0.0,0.0,0.0,0.0,0.0,0.0,0.0,0.0,-1.4321,-1.4912,-1.5214,-1.5215,-1.5549,-1.5691,-1.5691,-1.5779,-1.585,-1.5905,-1.7021,-1.8169,-1.9254,-1.9867,-2.0525,-2.1211,-2.112,0.0,0.0,0.0,0.0,0.0,-2.2753,-2.3065,0.0,-2.3797,-2.3982,-2.3982,0.0,0.0,0.0,0.0,-2.3718,-2.3437,-2.4543,-2.4771,-2.4762,-2.5148,-2.5001,-2.4756,-2.482,-2.4543,-2.4302,-2.4302,-2.4302,-2.4302,-2.4302,-2.4302,0.0,0.0,-2.5918,0.0,0.0,0.0,0.0,0.0,0.0,0.0,0.0,0.0,0.0,0.0,0.0,-3.6492,-3.6492,-3.6492,-3.6785,-3.7387,-3.765,-3.7825,-3.7825,-3.8728,-3.9206,-3.9206,-3.9799,-4.0096,-4.0096,-4.0096,-4.0096,-4.0146,-4.0882,-4.139,-4.1762,-4.2506,-4.2811,-4.2844,-4.3223,-4.2963,-4.2286,-4.2286,-4.2049,-4.1644,0.0,0.0,0.0,0.0,0.0,0.0,0.0,0.0,0.0,0.0,0.0,0.0,0.0,0.0,0.0,0.0,0.0,0.0,0.0,0.0,0.0,0.0,0.0,-1.3873,-1.4657,-1.4247,-1.436,-1.4997,-1.5544,-1.5758,-1.5669,-1.6018,-1.6131,-1.6094,-1.7332,-1.8324,-1.9144,-2.0046,-2.059,-2.0885,-2.1173,0.0,0.0,0.0,0.0,0.0,0.0,0.0,0.0,-2.3897,-2.4124,-2.4197,-2.4189,0.0,0.0,0.0,0.0,0.0,-2.4241,-2.4456,-2.4543,-2.5019,-2.4712,-2.4302,-2.4302,0.0,0.0,0.0,0.0,0.0,0.0,-2.4547,0.0,0.0,0.0,0.0,0.0,0.0,0.0,0.0,0.0,0.0,0.0,0.0,0.0,0.0,0.0,-3.6492,-3.6492,-3.6492,-3.6816,-3.7476,-3.8039,-3.839,-3.8518,-3.9055,-3.9339,-3.9339,-3.9867,-4.0096,-4.0096,-4.0231,-4.0214,-4.0146,0.0,0.0,-4.2185,-4.2929,-4.325,-4.325,-4.325,-4.2777,-4.2117,-4.2117,-4.2049,-4.1965,0.0,0.0,0.0,0.0,0.0,0.0,0.0,0.0,0.0,0.0,0.0,0.0,0.0,0.0,0.0,0.0,0.0,0.0,0.0,0.0,0.0,0.0,-1.4649,-1.4677,-1.5505,-1.5276,-1.5107,-1.4997,-1.5924,-1.6052,-1.5468,-1.6509,-1.7222,-1.7585,-1.8069,-1.8748,-1.9507,-1.9272,-1.9775,-2.0715,-2.0488,0.0,0.0,0.0,0.0,0.0,0.0,0.0,0.0,-2.3931,-2.4234,-2.4315,-2.4894,0.0,0.0,0.0,0.0,0.0,-2.4804,-2.5142,-2.5019,-2.4558,-2.4379,-2.4302,-2.4302,-2.4302,0.0,0.0,0.0,0.0,0.0,-2.5659,-2.5995,0.0,0.0,0.0,0.0,0.0,0.0,0.0,0.0,0.0,0.0,0.0,0.0,0.0,0.0,-3.6492,-3.6492,-3.6492,-3.6907,-3.7799,-3.8238,-3.8794,-3.9478,-3.9816,-3.9969,-3.9969,-4.0045,-4.0096,-4.013,-4.0747,-4.0679,-4.018,0.0,-4.183,-4.1424,-4.2151,-4.2472,-4.2472,-4.2472,-4.2016,-4.1373,-4.1373,-4.0967,-4.0536,0.0,0.0,0.0,0.0,0.0,0.0,0.0,0.0,0.0,0.0,0.0,0.0,0.0,0.0,0.0,0.0,0.0,0.0,0.0,0.0,0.0,-1.6112,-1.5814,-1.5725,-1.5897,-1.5595,-1.5301,-1.5056,-1.5618,-1.5933,-1.5971,-1.6942,-1.769,-1.8191,-1.8435,-1.8865,-1.9424,-1.9729,-2.0054,-2.0346,0.0,0.0,0.0,0.0,0.0,0.0,0.0,0.0,0.0,0.0,-2.4114,-2.4317,-2.465,0.0,0.0,0.0,0.0,0.0,-2.4481,-2.4758,-2.4887,-2.5318,-2.5426,-2.5426,-2.5426,-2.5426,0.0,0.0,0.0,0.0,0.0,0.0,-2.7896,-3.027,0.0,0.0,0.0,0.0,0.0,0.0,0.0,0.0,0.0,0.0,0.0,0.0,0.0,0.0,-3.6983,-3.6983,-3.7328,-3.8071,-3.8535,-3.9109,-3.9781,-4.0163,-4.0246,-4.0096,-4.0163,-4.0163,-4.0113,-4.0468,-4.0434,-4.0163,0.0,-4.1508,-4.1271,-4.1999,-4.2066,-4.1711,-4.1711,-4.1255,-4.0595,-4.0595,-4.0375,-4.0265,0.0,0.0,0.0,0.0,0.0,0.0,0.0,0.0,0.0,0.0,0.0,0.0,0.0,0.0,0.0,0.0,0.0,0.0,0.0,0.0,-1.6204,-1.6641,-1.6786,-1.671,-1.6374,-1.5741,-1.5423,-1.5443,-1.5709,-1.6286,-1.7136,-1.7698,-1.8251,-1.876,-1.8755,-1.9055,-1.9593,-2.0224,-2.0369,-2.0207,0.0,0.0,0.0,0.0,0.0,0.0,0.0,0.0,0.0,0.0,0.0,0.0,0.0,0.0,0.0,-2.4374,-2.4071,-2.3686,-2.4364,-2.4527,-2.4841,-2.6072,-2.6297,-2.6283,-2.6642,-2.6842,-2.6902,0.0,0.0,0.0,0.0,-2.8975,0.0,-3.2139,0.0,0.0,0.0,0.0,0.0,0.0,0.0,0.0,0.0,0.0,0.0,0.0,0.0,0.0,-3.7417,-3.749,-3.7812,-3.8327,-3.8876,-3.9444,-3.9935,-4.0387,-4.0461,-4.0196,-4.0288,-4.0288,-4.0213,-4.0332,-4.0315,-4.0222,-4.0908,-4.1128,-4.1087,-4.1568,-4.1467,-4.1002,-4.1002,-4.0646,-4.0138,-4.0096,-4.0096,-4.0299,0.0,0.0,0.0,0.0,0.0,0.0,0.0,0.0,0.0,0.0,0.0,0.0,0.0,0.0,0.0,0.0,0.0,0.0,0.0,0.0,-1.6341,-1.7112,-1.7446,-1.7462,-1.7146,-1.6052,-1.5825,-1.6501,-1.6942,-1.7867,-1.9181,-1.9121,-1.9371,-1.9864,-1.9184,-1.9517,-2.0557,-2.0074,-2.0165,-2.0699,-2.118,0.0,0.0,0.0,0.0,0.0,0.0,0.0,0.0,0.0,0.0,0.0,0.0,0.0,-2.5158,-2.5204,-2.4743,-2.4379,-2.505,-2.5219,-2.5389,-2.6127,-2.5963,-2.6017,-2.7304,-2.8097,-2.8389,-2.7892,0.0,0.0,0.0,-3.1981,0.0,0.0,0.0,0.0,0.0,0.0,0.0,0.0,0.0,0.0,0.0,0.0,0.0,0.0,0.0,0.0,-3.7417,-3.7812,-3.8169,-3.849,-3.9299,-3.9868,-4.007,-4.0607,-4.0728,-4.0485,-4.0485,-4.0485,-4.0502,-4.1035,-4.1009,-4.0495,-4.0985,-4.0968,-4.0546,-4.0349,-4.0299,-4.0348,-4.0348,-4.0314,-4.0263,-4.0163,-4.0096,-4.0214,0.0,0.0,0.0,0.0,0.0,0.0,0.0,0.0,0.0,0.0,0.0,0.0,0.0,0.0,0.0,0.0,0.0,0.0,0.0,0.0,-1.7299,-1.731,-1.7723,-1.7881,-1.7698,-1.7392,-1.7177,-1.7037,-1.8056,-1.8609,-1.8795,-1.9324,-1.9686,-1.9867,-1.9584,-1.9904,-2.0699,-2.0451,-2.0552,-2.0947,-2.1544,-2.1864,0.0,0.0,0.0,0.0,0.0,0.0,0.0,0.0,-2.4304,-2.4687,-2.4687,-2.4687,-2.4687,-2.4687,-2.4502,-2.4364,-2.4604,-2.5318,-2.6174,-2.6966,-2.7348,-2.7735,-2.8566,-2.9117,-2.9485,-2.961,-3.024,0.0,0.0,0.0,-3.4759,0.0,0.0,0.0,0.0,0.0,0.0,0.0,0.0,0.0,0.0,0.0,0.0,0.0,0.0,0.0,-3.8033,-3.8205,-3.8444,-3.8799,-3.9358,-3.9842,-4.0213,-4.068,-4.0847,-4.0752,-4.0655,-4.0583,-4.051,-4.0751,-4.0717,-4.0502,-4.0594,-4.0585,-4.0485,-4.0313,-4.0313,-4.0412,-4.0337,-4.0305,-4.0263,-4.0163,-4.0096,-4.0214,0.0,0.0,0.0,0.0,0.0,0.0,0.0,0.0,0.0,0.0,0.0,0.0,0.0,0.0,0.0,0.0,0.0,0.0,-1.6598,-1.755,-1.7882,-1.7419,-1.782,-1.7973,-1.7777,-1.8303,-1.838,-1.7967,-1.9021,-1.9391,-1.9153,-1.9575,-1.9904,-2.0074,-1.9891,-2.0151,-2.0699,-2.0848,-2.1008,-2.1253,-2.1945,-2.2342,0.0,0.0,0.0,0.0,0.0,0.0,0.0,0.0,-2.4084,-2.4548,-2.4117,-2.4271,-2.4558,-2.4364,-2.4302,-2.4302,-2.4302,-2.5194,-2.6329,-2.7061,-2.8196,-2.9342,-3.0175,-3.0425,-3.0656,-3.1302,-3.2032,-3.2761,-3.3312,0.0,0.0,0.0,0.0,0.0,0.0,0.0,0.0,0.0,0.0,0.0,0.0,0.0,0.0,0.0,0.0,0.0,0.0,-3.8655,-3.8914,-3.9195,-3.9714,-4.0162,-4.0502,-4.0752,-4.0912,-4.0912,-4.0817,-4.0721,-4.0631,-4.0583,-4.0583,-4.0607,-4.0436,-4.0461,-4.0607,-4.0436,-4.0436,-4.0558,-4.0429,-4.0387,-4.0429,-4.0288,-4.0213,-4.0231,0.0,0.0,0.0,0.0,0.0,0.0,0.0,0.0,0.0,0.0,0.0,0.0,0.0,0.0,0.0,0.0,0.0,0.0,-1.6598,-1.755,-1.7882,-1.7419,-1.7733,-1.7726,-1.7326,-1.856,-1.9284,-1.942,-1.9824,-2.0232,-2.0686,-2.0074,-2.0137,-2.0673,-2.0085,-2.0151,-2.0724,-2.1204,-2.1496,-2.1674,-2.2411,-2.2799,-2.2979,0.0,0.0,0.0,0.0,0.0,0.0,0.0,-2.4194,-2.505,-2.3733,-2.4225,-2.5158,-2.4481,-2.4317,-2.4297,-2.4297,-2.4954,-2.574,-2.6229,0.0,0.0,-3.2066,-3.2051,-3.1942,-3.2818,-3.3916,-3.444,-3.3573,-3.4552,0.0,0.0,0.0,0.0,0.0,0.0,0.0,0.0,0.0,0.0,0.0,0.0,0.0,0.0,0.0,0.0,0.0,-3.9152,-3.961,-3.961,-4.0451,-4.0912,-4.0912,-4.0912,-4.0912,-4.0912,-4.0912,-4.0912,-4.0912,-4.0769,-4.0769,-4.0888,-4.0631,-4.0655,-4.0888,-4.0607,-4.0583,-4.0697,-4.0558,-4.0583,-4.0673,-4.0558,-4.0412,-4.0305,0.0,0.0,0.0,0.0,0.0,0.0,0.0,0.0,0.0,0.0,0.0,0.0,0.0,0.0,0.0,0.0,0.0,0.0,-1.7551,-1.761,-1.7792,-1.8232,-1.808,-1.821,-1.8696,-1.9732,-2.028,-2.0322,-2.0022,-1.9926,-2.0061,-2.0321,-2.0477,-2.0573,-2.0828,-2.1223,-2.1694,-2.1931,-2.2165,-2.242,-2.2965,-2.3334,-2.3588,0.0,0.0,0.0,0.0,0.0,0.0,0.0,0.0,0.0,-2.3979,-2.4287,-2.4543,-2.4364,-2.4728,-2.5213,-2.5213,-2.6802,0.0,-2.8815,0.0,0.0,0.0,-3.2991,0.0,0.0,-3.4179,-3.4714,-3.4494,0.0,0.0,0.0,0.0,0.0,0.0,0.0,0.0,0.0,0.0,0.0,0.0,0.0,0.0,0.0,0.0,0.0,0.0,-3.8887,-3.9312,-3.9584,-4.0154,-4.0607,-4.0912,-4.0912,-4.0912,-4.0912,-4.0912,-4.0912,-4.0912,-4.0864,-4.0864,-4.0888,-4.0721,-4.0745,-4.0894,-4.0799,-4.0799,-4.084,-4.0697,-4.0673,-4.0673,-4.0558,-4.0412,-4.0313,0.0,0.0,0.0,0.0,0.0,0.0,0.0,0.0,0.0,0.0,-1.4163,0.0,0.0,0.0,0.0,0.0,0.0,0.0,0.0,-1.8128,-1.8332,-1.8597,-1.8534,-1.8797,-1.9473,-2.0151,-2.0624,-2.0823,-2.0358,-2.0164,-2.0164,-2.0464,-2.0823,-2.1254,-2.1558,-2.2023,-2.2588,-2.2907,-2.3161,-2.3411,-2.3933,-2.4217,-2.4426,0.0,0.0,0.0,0.0,0.0,0.0,0.0,0.0,0.0,-2.3871,-2.4087,-2.4302,-2.4302,-2.5061,-2.5871,-2.5909,-2.7961,0.0,-3.0486,-3.1957,-3.3568,-3.4303,0.0,0.0,0.0,-3.4988,-3.5492,-3.5532,-3.6181,0.0,0.0,0.0,0.0,0.0,0.0,0.0,0.0,0.0,0.0,0.0,0.0,0.0,0.0,0.0,0.0,0.0,-3.9007,-3.9418,-3.9859,-4.0296,-4.0655,-4.0912,-4.0912,-4.0912,-4.0912,-4.0912,-4.0912,-4.0912,-4.0912,-4.0912,-4.0912,-4.0817,-4.084,-4.0912,-4.0912,-4.0912,-4.0888,-4.0817,-4.0793,-4.0769,-4.068,-4.0558,-4.0478,0.0,0.0,0.0,0.0,0.0,0.0,0.0,0.0,0.0,0.0,-1.4466,-1.4628,0.0,0.0,0.0,0.0,0.0,0.0,0.0,0.0,-1.9215,-1.8834,-1.9206,-1.9599,-2.0009,-2.027,-2.0643,-2.1131,-2.087,-2.0746,-2.0785,-2.0573,-2.121,-2.2514,-2.2235,-2.2611,-2.3464,-2.3929,-2.4221,-2.441,-2.49,-2.5155,-2.5204,-2.5204,0.0,0.0,0.0,0.0,0.0,0.0,0.0,0.0,-2.3563,-2.381,-2.4302,-2.4302,-2.5213,-2.6282,-2.6473,-2.8546,-3.0845,-3.145,-3.3296,0.0,-3.5507,-3.5598,-3.5568,-3.5414,0.0,-3.6507,-3.6446,-3.6739,0.0,0.0,0.0,0.0,0.0,0.0,0.0,0.0,0.0,0.0,0.0,0.0,0.0,0.0,0.0,0.0,-3.8914,-3.9339,-3.9731,-4.0163,-4.0607,-4.0864,-4.0864,-4.0871,-4.0912,-4.0912,-4.0912,-4.0912,-4.0912,-4.0912,-4.0912,-4.0912,-4.0912,-4.0912,-4.0912,-4.0912,-4.0912,-4.0912,-4.0912,-4.0912,-4.0912,-4.0912,-4.0817,-4.0697,0.0,0.0,0.0,0.0,0.0,0.0,0.0,0.0,0.0,0.0,0.0,0.0,0.0,0.0,0.0,0.0,0.0,0.0,0.0,0.0,-1.9496,-2.0451,-2.0857,-2.1302,-2.176,-2.1922,-2.2048,-2.2189,-2.1282,-2.11,-2.1554,-2.1195,-2.1949,-2.3516,-2.2531,-2.2988,-2.4469,-2.4271,-2.413,-2.4115,-2.4386,-2.447,-2.4443,-2.4491,-2.4743,0.0,0.0,0.0,0.0,0.0,0.0,0.0,-2.3963,-2.4194,-2.4302,-2.4302,-2.4996,-2.5982,-2.7116,-2.9026,0.0,0.0,-3.4729,-3.6168,-3.6276,-3.6276,-3.5984,-3.4936,-3.5675,-3.6415,-3.6071,0.0,0.0,0.0,0.0,0.0,0.0,0.0,0.0,0.0,0.0,0.0,0.0,0.0,0.0,0.0,0.0,0.0,-3.8532,-3.8914,-3.9185,-3.9292,-4.002,-4.0412,-4.0412,-4.0728,-4.0912,-4.0912,-4.0912,-4.0912,-4.0912,-4.0912,-4.0912,-4.0912,-4.0912,-4.0912,-4.0912,-4.0912,-4.0912,-4.0912,-4.0912,-4.0912,-4.0912,-4.0912,-4.0817,-4.0721,0.0,0.0,0.0,0.0,0.0,0.0,0.0,0.0,0.0,0.0,0.0,0.0,0.0,0.0,0.0,0.0,0.0,0.0,0.0,0.0,0.0,-2.1434,-2.1756,-2.2072,-2.2397,-2.2581,-2.2694,-2.2694,-2.2318,-2.2107,-2.2025,-2.1764,-2.2622,-2.434,-2.3437,-2.3886,-2.5342,-2.48,-2.4597,-2.4625,-2.4704,-2.4526,-2.4234,-2.4297,-2.4117,-2.3902,-2.421,0.0,0.0,0.0,0.0,0.0,0.0,0.0,-2.4302,-2.4302,-2.5083,-2.6244,-2.7649,0.0,0.0,-3.45,0.0,-3.6492,-3.6492,-3.6492,-3.6292,-3.5614,-3.5999,-3.6446,0.0,0.0,0.0,0.0,0.0,0.0,0.0,0.0,0.0,0.0,0.0,0.0,0.0,0.0,0.0,0.0,0.0,-3.8476,-3.8683,-3.8903,-3.9185,-3.9609,-4.0062,-4.0387,-4.06,-4.0817,-4.0912,-4.0912,-4.0912,-4.0912,-4.0912,-4.0912,-4.0912,-4.0912,-4.0912,-4.0912,-4.0912,-4.0912,-4.0912,-4.0912,-4.0912,-4.0912,-4.0912,-4.0912,-4.0864,-4.0817,0.0,0.0,0.0,0.0,0.0,0.0,0.0,0.0,0.0,0.0,0.0,0.0,0.0,0.0,0.0,0.0,0.0,0.0,0.0,0.0,0.0,-2.2263,-2.242,-2.2603,-2.2785,-2.3024,-2.3135,-2.3135,-2.3592,-2.3445,-2.2793,-2.2389,-2.326,-2.5066,-2.4235,-2.4602,-2.5788,-2.515,-2.4893,-2.4921,-2.4851,-2.4474,-2.3907,-2.3963,-2.3409,-2.2778,-2.3779,-2.3933,-2.381,-2.4773,0.0,0.0,0.0,0.0,-2.4302,-2.4302,-2.5081,-2.6265,-2.7673,0.0,-3.3029,-3.566,-3.6399,0.0,-3.6492,-3.6492,-3.6492,-3.6492,-3.6492,0.0,0.0,0.0,0.0,0.0,0.0,0.0,0.0,0.0,0.0,0.0,0.0,0.0,0.0,0.0,0.0,0.0,0.0,-3.856,-3.886,-3.8887,-3.9265,-4.0062,-4.0138,-4.0387,-4.0776,-4.0864,-4.0912,-4.0912,-4.0912,-4.0912,-4.0912,-4.0912,-4.0912,-4.0912,-4.0912,-4.0912,-4.0912,-4.0912,-4.0912,-4.0912,-4.0912,-4.0912,-4.0912,-4.0912,-4.0912,-4.0912,0.0,0.0,0.0,0.0,0.0,0.0,0.0,0.0,0.0,0.0,-1.5744,0.0,0.0,0.0,0.0,0.0,0.0,0.0,0.0,0.0,0.0,-2.3377,-2.3297,-2.3486,-2.3961,-2.4051,-2.4099,-2.4099,-2.4689,-2.4928,-2.4773,-2.3369,-2.3829,-2.578,-2.4067,-2.4008,-2.5177,-2.4579,-2.3952,-2.3386,-2.3386,-2.2974,-2.2397,-2.2509,-2.3179,-2.3979,-2.3579,-2.4133,-2.4958,-2.4558,-2.4379,0.0,0.0,0.0,-2.4302,-2.4302,-2.4441,-2.485,-2.6204,0.0,-3.2906,0.0,-3.6061,-3.6492,0.0,0.0,-3.6492,0.0,0.0,0.0,0.0,0.0,0.0,0.0,0.0,0.0,0.0,0.0,0.0,0.0,0.0,0.0,0.0,0.0,0.0,0.0,-3.8391,-3.842,-3.8476,-3.8476,-3.8683,-3.9158,-3.9523,-3.991,-4.0379,-4.0745,-4.0912,-4.0912,-4.0912,-4.0912,-4.0912,-4.0912,-4.0912,-4.0912,-4.0912,-4.0912,-4.0912,-4.0912,-4.0912,-4.0912,-4.0912,-4.0912,-4.0912,-4.0912,-4.0912,-4.0912,0.0,0.0,0.0,0.0,0.0,0.0,0.0,0.0,0.0,0.0,0.0,-1.7497,0.0,0.0,0.0,0.0,0.0,0.0,0.0,0.0,0.0,-2.3696,-2.3797,-2.3982,-2.4255,-2.4281,-2.4117,-2.3748,-2.4719,-2.5019,-2.47,-2.4316,-2.5013,-2.6495,-2.5426,-2.524,-2.5649,-2.4631,-2.381,-2.3237,-2.3575,-2.3335,-2.2874,-2.3666,-2.3887,-2.3748,-2.384,0.0,-2.4194,-2.4271,-2.4302,-2.4302,-2.4302,0.0,0.0,0.0,-2.4302,-2.4687,-2.6457,-2.9597,-3.2705,0.0,-3.5414,-3.6492,-3.6492,0.0,-3.6492,-3.6492,0.0,0.0,0.0,0.0,0.0,0.0,0.0,0.0,0.0,0.0,0.0,0.0,0.0,0.0,0.0,0.0,0.0,0.0,-3.8391,-3.8391,-3.8391,-3.86,-3.8914,-3.9312,-3.9756,-4.0196,-4.0631,-4.0799,-4.0912,-4.0912,-4.0912,-4.0912,-4.0912,-4.0912,-4.0912,-4.0912,-4.0912,-4.0912,-4.0912,-4.0912,-4.0912,-4.0912,-4.0912,-4.0912,-4.0912,-4.0912,-4.0912,-4.0912,0.0,0.0,0.0,0.0,0.0,0.0,0.0,0.0,0.0,0.0,0.0,0.0,0.0,0.0,0.0,0.0,0.0,0.0,0.0,0.0,0.0,-2.3909,-2.3956,-2.3989,-2.4056,-2.4056,-2.381,-2.3302,-2.4587,-2.4986,-2.4558,-2.5185,-2.6022,-2.6965,-2.6335,-2.6005,-2.5915,-2.4989,-2.4107,-2.3363,-2.4061,-2.3938,-2.3425,-2.461,-2.4533,-2.3856,-2.4194,0.0,0.0,0.0,-2.4302,-2.4302,-2.4302,-2.4302,0.0,0.0,0.0,0.0,0.0,0.0,-3.1443,-3.2813,-3.4429,-3.5876,0.0,0.0,-3.6647,0.0,0.0,0.0,0.0,0.0,0.0,0.0,0.0,0.0,0.0,0.0,0.0,0.0,0.0,0.0,0.0,0.0,0.0,0.0,-3.8391,-3.8391,-3.8391,-3.8794,-3.9195,-3.9584,-4.007,-4.0485,-4.0912,-4.0912,-4.0912,-4.0912,-4.0912,-4.0912,-4.0912,-4.0912,-4.0912,-4.0912,-4.0912,-4.0912,-4.0912,-4.0912,-4.0912,-4.0912,-4.0912,-4.0912,-4.0912,-4.0912,-4.0912,-4.0912,0.0,0.0,0.0,0.0,0.0,0.0,0.0,0.0,0.0,0.0,0.0,0.0,0.0,0.0,-2.0339,-2.1909,-2.2351,-2.2996,-2.4173,-2.4261,-2.4261,-2.4261,-2.3666,0.0,-2.3348,-2.3348,-2.3332,-2.3302,-2.4635,-2.5281,-2.525,-2.5927,-2.6519,-2.696,-2.5846,-2.5342,-2.5364,-2.5628,-2.4776,-2.3403,-2.4369,-2.4169,-2.3379,-2.4087,0.0,0.0,0.0,0.0,0.0,0.0,0.0,0.0,0.0,-2.4302,-2.4302,0.0,0.0,0.0,0.0,-2.7026,0.0,-3.1643,-3.3013,0.0,0.0,0.0,0.0,0.0,0.0,0.0,0.0,0.0,0.0,0.0,0.0,0.0,0.0,0.0,0.0,0.0,0.0,0.0,0.0,0.0,0.0,0.0,-3.8391,-3.8391,-3.8391,-3.8794,-3.9195,-3.9584,-4.007,-4.0485,-4.0912,-4.0912,-4.0912,-4.0912,-4.0912,-4.0912,-4.0912,-4.0912,-4.0912,-4.0912,-4.0912,-4.0912,-4.0912,-4.0912,-4.0912,-4.0912,-4.0912,-4.0912,-4.0912,-4.0912,-4.0912,-4.0912,0.0,0.0,0.0,0.0,0.0,0.0,0.0,0.0,0.0,0.0,0.0,0.0,0.0,-2.121,-2.1954,-2.2738,-2.3342,-2.384,-2.4266,-2.4302,-2.4302,-2.4302,-2.3656,-2.3302,-2.3302,-2.2871,-2.2774,-2.3026,-2.4137,-2.4932,-2.5516,-2.6404,-2.7041,-2.7437,-2.7204,-2.6829,-2.6391,-2.6336,-2.5532,-2.4355,-2.4709,-2.4658,-2.4471,0.0,0.0,0.0,0.0,0.0,0.0,0.0,0.0,0.0,0.0,0.0,0.0,0.0,0.0,0.0,0.0,0.0,0.0,-2.8922,-3.0892,-3.2768,-3.3505,-3.482,0.0,0.0,0.0,0.0,0.0,0.0,0.0,0.0,0.0,0.0,0.0,0.0,0.0,0.0,0.0,0.0,0.0,0.0,0.0,0.0,0.0,-3.8504,-3.8766,-3.9169,-3.9575,-4.0045,-4.0461,-4.0752,-4.0912,-4.0912,-4.0912,-4.0912,-4.0912,-4.0912,-4.0912,-4.0912,-4.0912,-4.0912,-4.0912,-4.0912,-4.0912,-4.0912,-4.0912,-4.0912,-4.0912,-4.0912,-4.0912,-4.0912,-4.0912,-4.0912,0.0,0.0,0.0,0.0,0.0,0.0,0.0,0.0,0.0,0.0,0.0,0.0,0.0,0.0,-2.234,-2.2841,-2.3346,-2.3717,-2.3948,-2.3748,-2.3733,-2.3948,-2.3204,-2.28,-2.28,-2.248,-2.2557,-2.3065,-2.3787,-2.4749,-2.5964,-2.6481,-2.7011,-2.7564,-2.7999,-2.7688,-2.6834,-2.6782,0.0,-2.5134,0.0,0.0,-2.5773,0.0,0.0,0.0,0.0,0.0,0.0,0.0,0.0,0.0,0.0,0.0,0.0,0.0,0.0,0.0,-2.4302,0.0,0.0,0.0,0.0,-3.0836,-3.2045,0.0,0.0,0.0,0.0,0.0,0.0,0.0,0.0,0.0,0.0,0.0,0.0,0.0,0.0,0.0,0.0,0.0,0.0,0.0,0.0,0.0,0.0,0.0,-3.8969,-3.9391,-3.9885,-4.0485,-4.0769,-4.0912,-4.0912,-4.0912,-4.0912,-4.0912,-4.0912,-4.0912,-4.0912,-4.0912,-4.0912,-4.0912,-4.0912,-4.0912,-4.0912,-4.0912,-4.0912,-4.0912,-4.0912,-4.0912,-4.0912,-4.0912,-4.0912,-4.0912,0.0,0.0,0.0,0.0,0.0,0.0,0.0,0.0,0.0,0.0,0.0,0.0,0.0,0.0,0.0,-2.2224,-2.2305,-2.2582,-2.3244,-2.2675,-2.2598,-2.326,-2.2347,-2.1804,-2.1804,-2.2146,-2.2668,-2.3431,-2.3708,-2.4812,-2.6626,-2.623,-2.6469,-2.7249,-2.7999,-2.7671,-2.6523,0.0,-2.6508,-2.56,0.0,-2.6755,-2.716,0.0,0.0,0.0,-2.9663,-2.9391,0.0,-2.8907,0.0,0.0,0.0,0.0,0.0,0.0,0.0,0.0,0.0,0.0,0.0,0.0,0.0,0.0,-3.2336,0.0,-3.469,0.0,0.0,0.0,0.0,0.0,0.0,0.0,0.0,0.0,0.0,0.0,0.0,0.0,0.0,0.0,0.0,0.0,0.0,0.0,-3.8391,-3.8572,-3.8996,-3.9418,-4.0037,-4.0871,-4.0912,-4.0912,-4.0912,-4.0912,-4.0912,-4.0912,-4.0912,-4.0912,-4.0912,-4.0912,-4.0912,-4.0912,-4.0912,-4.0912,-4.0912,-4.0912,-4.0912,-4.0912,-4.0912,-4.0912,-4.0912,-4.0912,-4.0912,-4.0912,0.0,0.0,0.0,0.0,0.0,0.0,0.0,0.0,0.0,0.0,0.0,0.0,0.0,0.0,-2.252,-2.2658,-2.2437,-2.2477,-2.2908,-2.2754,-2.2741,-2.2926,-2.2437,-2.2147,-2.2147,-2.2312,-2.2851,-2.3836,-2.4682,-2.5922,-2.7452,0.0,-2.7141,-2.7614,-2.7295,-2.6974,-2.6701,-2.7325,0.0,-2.6691,-2.7113,-2.7637,0.0,0.0,0.0,0.0,0.0,-3.1411,-3.1544,0.0,-3.0162,-2.8512,0.0,0.0,0.0,0.0,0.0,0.0,-2.5179,0.0,0.0,0.0,0.0,0.0,-3.0608,-3.1893,-3.336,0.0,0.0,0.0,0.0,0.0,0.0,0.0,0.0,0.0,0.0,0.0,0.0,0.0,0.0,0.0,0.0,0.0,0.0,0.0,-3.8655,-3.9007,-3.9401,-4.0137,-4.0638,-4.0894,-4.0912,-4.0912,-4.0912,-4.0912,-4.0912,-4.0912,-4.0912,-4.0912,-4.0912,-4.0912,-4.0912,-4.0912,-4.0912,-4.0912,-4.0912,-4.0912,-4.0912,-4.0912,-4.0912,-4.0912,-4.0912,-4.0912,-4.0912,-4.0912,0.0,0.0,0.0,0.0,0.0,0.0,0.0,0.0,0.0,0.0,0.0,0.0,0.0,0.0,-2.2443,-2.2398,-2.2065,-2.2088,-2.2549,-2.2329,-2.2297,-2.2582,-2.2148,-2.2005,-2.228,-2.2492,-2.3194,0.0,0.0,0.0,0.0,0.0,0.0,0.0,0.0,0.0,0.0,0.0,0.0,0.0,-2.7444,0.0,0.0,-3.0145,-3.0982,0.0,0.0,0.0,-3.2886,-3.3211,-3.2222,0.0,0.0,0.0,0.0,0.0,0.0,0.0,0.0,0.0,0.0,0.0,0.0,0.0,-2.9437,-3.0708,-3.2318,0.0,0.0,0.0,0.0,0.0,0.0,0.0,0.0,0.0,0.0,0.0,0.0,0.0,0.0,0.0,0.0,-3.8391,-3.8391,-3.8391,-3.8766,-3.9249,-3.9876,-4.0541,-4.0912,-4.0912,-4.0912,-4.0912,-4.0912,-4.0912,-4.0912,-4.0912,-4.0912,-4.0912,-4.0912,-4.0912,-4.0912,-4.0912,-4.0912,-4.0912,-4.0912,-4.0912,-4.0912,-4.0912,-4.0912,-4.0912,-4.0912,-4.0912,-4.0912,-4.0912,0.0,0.0,0.0,0.0,0.0,0.0,0.0,0.0,0.0,0.0,0.0,0.0,0.0,0.0,0.0,0.0,-2.1569,-2.1681,-2.2329,-2.1891,-2.1826,-2.2346,-2.1841,-2.1808,-2.2411,-2.2845,-2.37,0.0,0.0,0.0,0.0,0.0,0.0,0.0,0.0,0.0,0.0,0.0,0.0,-2.827,-2.7701,-2.8269,0.0,0.0,-3.172,-3.2373,-3.4165,-3.4243,-3.3601,-3.4383,-3.3792,0.0,0.0,0.0,0.0,0.0,-2.6695,0.0,0.0,0.0,0.0,0.0,-2.7598,0.0,-2.9065,-3.0199,-3.1512,-3.3439,0.0,0.0,0.0,0.0,0.0,0.0,0.0,0.0,0.0,0.0,0.0,0.0,0.0,0.0,-3.8391,-3.8391,-3.8391,-3.8391,-3.8805,-3.9451,-4.0313,-4.0721,-4.0912,-4.0912,-4.0912,-4.0912,-4.0912,-4.0912,-4.0912,-4.0912,-4.0912,-4.0912,-4.0912,-4.0912,-4.0912,-4.0912,-4.0912,-4.0912,-4.0912,-4.0912,-4.0912,-4.0912,-4.0912,-4.0912,-4.0912,-4.0912,-4.0912,-4.0912,0.0,0.0,0.0,0.0,0.0,0.0,0.0,0.0,0.0,0.0,0.0,0.0,0.0,0.0,0.0,0.0,-2.2036,-2.2361,-2.2763,-2.3224,-2.3273,-2.2795,-2.2926,-2.3046,-2.3165,-2.3845,0.0,0.0,0.0,0.0,0.0,0.0,0.0,0.0,0.0,0.0,0.0,0.0,0.0,-2.914,-2.9697,0.0,-3.2379,-3.3994,-3.4983,-3.5554,-3.5514,-3.5364,-3.4978,-3.3545,-3.3231,-3.317,0.0,0.0,0.0,-2.9058,0.0,0.0,0.0,0.0,0.0,0.0,0.0,0.0,-3.0775,-3.0599,-3.0875,0.0,-3.3283,0.0,0.0,0.0,0.0,0.0,0.0,0.0,0.0,0.0,0.0,0.0,0.0,0.0,-3.8391,-3.8391,-3.8391,-3.8391,-3.9071,-3.9859,-4.0728,-4.0864,-4.0912,-4.0912,-4.0912,-4.0912,-4.0912,-4.0912,-4.0912,-4.0912,-4.0912,-4.0912,-4.0912,-4.0912,-4.0912,-4.0912,-4.0912,-4.0912,-4.0912,-4.0912,-4.0912,-4.0912,-4.0912,-4.0912,-4.0912,-4.0912,-4.0912,-4.0912,0.0,0.0,0.0,0.0,0.0,0.0,0.0,0.0,0.0,0.0,0.0,0.0,0.0,0.0,0.0,0.0,0.0,0.0,0.0,0.0,0.0,0.0,0.0,0.0,0.0,0.0,0.0,0.0,0.0,0.0,0.0,0.0,0.0,0.0,0.0,0.0,0.0,0.0,-2.8431,-2.9973,-3.0249,0.0,-3.2746,-3.4556,-3.5347,-3.5538,-3.595,-3.6085,-3.584,-3.4197,-3.4076,0.0,0.0,-3.1936,-3.1213,0.0,-2.9586,-2.9083,0.0,0.0,0.0,-2.9113,0.0,0.0,0.0,-3.0322,-3.0625,-3.2474,-3.2207,-3.205,0.0,0.0,0.0,0.0,0.0,0.0,0.0,0.0,0.0,0.0,0.0,0.0,-3.8391,-3.8391,-3.8572,-3.898,-3.9375,-3.9969,-4.0847,-4.0912,-4.0912,-4.0912,-4.0912,-4.0912,-4.0912,-4.0912,-4.0912,-4.0912,-4.0912,-4.0912,-4.0912,-4.0912,-4.0912,-4.0912,-4.0912,-4.0912,-4.0912,-4.0912,-4.0912,-4.0912,-4.0912,-4.0912,-4.0912,-4.0912,-4.0912,-4.0963,-1.9772,0.0,0.0,0.0,0.0,0.0,0.0,0.0,0.0,0.0,0.0,0.0,0.0,0.0,0.0,0.0,0.0,0.0,0.0,0.0,0.0,0.0,0.0,-2.4564,0.0,0.0,0.0,0.0,0.0,0.0,0.0,0.0,0.0,0.0,0.0,0.0,0.0,0.0,0.0,-3.081,0.0,-3.1502,-3.2688,-3.4557,-3.5012,-3.4792,-3.606,-3.6492,-3.6322,-3.5215,-3.5248,-3.543,-3.4044,-3.3136,0.0,0.0,0.0,0.0,0.0,0.0,0.0,0.0,0.0,-2.9886,0.0,0.0,0.0,-3.1283,-3.131,0.0,0.0,0.0,0.0,0.0,0.0,0.0,0.0,0.0,0.0,0.0,0.0,0.0,-3.8049,-3.8258,-3.8722,-3.9532,-3.961,-3.9969,-4.0847,-4.0912,-4.0912,-4.0912,-4.0912,-4.0912,-4.0912,-4.0912,-4.0912,-4.0912,-4.0912,-4.0912,-4.0912,-4.0912,-4.0912,-4.0912,-4.0912,-4.0912,-4.0912,-4.0912,-4.0912,-4.0912,-4.0912,-4.0912,-4.0912,-4.0912,-4.0912,-4.0998,-1.9586,-1.9659,0.0,0.0,0.0,0.0,0.0,0.0,0.0,0.0,0.0,0.0,0.0,0.0,0.0,0.0,0.0,0.0,-2.549,0.0,0.0,0.0,0.0,0.0,-2.5527,0.0,0.0,0.0,0.0,0.0,0.0,0.0,0.0,0.0,-2.6691,0.0,0.0,0.0,-3.0038,0.0,-3.3008,-3.3691,0.0,-3.5701,-3.5837,-3.5224,-3.6182,-3.6492,-3.6384,0.0,-3.5845,-3.6138,0.0,-3.386,-3.3013,-3.1674,0.0,0.0,0.0,0.0,0.0,0.0,-3.0097,0.0,0.0,0.0,-3.0757,-3.0862,0.0,0.0,0.0,0.0,0.0,0.0,0.0,0.0,0.0,0.0,0.0,0.0,0.0,0.0,0.0,-3.7823,-3.8722,-3.9532,-3.961,-3.9969,-4.0847,-4.0912,-4.0912,-4.0912,-4.0912,-4.0912,-4.0912,-4.0912,-4.0912,-4.0912,-4.0912,-4.0912,-4.0912,-4.0912,-4.0912,-4.0912,-4.0912,-4.0912,-4.0912,-4.0912,-4.0912,-4.0912,-4.0912,-4.0912,-4.0912,-4.0912,-4.0912,-4.0912,-1.9749,-1.9892,0.0,0.0,0.0,0.0,0.0,0.0,0.0,0.0,0.0,0.0,0.0,0.0,0.0,0.0,0.0,-2.735,0.0,0.0,0.0,0.0,0.0,0.0,0.0,0.0,0.0,0.0,-2.6539,0.0,0.0,0.0,0.0,0.0,-2.7721,0.0,-2.8902,0.0,-3.1742,0.0,0.0,0.0,0.0,-3.5838,-3.6291,-3.5993,-3.6384,-3.6492,-3.6445,0.0,-3.5999,0.0,0.0,0.0,0.0,0.0,0.0,0.0,0.0,0.0,0.0,0.0,0.0,0.0,-3.0448,0.0,-3.0804,0.0,0.0,0.0,0.0,0.0,0.0,0.0,-3.1655,0.0,0.0,0.0,0.0,0.0,0.0,0.0,0.0,0.0,0.0,-3.8238,-3.853,-3.8921,-3.952,-4.0411,-4.0912,-4.0912,-4.0912,-4.0912,-4.0912,-4.0912,-4.0912,-4.0912,-4.0912,-4.0912,-4.0912,-4.0912,-4.0912,-4.0912,-4.0912,-4.0912,-4.0912,-4.0912,-4.0912,-4.0912,-4.0912,-4.117,-4.155,-4.155,-4.1843,-4.224,-2.0126,0.0,0.0,0.0,0.0,0.0,0.0,0.0,0.0,0.0,0.0,0.0,-2.4972,-2.5605,0.0,0.0,-2.8702,-2.886,0.0,0.0,-2.8629,0.0,0.0,0.0,0.0,0.0,0.0,0.0,0.0,0.0,0.0,0.0,0.0,0.0,0.0,-2.8913,-2.9717,0.0,-3.295,-3.3525,-3.4415,-3.4659,-3.4666,-3.5738,-3.6276,-3.6492,-3.6492,-3.6492,-3.6492,-3.6492,-3.6168,0.0,-3.6122,0.0,0.0,0.0,0.0,0.0,-3.1589,0.0,0.0,0.0,0.0,0.0,0.0,0.0,0.0,0.0,0.0,0.0,0.0,0.0,0.0,0.0,0.0,-3.164,0.0,0.0,0.0,0.0,0.0,0.0,0.0,0.0,0.0,-3.6836,-3.7205,-3.7717,-3.8555,-3.9669,-4.0463,-4.0894,-4.0912,-4.0912,-4.0912,-4.0912,-4.0912,-4.0912,-4.0912,-4.1015,-4.1205,-4.1205,-4.1326,-4.1533,-4.1533,-4.1533,-4.1533,-4.1533,-4.1533,-4.1533,-4.1533,-4.1981,-4.2585,-4.2171,-4.2516,-4.3189,-2.073,-2.073,0.0,0.0,0.0,0.0,0.0,0.0,0.0,0.0,0.0,0.0,0.0,0.0,0.0,0.0,0.0,-2.9585,-2.9611,0.0,-2.8629,0.0,0.0,-2.8157,0.0,0.0,0.0,0.0,0.0,0.0,0.0,0.0,0.0,0.0,-2.6759,-2.8191,-3.0594,-3.1334,-3.3087,-3.5475,-3.6138,-3.6415,-3.6338,0.0,-3.5784,-3.6492,-3.6492,0.0,0.0,-3.6492,-3.6476,0.0,0.0,0.0,0.0,0.0,0.0,0.0,0.0,0.0,0.0,-3.3441,0.0,0.0,0.0,0.0,-3.1598,0.0,0.0,0.0,0.0,0.0,0.0,0.0,0.0,0.0,0.0,0.0,0.0,0.0,0.0,0.0,0.0,-3.4466,-3.5281,-3.5718,-3.5779,-3.6609,-3.8486,-3.8651,-3.9376,-4.086,-4.0912,-4.0912,-4.0912,-4.0912,-4.0912,-4.0912,-4.0912,-4.1274,-4.1964,-4.1964,-4.2396,-4.312,-4.312,-4.312,-4.312,-4.312,-4.312,-4.312,-4.312,-4.3586,-4.4052,-4.2568,-4.2516,-4.3189,0.0,0.0,0.0,0.0,0.0,0.0,0.0,-2.2595,0.0,0.0,0.0,0.0,0.0,-2.8676,-2.9502,0.0,0.0,-3.0786,-3.142,-3.0576,0.0,0.0,0.0,-2.9124,0.0,0.0,0.0,0.0,0.0,0.0,0.0,0.0,0.0,0.0,0.0,-2.9452,0.0,0.0,0.0,0.0,0.0,-3.5457,-3.5494,0.0,-3.6229,-3.6492,-3.6492,-3.6492,0.0,-3.6492,-3.6492,-3.6445,-3.6215,-3.6087,-3.5794,-3.4514,-3.4038,0.0,0.0,0.0,-3.3519,-3.4166,0.0,0.0,0.0,0.0,0.0,0.0,0.0,0.0,0.0,0.0,0.0,0.0,0.0,0.0,0.0,0.0,0.0,0.0,0.0,0.0,0.0,0.0,0.0,-3.4113,-3.4468,-3.5345,-3.6991,-3.8043,-3.9324,-4.086,-4.0912,-4.0912,-4.0912,-4.0912,-4.1153,-4.1636,-4.1636,-4.205,-4.2792,-4.2792,-4.2948,-4.3189,-4.3189,-4.3189,-4.3189,-4.3189,-4.3189,-4.3189,-4.3189,-4.3655,-4.4242,-4.3707,-4.3992,-4.4596,-1.9621,0.0,0.0,0.0,0.0,0.0,0.0,0.0,0.0,0.0,-2.5605,0.0,-2.9153,0.0,-3.0725,0.0,-3.1865,-3.1751,-3.2364,-3.1514,0.0,-3.2702,-3.1052,0.0,0.0,0.0,0.0,0.0,0.0,-2.6691,0.0,0.0,0.0,0.0,0.0,-2.9358,-3.1237,-3.2574,-3.388,0.0,0.0,-3.5019,0.0,0.0,-3.6211,-3.6443,0.0,-3.6492,-3.6492,-3.6492,-3.6492,-3.6492,-3.6492,-3.6444,-3.6233,-3.5427,-3.511,-3.5063,-3.5179,-3.4977,0.0,-3.512,-3.4553,0.0,-3.3435,0.0,0.0,0.0,0.0,0.0,0.0,0.0,0.0,0.0,0.0,0.0,0.0,-3.18,0.0,0.0,0.0,0.0,0.0,0.0,-3.2103,-3.2773,-3.3112,-3.4162,0.0,-3.7232,-3.8755,-4.0843,-4.0912,-4.0912,-4.0912,-4.117,-4.1533,-4.2016,-4.2292,-4.2844,-4.3586,-4.3586,-4.3741,-4.3975,-4.3975,-4.3975,-4.3975,-4.3975,-4.3975,-4.3975,-4.3975,-4.4268,-4.4647,-4.4397,-4.4768,-4.5328,0.0,0.0,0.0,0.0,-2.0196,0.0,0.0,0.0,-2.4108,0.0,-2.6216,-2.8317,-2.8591,-3.0085,-3.1425,-3.2302,-3.2398,-3.2398,-3.2398,-3.155,0.0,0.0,-3.1935,-3.1416,-3.1997,0.0,0.0,0.0,0.0,0.0,0.0,0.0,0.0,0.0,-2.6742,0.0,-3.0371,-3.1221,-3.2997,-3.5194,-3.5228,-3.5244,-3.5269,-3.5273,-3.5694,-3.6308,-3.6445,-3.6492,-3.6492,-3.6492,-3.6492,-3.6492,-3.6492,-3.6492,-3.6492,-3.6492,-3.6492,-3.6492,-3.6492,-3.5898,-3.5459,-3.6291,-3.5166,0.0,0.0,0.0,-3.4569,0.0,0.0,0.0,0.0,0.0,0.0,0.0,0.0,0.0,0.0,0.0,0.0,0.0,0.0,0.0,0.0,-3.18,-3.18,-3.18,-3.18,-3.3076,0.0,-3.6266,-3.768,-4.0687,-4.086,-4.0912,-4.0912,-4.1636,-4.2033,-4.2085,-4.2879,-4.3638,-4.4363,-4.4363,-4.4734,-4.5397,-4.5397,-4.5397,-4.5397,-4.5397,-4.5397,-4.5397,-4.5397,-4.5397,-4.5311,-4.4596,-4.4803,-4.5397,-1.8538,-1.8646,-1.9189,0.0,-2.0555,-2.0796,0.0,0.0,0.0,0.0,-2.6937,-2.8745,-3.0196,-3.1368,-3.2149,-3.2394,-3.2398,0.0,0.0,0.0,0.0,-3.2628,-3.2739,-3.2528,-3.2003,-3.0919,0.0,-2.8938,0.0,0.0,-2.664,0.0,0.0,0.0,0.0,0.0,-3.0359,-3.1128,-3.2901,-3.5244,-3.5733,-3.5975,-3.6009,0.0,-3.6219,-3.6308,-3.6445,-3.6492,-3.6492,-3.6492,-3.6492,-3.6492,-3.6492,-3.6492,-3.6492,-3.6492,-3.6492,-3.6492,-3.6492,-3.6322,-3.6229,-3.643,-3.5642,-3.4932,0.0,0.0,0.0,0.0,0.0,0.0,0.0,0.0,0.0,0.0,0.0,0.0,0.0,0.0,0.0,-3.18,0.0,0.0,-3.18,-3.18,-3.18,-3.18,-3.18,-3.2628,-3.4562,0.0,-3.718,-3.9112,-4.0308,-4.0912,-4.0912,-4.1636,-4.2309,-4.2896,-4.3655,-4.4389,-4.513,-4.513,-4.5207,-4.5397,-4.5397,-4.5397,-4.5397,-4.5397,-4.5397,-4.5397,-4.5397,-4.5397,-4.538,-4.5173,-4.5225,-4.5397,-1.8235,0.0,0.0,-2.0969,0.0,0.0,-2.1894,0.0,0.0,-2.5881,-2.8,0.0,-3.0474,-3.161,-3.2315,-3.2315,-3.2315,0.0,-3.2315,0.0,0.0,-3.3275,-3.309,-3.3141,-3.3531,-3.1726,0.0,-2.9816,0.0,0.0,-2.6589,0.0,0.0,0.0,0.0,-2.8521,-2.9859,-3.1669,-3.3281,-3.465,-3.5457,-3.5784,0.0,-3.5907,-3.6129,-3.6392,-3.6461,-3.6492,-3.6492,-3.6492,-3.6492,-3.6492,-3.6492,-3.6492,-3.6492,-3.6492,-3.6492,-3.6492,-3.6492,-3.6492,-3.6492,-3.6492,-3.612,-3.5814,-3.596,-3.5635,-3.5338,0.0,-3.5308,-3.4986,0.0,0.0,0.0,0.0,0.0,0.0,0.0,0.0,0.0,0.0,-3.18,0.0,-3.18,-3.18,-3.18,-3.18,-3.1947,-3.2919,0.0,0.0,-3.6624,-3.9014,-3.9618,-3.9894,-3.9894,-4.1654,-4.2585,-4.2689,-4.4096,-4.501,-4.5397,-4.5397,-4.5397,-4.5397,-4.5397,-4.5397,-4.5397,-4.5397,-4.5397,-4.5397,-4.5397,-4.5397,-4.5397,-4.5397,-4.5397,-4.5397,-1.844,0.0,0.0,0.0,0.0,0.0,0.0,-2.5077,0.0,-2.649,0.0,-3.0749,-3.0199,-3.1387,-3.2219,-3.2219,0.0,-3.2219,-3.2219,-3.2435,-3.3029,-3.4181,-3.329,-3.3598,-3.5337,-3.2772,-3.1169,0.0,0.0,0.0,0.0,0.0,0.0,0.0,0.0,0.0,0.0,-3.2501,-3.3845,-3.403,-3.4991,-3.5376,-3.5376,-3.5376,-3.5834,-3.6492,-3.6492,-3.6492,-3.6492,-3.6492,-3.6492,-3.6492,-3.6492,-3.6492,-3.6492,-3.6492,-3.6492,-3.6492,-3.6492,-3.6492,-3.6492,-3.6492,-3.6492,-3.6585,-3.6877,-3.6938,-3.6984,-3.7238,-3.6568,-3.6025,0.0,0.0,0.0,0.0,0.0,0.0,0.0,0.0,0.0,0.0,0.0,0.0,0.0,-3.18,-3.18,-3.18,-3.2073,0.0,0.0,0.0,-3.5939,-3.9014,-3.8767,-3.8703,-3.8888,-4.1757,-4.2896,-4.2344,-4.4423,-4.5397,-4.5397,-4.5397,-4.5397,-4.5397,-4.5397,-4.5397,-4.5397,-4.5397,-4.5397,-4.5397,-4.5397,-4.5397,-4.5397,-4.5397,-4.5397,-4.5397,0.0,0.0,0.0,0.0,0.0,-2.2959,-2.543,-2.5607,-2.5998,-2.7588,-2.9467,-3.0716,-3.0795,-3.1745,-3.237,-3.237,-3.237,0.0,0.0,0.0,0.0,-3.2767,-3.4152,-3.4874,-3.469,-3.3883,-3.2803,0.0,0.0,0.0,0.0,0.0,0.0,0.0,0.0,0.0,-3.0849,-3.287,0.0,-3.4811,-3.5869,-3.6276,-3.6276,-3.6276,-3.6369,-3.6492,-3.6492,-3.6492,-3.6492,-3.6492,-3.6492,-3.6492,-3.6492,-3.6492,-3.6492,-3.6492,-3.6492,-3.6492,-3.6492,-3.6492,-3.6492,-3.6492,-3.6492,-3.6523,-3.6585,-3.6585,-3.6616,-3.6631,-3.672,-3.6591,-3.5998,0.0,0.0,0.0,0.0,0.0,0.0,0.0,0.0,0.0,0.0,-3.3492,0.0,0.0,0.0,-3.18,0.0,0.0,0.0,0.0,-3.4743,0.0,-3.768,0.0,0.0,0.0,-4.3431,-4.3914,-4.4923,-4.5397,-4.5397,-4.5397,-4.5397,-4.5397,-4.5397,-4.5397,-4.5397,-4.5397,-4.5397,-4.5397,-4.5397,-4.5397,-4.5397,-4.5397,-4.5397,-4.5397,0.0,0.0,0.0,0.0,0.0,0.0,0.0,-2.6186,0.0,-2.8467,-2.9919,-3.0905,-3.1177,-3.1813,-3.2219,-3.2287,-3.2247,-3.2219,-3.2287,-3.2678,-3.3059,-3.3488,-3.4075,0.0,-3.5537,-3.4709,-3.3356,-3.155,0.0,0.0,0.0,0.0,0.0,0.0,0.0,-2.9955,0.0,0.0,0.0,-3.5,-3.6075,-3.6492,-3.6492,-3.6383,-3.6414,-3.6492,-3.6383,-3.6414,-3.6492,-3.6492,-3.6492,-3.6492,-3.6492,-3.6492,-3.6492,-3.6492,-3.6492,-3.6492,-3.6492,-3.6492,-3.6492,-3.6492,-3.6492,-3.6492,-3.6492,-3.6492,-3.6492,-3.6492,-3.6631,-3.6547,-3.5919,-3.5422,0.0,0.0,0.0,0.0,0.0,0.0,0.0,0.0,0.0,0.0,0.0,0.0,0.0,0.0,0.0,0.0,0.0,0.0,-3.417,0.0,0.0,0.0,-3.9134,0.0,-4.3362,-4.2568,-4.4492,-4.5397,-4.5397,-4.5397,-4.5397,-4.5397,-4.5397,-4.5397,-4.5397,-4.5397,-4.5397,-4.5397,-4.5397,-4.5397,-4.5397,-4.5397,-4.5397,-4.5397,0.0,-2.2071,0.0,0.0,-2.3325,0.0,-2.5832,-2.6784,-2.7887,-2.9394,-3.0434,-3.1204,-3.1555,-3.1913,-3.2122,-3.2247,-3.215,-3.2122,-3.2247,-3.2481,-3.3029,-3.4012,-3.3906,-3.4537,-3.5999,-3.5261,-3.3898,0.0,0.0,0.0,0.0,0.0,0.0,0.0,0.0,0.0,0.0,0.0,-3.5136,-3.5247,-3.6137,-3.6492,-3.6492,-3.6305,-3.6352,-3.6492,-3.6305,-3.6383,-3.6492,-3.6492,-3.6492,-3.6492,-3.6492,-3.6492,-3.6492,-3.6492,-3.6492,-3.6492,-3.6492,-3.6492,-3.6492,-3.6492,-3.6492,-3.6492,-3.6492,-3.6492,-3.6492,-3.6492,-3.66,-3.6565,-3.6206,-3.6464,0.0,0.0,0.0,0.0,0.0,0.0,0.0,0.0,0.0,0.0,-3.3448,0.0,0.0,0.0,0.0,0.0,-3.4027,0.0,0.0,0.0,0.0,-3.7452,-3.8334,0.0,-4.3155,-4.1871,-4.4242,-4.5397,-4.5397,-4.5397,-4.5397,-4.5397,-4.5397,-4.5397,-4.5397,-4.5397,-4.5397,-4.5397,-4.5397,-4.5397,-4.5397,-4.5397,-4.5397,-4.5397,0.0,0.0,0.0,0.0,0.0,0.0,-2.6951,-2.7388,-2.8282,-3.0559,-3.104,-3.1481,-3.2228,-3.2324,-3.237,-3.237,-3.237,-3.237,-3.237,-3.2967,-3.309,-3.2613,-3.4321,-3.5016,-3.4437,-3.5493,-3.5124,0.0,0.0,-3.1182,0.0,0.0,0.0,0.0,0.0,0.0,0.0,-3.4447,-3.5271,-3.6106,-3.6399,-3.6492,-3.6492,-3.6492,-3.6492,-3.6492,-3.6492,-3.6492,-3.6492,-3.6492,-3.6492,-3.6492,-3.6492,-3.6492,-3.6492,-3.6492,-3.6492,-3.6492,-3.6492,-3.6492,-3.6492,-3.6492,-3.6492,-3.6492,-3.6492,-3.6492,-3.6492,-3.6492,-3.6922,-3.731,-3.7273,-3.6938,-3.6363,0.0,0.0,0.0,0.0,0.0,-3.496,-3.3567,0.0,0.0,0.0,-3.4023,0.0,0.0,-3.2402,0.0,0.0,0.0,0.0,-3.6838,-3.5937,-3.7255,-4.109,-4.1845,-4.3147,-4.4983,-4.5276,-4.5397,-4.5397,-4.5397,-4.5397,-4.5397,-4.5397,-4.5397,-4.5397,-4.5397,-4.5397,-4.5397,-4.5397,-4.5397,-4.5397,-4.5397,-4.5397,-4.5397,0.0,0.0,0.0,0.0,0.0,0.0,0.0,-2.7411,-2.8544,-3.0304,-3.0926,-3.1496,-3.2321,-3.2315,-3.2315,-3.2398,-3.2315,-3.2315,-3.2398,-3.2644,-3.3044,-3.3642,-3.4326,-3.4926,-3.5385,-3.5842,-3.5278,0.0,0.0,0.0,0.0,0.0,0.0,0.0,0.0,-3.3204,-3.4392,-3.5153,-3.5737,-3.6211,-3.6274,-3.6305,-3.6305,-3.6305,-3.6305,-3.6305,-3.6305,-3.6383,-3.6492,-3.6492,-3.6492,-3.6492,-3.6492,-3.6492,-3.6492,-3.6492,-3.6492,-3.6492,-3.6492,-3.6492,-3.6492,-3.6492,-3.6492,-3.6492,-3.6492,-3.6492,-3.6492,-3.6492,-3.6983,-3.7476,-3.7666,-3.7705,-3.7355,-3.624,0.0,0.0,0.0,0.0,0.0,0.0,0.0,-3.5531,0.0,0.0,0.0,0.0,0.0,0.0,0.0,0.0,0.0,-3.7196,0.0,-3.8701,-4.1777,-4.24,-4.3189,-4.4078,-4.4966,-4.5397,-4.5397,-4.5397,-4.5397,-4.5397,-4.5397,-4.5397,-4.5397,-4.5397,-4.5397,-4.5397,-4.5397,-4.5397,-4.5397,-4.5397,-4.5397,-4.5466,-2.5379,0.0,-2.5828,0.0,-2.6332,-2.6973,-2.6782,-2.778,-2.8964,-3.0103,-3.0849,-3.1551,-3.2321,-3.233,-3.2287,-3.2398,-3.2315,-3.2287,-3.2398,-3.2582,-3.3136,-3.4135,-3.4374,0.0,-3.5843,-3.5883,-3.5368,-3.4235,-3.327,0.0,0.0,0.0,0.0,0.0,-3.3628,-3.4417,-3.5254,-3.5782,-3.61,-3.6274,-3.6274,-3.6274,-3.6274,-3.6274,-3.6274,-3.6274,-3.6274,-3.6383,-3.6492,-3.6492,-3.6492,-3.6492,-3.6492,-3.6492,-3.6492,-3.6492,-3.6492,-3.6492,-3.6492,-3.6492,-3.6492,-3.6492,-3.6492,-3.6492,-3.6492,-3.6492,-3.6492,-3.6492,-3.6983,-3.7476,-3.7711,-3.8119,-3.8017,-3.6891,0.0,0.0,0.0,-3.5425,0.0,0.0,-3.465,-3.544,-3.5819,-3.4566,0.0,0.0,0.0,0.0,0.0,0.0,0.0,0.0,0.0,0.0,-4.1827,-4.2313,-4.2965,-4.388,-4.4897,-4.5397,-4.5397,-4.5397,-4.5397,-4.5397,-4.5397,-4.5397,-4.5397,-4.5397,-4.5397,-4.5397,-4.5397,-4.5397,-4.5432,-4.5656,-4.5742,-4.5862,-2.7264,-2.7448,-2.7373,-2.7373,-2.7496,-2.7626,-2.7762,-2.8682,-2.9617,-3.0309,-3.0982,-3.1643,-3.2321,-3.2398,-3.2398,-3.2398,-3.2398,-3.2398,-3.2398,-3.3013,-3.3398,0.0,0.0,-3.5141,-3.5018,-3.5451,-3.5638,-3.5474,0.0,0.0,-3.4159,0.0,-3.3751,-3.4659,-3.4545,-3.5243,-3.6461,-3.6132,-3.6195,-3.6492,-3.6492,-3.6492,-3.6492,-3.6492,-3.6492,-3.6492,-3.6492,-3.6492,-3.6492,-3.6492,-3.6492,-3.6492,-3.6492,-3.6492,-3.6492,-3.6492,-3.6492,-3.6492,-3.6492,-3.6492,-3.6492,-3.6492,-3.6492,-3.6492,-3.6492,-3.6492,-3.6492,-3.6492,-3.6983,-3.7417,-3.7417,-3.796,-3.8017,-3.6891,0.0,0.0,0.0,0.0,0.0,-3.482,-3.5254,-3.5825,-3.6157,-3.5931,0.0,0.0,0.0,0.0,0.0,0.0,0.0,-3.6865,-3.5818,0.0,-4.1468,-4.1123,-4.2423,-4.5363,-4.538,-4.5397,-4.5397,-4.5397,-4.5397,-4.5397,-4.5397,-4.5397,-4.5397,-4.5397,-4.5397,-4.5397,-4.5397,-4.5397,-4.55,-4.6276,-4.6596,-4.67,-2.7523,-2.7783,-2.7777,-2.7704,-2.7777,-2.7913,-2.8066,-2.8827,-2.9633,-3.0309,-3.0982,-3.167,-3.2321,-3.2398,-3.2398,0.0,-3.2398,-3.2398,0.0,-3.3029,-3.3556,-3.3945,-3.4668,-3.5184,-3.5466,-3.5614,-3.5688,-3.5653,0.0,0.0,0.0,-3.4907,-3.5247,-3.5399,-3.5476,-3.5813,-3.6274,-3.5958,-3.6053,-3.6492,-3.6258,-3.6226,-3.6305,-3.6305,-3.6305,-3.6305,-3.646,-3.6492,-3.6492,-3.6492,-3.6492,-3.6492,-3.6492,-3.6492,-3.6492,-3.6492,-3.6492,-3.6492,-3.6492,-3.6492,-3.6492,-3.6492,-3.6492,-3.6492,-3.6492,-3.6492,-3.6554,-3.6785,-3.6984,-3.724,-3.7653,-3.7931,-3.7762,-3.6865,-3.7339,0.0,0.0,0.0,0.0,-3.509,-3.5136,-3.575,-3.6892,-3.6746,0.0,0.0,0.0,0.0,0.0,0.0,0.0,0.0,-3.9772,0.0,-4.4125,-4.3015,-4.344,-4.5397,-4.5397,-4.5397,-4.5397,-4.5397,-4.5397,-4.5397,-4.5397,-4.5397,-4.5397,-4.5397,-4.5397,-4.5397,-4.5397,-4.5397,-4.55,-4.632,-4.6613,-4.6786,-2.73,-2.7773,-2.8029,-2.7905,-2.8005,-2.8128,-2.8235,-2.9147,-2.9925,-3.034,-3.1197,-3.1921,-3.2336,-3.2398,0.0,-3.2398,-3.2398,-3.2398,-3.2398,-3.3029,-3.3648,-3.4178,-3.4699,-3.5228,-3.5705,-3.5638,0.0,-3.5621,-3.5263,-3.5018,-3.4957,-3.572,-3.599,-3.5831,-3.5941,-3.6068,-3.6116,-3.5894,-3.6022,-3.6383,-3.6226,-3.6226,-3.6305,-3.6305,-3.6305,-3.6352,-3.646,-3.6492,-3.6492,-3.6492,-3.6492,-3.6492,-3.6492,-3.6492,-3.6492,-3.6492,-3.6492,-3.6492,-3.6492,-3.6492,-3.6492,-3.6492,-3.6492,-3.6492,-3.6492,-3.6492,-3.6554,-3.6785,-3.6984,-3.727,-3.7653,-3.7931,-3.7927,-3.7432,-3.7931,-3.7758,-3.596,0.0,0.0,0.0,0.0,0.0,0.0,-3.7506,-3.7505,0.0,0.0,0.0,0.0,0.0,0.0,-4.0014,-4.105,-4.2543,-4.4561,-4.3672,-4.3923,-4.5397,-4.5397,-4.5397,-4.5397,-4.5397,-4.5397,-4.5397,-4.5397,-4.5397,-4.5414,-4.5725,-4.5845,-4.588,-4.6155,-4.6259,-4.6362,-4.7121,-4.7441,-4.7614,-2.6784,-2.7589,-2.8162,0.0,-2.8113,0.0,-2.8372,-2.9525,-3.0402,-3.0402,-3.1582,-3.2398,-3.2398,-3.2398,-3.2398,-3.2398,0.0,0.0,0.0,-3.3075,-3.3666,-3.4163,-3.4744,-3.5242,-3.5672,-3.5572,-3.5537,-3.5569,-3.5653,-3.5688,-3.572,-3.6038,-3.6116,-3.5973,-3.6005,-3.6005,-3.5973,-3.6005,-3.6085,-3.6196,-3.6383,-3.6492,-3.6492,-3.6492,-3.6492,-3.6492,-3.6492,-3.6492,-3.6492,-3.6492,-3.6492,-3.6492,-3.6492,-3.6492,-3.6492,-3.6492,-3.6492,-3.6492,-3.6492,-3.6492,-3.6492,-3.6492,-3.6492,-3.6492,-3.6492,-3.6492,-3.6492,-3.6492,-3.6952,-3.7358,-3.7358,-3.7889,-3.8323,-3.8363,-3.8363,-3.7984,-3.6858,0.0,0.0,0.0,0.0,0.0,-3.8421,-3.8299,-3.8133,0.0,0.0,0.0,0.0,0.0,-4.004,-3.9031,-4.0446,-4.1912,-4.3345,-4.3345,-4.4027,-4.5397,-4.5397,-4.5397,-4.5397,-4.5397,-4.5371,-4.5371,-4.5371,-4.5371,-4.5422,-4.6259,-4.6569,-4.6655,-4.7396,-4.7689,-4.7775,-4.8517,-4.8792,-4.8913,0.0,0.0,-2.8162,-2.8029,-2.8113,-2.8235,-2.8372,-2.9525,-3.0402,-3.0402,-3.1582,-3.2398,-3.2398,-3.2398,-3.2398,-3.2398,-3.2398,-3.2398,-3.2398,-3.3407,-3.3995,-3.3984,-3.4985,-3.5552,-3.5554,-3.5621,-3.5767,-3.6022,-3.5701,-3.5668,-3.5941,-3.6005,-3.5893,-3.5619,-3.6005,-3.6022,-3.5799,-3.6038,-3.6116,-3.6068,-3.6211,-3.6274,-3.6274,-3.6274,-3.6383,-3.6492,-3.6492,-3.6492,-3.6492,-3.6492,-3.6492,-3.6492,-3.6492,-3.6492,-3.6492,-3.6492,-3.6492,-3.6492,-3.6492,-3.6492,-3.6492,-3.6492,-3.6492,-3.6492,-3.6492,-3.6492,-3.6492,-3.6492,-3.66,-3.6785,-3.7044,-3.7241,-3.7494,-3.796,-3.8017,-3.7701,-3.6816,-3.6931,0.0,0.0,-3.697,-3.7677,-3.8762,-3.9421,-3.9498,0.0,0.0,0.0,-3.8888,-4.1179,-4.2649,-4.2948,-4.3854,-4.4501,-4.4889,-4.4889,-4.5035,-4.5397,-4.5397,-4.5344,-4.5247,-4.5247,-4.5194,-4.5086,-4.5086,-4.5086,-4.5155,-4.6028,-4.6299,-4.6319,-4.7296,-4.7634,-4.7653,-4.8488,-4.8792,-4.8913,-2.7413,-2.7939,-2.8226,-2.8029,-2.8152,-2.8323,-2.8387,-2.9525,-3.0402,-3.0402,-3.1582,-3.2398,-3.2398,-3.2398,-3.2398,-3.2398,-3.2398,-3.2398,-3.2398,-3.3297,-3.3857,-3.3909,-3.4848,-3.5416,-3.5504,-3.5572,-3.575,-3.5975,-3.5718,-3.575,-3.6085,-3.6085,-3.5973,-3.5733,-3.6053,-3.6006,-3.572,-3.607,-3.6116,-3.6037,-3.6258,-3.6274,-3.6211,-3.6305,-3.6383,-3.6492,-3.6492,-3.6492,-3.6492,-3.6492,-3.6492,-3.6492,-3.6492,-3.6492,-3.6492,-3.6492,-3.6492,-3.6492,-3.6492,-3.6492,-3.6492,-3.6492,-3.6492,-3.6492,-3.6492,-3.6492,-3.6492,-3.6492,-3.6616,-3.6785,-3.6984,-3.7105,-3.73,-3.7623,-3.7399,-3.7014,-3.6568,-3.6619,-3.6697,-3.6697,-3.7819,-3.8963,-3.9761,-4.0727,-4.1197,-4.1003,-4.093,0.0,-4.1205,-4.212,-4.2844,-4.3241,-4.4665,-4.5397,-4.5397,-4.5344,-4.53,-4.53,-4.5264,-4.5167,-4.5113,-4.5113,-4.5059,-4.5005,-4.5005,-4.5005,-4.5091,-4.6223,-4.6657,-4.672,-4.802,-4.8506,-4.8558,-4.9039,-4.9252,-4.9396,-2.7172,-2.7843,-2.8339,-2.8079,-2.8241,-2.8442,-2.855,-2.9587,-3.0432,-3.054,-3.1628,-3.2398,-3.2398,-3.2398,-3.2398,-3.2398,-3.2398,-3.2398,-3.2398,-3.3093,-3.3596,-3.3909,-3.4668,-3.5192,-3.5489,-3.5537,-3.5604,-3.5752,-3.572,-3.5879,-3.6196,-3.6179,-3.6085,-3.5958,-3.6148,-3.6038,-3.572,-3.6085,-3.6148,-3.6037,-3.6367,-3.6383,-3.6211,-3.6414,-3.6492,-3.6492,-3.6492,-3.6492,-3.6492,-3.6492,-3.6492,-3.6492,-3.6492,-3.6492,-3.6492,-3.6492,-3.6492,-3.6492,-3.6492,-3.6492,-3.6492,-3.6492,-3.6492,-3.6492,-3.6492,-3.6492,-3.6492,-3.6492,-3.6724,-3.6908,-3.6908,-3.7119,-3.7219,-3.7146,-3.6614,-3.6194,-3.6098,0.0,-3.6755,-3.6948,-3.889,-4.0431,-4.1006,-4.2002,-4.2757,-4.3164,-4.1999,-4.205,-4.3862,-4.2948,-4.2309,-4.2189,-4.426,-4.5371,-4.5344,-4.5247,-4.5177,-4.515,-4.5059,-4.5046,-4.5138,-4.5138,-4.519,-4.5265,-4.5265,-4.5265,-4.5384,-4.6766,-4.7329,-4.7437,-4.8941,-4.9607,-4.9679,-4.9725,-4.986,-5.0011,-2.7795,-2.8222,-2.8348,-2.8201,-2.8299,-2.8596,-2.9156,-2.9894,-3.0586,-3.1166,-3.1905,-3.2398,-3.2398,-3.2398,-3.2398,-3.2398,-3.2398,-3.2398,-3.2398,-3.3293,-3.3848,-3.3894,-3.4888,-3.5464,-3.5504,-3.5621,-3.5767,-3.5941,-3.5784,-3.5879,-3.6196,-3.6085,-3.5926,-3.5752,-3.6258,-3.6179,-3.572,-3.6258,-3.6289,-3.6037,-3.6367,-3.6383,-3.6211,-3.6414,-3.6492,-3.6492,-3.6492,-3.6492,-3.6492,-3.6492,-3.6492,-3.6492,-3.6492,-3.6492,-3.6492,-3.6492,-3.6492,-3.6492,-3.6492,-3.6492,-3.6492,-3.6492,-3.6492,-3.6492,-3.6492,-3.6492,-3.6492,-3.6492,-3.6554,-3.6585,-3.6585,-3.6616,-3.6472,-3.5947,-3.5874,-3.5689,-3.5193,0.0,-3.7081,-3.8094,-3.9683,-4.109,-4.2138,-4.2757,-4.3114,-4.3189,-4.2982,-4.2706,-4.2378,-4.3379,-4.3655,-4.3034,-4.4457,-4.5194,-4.5059,-4.5167,-4.5123,-4.5032,-4.5005,-4.5265,-4.5756,-4.5756,-4.6056,-4.6518,-4.6518,-4.6518,-4.6603,-4.758,-4.7878,-4.7907,-4.9176,-4.9619,-4.9577,-4.9848,-4.9964,-4.9982,-2.8012,-2.8323,-2.8348,-2.821,-2.8323,-2.8642,-2.9294,-2.9971,-3.0632,-3.1305,-3.1967,-3.2398,-3.2398,-3.2398,-3.2398,-3.2398,-3.2398,-3.2552,-3.2906,-3.3628,-3.3999,-3.3894,-3.4994,-3.5572,-3.5504,-3.5621,-3.5752,-3.5831,-3.5752,-3.5879,-3.6196,-3.6068,-3.599,-3.5975,-3.6352,-3.632,-3.5975,-3.6352,-3.6352,-3.6116,-3.6383,-3.6383,-3.6211,-3.6414,-3.6492,-3.6492,-3.6492,-3.6492,-3.6492,-3.6492,-3.6492,-3.6492,-3.6492,-3.6492,-3.6492,-3.6492,-3.6492,-3.6492,-3.6492,-3.6492,-3.6492,-3.6492,-3.6492,-3.6492,-3.6492,-3.6492,-3.6599,-3.6953,-3.703,-3.703,-3.703,-3.703,-3.6677,-3.5559,-3.5621,0.0,-3.4783,-3.6189,-3.7576,-3.8413,-4.0558,-4.229,-4.3076,-4.3898,-4.4389,-4.4389,-4.4389,-4.4216,-4.3854,-4.4509,-4.4708,-4.4294,-4.4939,-4.5194,-4.5005,-4.547,-4.562,-4.5499,-4.5807,-4.6112,-4.6394,-4.6394,-4.6523,-4.6786,-4.6786,-4.6786,-4.6883,-4.767,-4.7962,-4.7986,-4.8957,-4.932,-4.935,-4.9518,-4.9654,-4.9713,-2.8137,-2.8323,-2.8372,-2.8259,-2.8323,-2.8688,-2.9494,-3.0063,-3.0705,-3.1505,-3.2074,-3.2398,-3.2398,-3.2398,-3.2398,-3.2398,-3.2536,-3.2844,-3.3367,-3.4052,-3.4363,-3.4227,-3.5149,-3.5653,-3.5504,-3.5686,-3.5752,-3.5688,-3.5784,-3.5943,-3.6196,-3.6068,-3.6053,-3.6211,-3.6352,-3.6352,-3.6211,-3.6414,-3.6414,-3.6274,-3.6445,-3.6414,-3.6274,-3.6445,-3.6492,-3.6492,-3.6492,-3.6492,-3.6492,-3.6492,-3.6492,-3.6492,-3.6492,-3.6492,-3.6492,-3.6492,-3.6492,-3.6492,-3.6492,-3.6492,-3.6492,-3.6492,-3.6492,-3.6492,-3.6492,-3.6492,-3.6645,-3.7153,-3.7261,-3.7261,-3.7261,-3.74,-3.7018,-3.5438,0.0,0.0,0.0,-3.691,-3.855,-3.9441,-4.1705,-4.3415,-4.4026,-4.4894,-4.5397,-4.5397,-4.5397,-4.5397,-4.5397,-4.5397,-4.53,-4.515,-4.5274,-4.528,-4.5169,-4.5776,-4.6096,-4.6112,-4.6573,-4.6887,-4.7056,-4.7056,-4.7141,-4.731,-4.731,-4.731,-4.7361,-4.7936,-4.8173,-4.8223,-4.8812,-4.9107,-4.9199,-4.926,-4.935,-4.9488,-2.8249,-2.8387,-2.8411,-2.8387,-2.8387,-2.8842,-3.0125,-3.0371,-3.0848,-3.2151,-3.2367,-3.2398,-3.2398,-3.2398,-3.2398,-3.2398,-3.2967,-3.3352,-3.3398,-3.4481,-3.5126,-3.5095,-3.5501,-3.5653,-3.5504,-3.5829,-3.5894,-3.5688,-3.6006,-3.6179,-3.6196,-3.6068,-3.6053,-3.6196,-3.6211,-3.6211,-3.6211,-3.6414,-3.6492,-3.6492,-3.6492,-3.6492,-3.6492,-3.6492,-3.6492,-3.6492,-3.6492,-3.6492,-3.6492,-3.6492,-3.6492,-3.6492,-3.6492,-3.6492,-3.6492,-3.6492,-3.6492,-3.6492,-3.6492,-3.6492,-3.6492,-3.6492,-3.6492,-3.6492,-3.6492,-3.6492,-3.6507,-3.6553,-3.6569,-3.6569,-3.6569,-3.7076,-3.7018,-3.5438,0.0,0.0,-3.7079,-3.8424,-4.0261,-4.2401,-4.324,-4.4087,-4.5163,-4.5336,-4.5397,-4.5397,-4.5397,-4.5397,-4.5397,-4.5397,-4.5291,-4.5005,-4.514,-4.5347,-4.5647,-4.5965,-4.6294,-4.673,-4.6769,-4.7158,-4.7804,-4.7804,-4.8206,-4.8849,-4.8849,-4.8849,-4.8849,-4.89,-4.8934,-4.8934,-4.9121,-4.9199,-4.9229,-4.9411,-4.9488,-4.9471,-2.8273,-2.8411,-2.8411,-2.8411,-2.8411,-2.8858,-3.0202,-3.0402,-3.0863,-3.2213,-3.2398,-3.2398,-3.2398,-3.2398,-3.2398,-3.2398,-3.3013,-3.3583,-3.4058,-3.4772,-3.5355,-3.5689,-3.5679,-3.5735,-3.5797,-3.5941,-3.5973,-3.5894,-3.6116,-3.6196,-3.6196,-3.6068,-3.6132,-3.6383,-3.6274,-3.6274,-3.6383,-3.646,-3.6492,-3.6492,-3.6492,-3.6492,-3.6492,-3.6492,-3.6492,-3.6492,-3.6492,-3.6492,-3.6492,-3.6492,-3.6492,-3.6492,-3.6492,-3.6492,-3.6492,-3.6492,-3.6492,-3.6492,-3.6492,-3.6492,-3.6492,-3.6492,-3.6799,-3.7123,-3.7123,-3.7446,-3.7861,-3.8277,-3.8369,-3.8369,-3.8369,-3.8585,-3.8239,-3.6679,0.0,-3.8752,-3.8318,-3.9743,-4.1472,-4.3219,-4.3698,-4.4281,-4.531,-4.5397,-4.5397,-4.5397,-4.5397,-4.5397,-4.5397,-4.5684,-4.5751,-4.5557,-4.6056,-4.6124,-4.5703,-4.6804,-4.7386,-4.7496,-4.7953,-4.8308,-4.8595,-4.8595,-4.8748,-4.9001,-4.9001,-4.9001,-4.9001,-4.9001,-4.9001,-4.9001,-4.9063,-4.9094,-4.9094,-4.9155,-4.9185,-4.9185,-2.8319,-2.8411,-2.8411,-2.8411,-2.8581,-2.9119,-3.0217,-3.0571,-3.112,-3.2244,-3.2398,-3.2398,-3.2398,-3.2398,-3.2475,-3.269,-3.3336,-3.4044,-3.4782,-3.5308,-3.5737,-3.599,-3.5863,-3.5863,-3.6005,-3.6005,-3.6005,-3.6005,-3.6195,-3.6274,-3.6196,-3.6116,-3.6226,-3.6492,-3.6274,-3.6305,-3.6492,-3.6492,-3.6492,-3.6492,-3.6492,-3.6492,-3.6492,-3.6492,-3.6492,-3.6492,-3.6492,-3.6492,-3.6492,-3.6492,-3.6492,-3.6492,-3.6492,-3.6492,-3.6492,-3.6492,-3.6492,-3.6538,-3.6753,-3.6799,-3.6753,-3.6538,-3.6846,-3.723,-3.7446,-3.7861,-3.8385,-3.9062,-3.92,-3.92,-3.92,-3.9351,-3.9084,-3.7795,-3.9031,-4.0036,-3.9691,-4.1203,-4.2745,-4.3813,-4.4253,-4.4669,-4.5274,-4.5371,-4.5397,-4.5397,-4.5397,-4.5474,-4.5688,-4.5942,-4.6141,-4.6255,-4.6927,-4.6992,-4.6413,-4.7513,-4.8141,-4.8257,-4.8765,-4.9001,-4.9001,-4.9001,-4.9001,-4.9001,-4.9001,-4.9001,-4.9001,-4.9001,-4.9001,-4.9001,-4.9001,-4.9001,-4.9001,-4.9001,-4.9001,-4.9001,-2.8411,-2.8411,-2.8411,-2.8411,-2.8965,-2.9617,-3.0294,-3.0966,-3.1655,-3.2305,-3.2398,-3.2398,-3.2398,-3.2398,-3.2659,-3.3336,-3.406,-3.4797,-3.5475,-3.6122,-3.6367,-3.6005,-3.6005,-3.6005,-3.6005,-3.6005,-3.6005,-3.6005,-3.6336,-3.6383,-3.6196,-3.6196,-3.6305,-3.6492,-3.6274,-3.6305,-3.6492,-3.6492,-3.6492,-3.6492,-3.6492,-3.6492,-3.6492,-3.6492,-3.6492,-3.6492,-3.6492,-3.6492,-3.6492,-3.6492,-3.6492,-3.6492,-3.6492,-3.6492,-3.6492,-3.6492,-3.6492,-3.6645,-3.7323,-3.7507,-3.7338,-3.6676,-3.6507,-3.6692,-3.7353,-3.7523,-3.7707,-3.8385,-3.8523,-3.8523,-3.8523,-3.9077,-3.9308,-3.8631,-4.0264,-4.1531,-4.1336,-4.2875,-4.4117,-4.4474,-4.5015,-4.5344,-4.5203,-4.53,-4.5397,-4.5397,-4.5414,-4.5688,-4.6265,-4.6178,-4.6397,-4.6986,-4.759,-4.7889,-4.7889,-4.8039,-4.8395,-4.9001,-4.9001,-4.9001,-4.9001,-4.9001,-4.9001,-4.9001,-4.9001,-4.9001,-4.9001,-4.9001,-4.9001,-4.9001,-4.9001,-4.9001,-4.9001,-4.9001,-4.9001,-4.9001,-2.8411,-2.8411,-2.8411,-2.8411,-2.8965,-2.9617,-3.0294,-3.0966,-3.1655,-3.2305,-3.2398,-3.2398,-3.2398,-3.2398,-3.2475,-3.2675,-3.3812,-3.4998,-3.6122,-3.6384,-3.646,-3.6367,-3.6132,-3.61,-3.6336,-3.61,-3.61,-3.6367,-3.646,-3.646,-3.6414,-3.6274,-3.6305,-3.6492,-3.6274,-3.6305,-3.6492,-3.6492,-3.6492,-3.6492,-3.6492,-3.6492,-3.6492,-3.6492,-3.6492,-3.6492,-3.6492,-3.6492,-3.6492,-3.6492,-3.6492,-3.6492,-3.6492,-3.6492,-3.6492,-3.6492,-3.6492,-3.6645,-3.7323,-3.7507,-3.7569,-3.7846,-3.8262,-3.8677,-3.8877,-3.9277,-3.9644,-3.9844,-3.989,-3.989,-3.989,-4.0059,-4.0223,-4.0326,-4.1321,-4.2268,-4.2766,-4.3514,-4.4259,-4.4917,-4.4944,-4.4988,-4.5177,-4.53,-4.5397,-4.5397,-4.5914,-4.6202,-4.6161,-4.7159,-4.7697,-4.7623,-4.8291,-4.868,-4.868,-4.8711,-4.8812,-4.9001,-4.9001,-4.9001,-4.9001,-4.9001,-4.9001,-4.9001,-4.9001,-4.9001,-4.9001,-4.9001,-4.9001,-4.9001,-4.9001,-4.9001,-4.9001,-4.9001,-4.9001,-4.9001,-2.8411,-2.8411,-2.8488,-2.8765,-2.9341,-3.0017,-3.0705,-3.1366,-3.1921,-3.2336,-3.2398,-3.2398,-3.2398,-3.2398,-3.2613,-3.3167,-3.4505,-3.566,-3.6445,-3.6492,-3.6492,-3.6492,-3.6226,-3.6226,-3.6492,-3.6226,-3.6226,-3.6492,-3.6492,-3.6492,-3.6492,-3.6383,-3.6383,-3.6492,-3.6383,-3.6383,-3.6492,-3.6492,-3.6492,-3.6492,-3.6492,-3.6492,-3.6492,-3.6492,-3.6492,-3.6492,-3.6492,-3.6492,-3.6492,-3.6492,-3.6492,-3.6492,-3.6492,-3.6492,-3.6492,-3.6492,-3.6492,-3.6692,-3.7646,-3.7908,-3.8123,-3.9077,-3.9216,-3.9152,-3.9428,-3.9797,-4.0166,-4.0443,-4.0489,-4.0489,-4.0489,-4.0489,-4.0662,-4.1174,-4.1786,-4.2443,-4.3122,-4.3499,-4.3956,-4.4569,-4.4552,-4.4663,-4.5069,-4.5274,-4.5397,-4.5397,-4.6013,-4.6426,-4.6532,-4.767,-4.8307,-4.8342,-4.8781,-4.9001,-4.9001,-4.9001,-4.9001,-4.9001,-4.9001,-4.9001,-4.9001,-4.9001,-4.9001,-4.9001,-4.9001,-4.9001,-4.9001,-4.9001,-4.9001,-4.9001,-4.9001,-4.9001,-4.9001,-4.9001,-4.9001,-4.9001,-2.8411,-2.8411,-2.8611,-2.9279,-2.994,-3.0617,-3.1289,-3.1967,-3.2398,-3.2398,-3.2398,-3.2398,-3.2398,-3.2444,-3.3026,-3.4289,-3.5614,-3.643,-3.6492,-3.6492,-3.6492,-3.6492,-3.6305,-3.6305,-3.6492,-3.6305,-3.6305,-3.6492,-3.6492,-3.6492,-3.6492,-3.6492,-3.6492,-3.6492,-3.6492,-3.6492,-3.6492,-3.6492,-3.6492,-3.6492,-3.6492,-3.6492,-3.6492,-3.6492,-3.6492,-3.6492,-3.6492,-3.6492,-3.6492,-3.6492,-3.6492,-3.6492,-3.6492,-3.6492,-3.6507,-3.6569,-3.6584,-3.6876,-3.8231,-3.86,-3.8908,-4.0166,-3.9567,-3.8846,-3.9428,-3.9582,-3.9751,-4.0366,-4.0558,-4.0593,-4.0524,-4.0558,-4.0768,-4.1376,-4.1819,-4.2238,-4.2754,-4.3139,-4.3486,-4.3839,-4.4123,-4.4479,-4.4934,-4.522,-4.5397,-4.5397,-4.5901,-4.6487,-4.7153,-4.7826,-4.8442,-4.8984,-4.9001,-4.9001,-4.9001,-4.9001,-4.9001,-4.9001,-4.9001,-4.9001,-4.9001,-4.9001,-4.9001,-4.9001,-4.9001,-4.9001,-4.9001,-4.9001,-4.9001,-4.9001,-4.9001,-4.9001,-4.9001,-4.9001,-4.9001,-4.9001,-2.8411,-2.8411,-2.8611,-2.9279,-2.994,-3.0617,-3.1289,-3.1967,-3.2398,-3.2398,-3.2398,-3.2398,-3.2398,-3.2859,-3.3306,-3.3598,-3.4891,-3.5922,-3.6461,-3.6492,-3.6492,-3.6492,-3.646,-3.646,-3.6492,-3.6305,-3.6305,-3.6492,-3.6492,-3.6492,-3.6492,-3.6492,-3.6492,-3.6492,-3.6492,-3.6492,-3.6492,-3.6492,-3.6492,-3.6492,-3.6492,-3.6492,-3.6492,-3.6492,-3.6492,-3.6492,-3.6492,-3.6492,-3.6492,-3.6492,-3.6492,-3.6492,-3.6492,-3.6492,-3.6599,-3.7123,-3.7277,-3.7584,-3.8939,-3.9259,-3.9459,-4.029,-4.0274,-4.009,-4.0243,-4.0274,-4.032,-4.0459,-4.0938,-4.1125,-4.0593,-4.0938,-4.1243,-4.1207,-4.1557,-4.219,-4.3064,-4.3588,-4.4042,-4.4519,-4.4807,-4.4998,-4.5005,-4.514,-4.5274,-4.5397,-4.6364,-4.7016,-4.7187,-4.832,-4.8968,-4.9001,-4.9001,-4.9001,-4.9001,-4.9001,-4.9001,-4.9001,-4.9001,-4.9001,-4.9001,-4.9001,-4.9001,-4.9001,-4.9001,-4.9001,-4.9001,-4.9001,-4.9001,-4.9001,-4.9001,-4.9001,-4.9001,-4.9001,-4.9001,-4.9001,-2.8411,-2.8411,-2.8719,-2.9694,-3.0156,-3.0725,-3.172,-3.2167,-3.2398,-3.2398,-3.2398,-3.2398,-3.2398,-3.2705,-3.3183,-3.386,-3.5168,-3.6122,-3.6476,-3.6492,-3.6492,-3.6492,-3.6492,-3.6492,-3.6492,-3.6383,-3.6383,-3.6492,-3.6492,-3.6492,-3.6492,-3.6492,-3.6492,-3.6492,-3.6492,-3.6492,-3.6492,-3.6492,-3.6492,-3.6492,-3.6492,-3.6492,-3.6492,-3.6492,-3.6492,-3.6492,-3.6492,-3.6492,-3.6492,-3.6492,-3.6492,-3.6492,-3.6492,-3.6492,-3.663,-3.7292,-3.7507,-3.78,-3.9154,-3.949,-3.9644,-4.032,-4.0489,-4.0489,-4.0489,-4.0489,-4.0578,-4.0904,-4.099,-4.1024,-4.099,-4.099,-4.1192,-4.1705,-4.1965,-4.2443,-4.329,-4.3601,-4.3881,-4.4145,-4.444,-4.4763,-4.5069,-4.5113,-4.5167,-4.53,-4.6379,-4.706,-4.7187,-4.8413,-4.9063,-4.9001,-4.9001,-4.9001,-4.9001,-4.9001,-4.9001,-4.9001,-4.9001,-4.9001,-4.9001,-4.9001,-4.9001,-4.9001,-4.9001,-4.9001,-4.9001,-4.9001,-4.9001,-4.9001,-4.9001,-4.9001,-4.9001,-4.9001,-4.9001,-4.9001,-2.8411,-2.8488,-2.8965,-3.0186,-3.0494,-3.0997,-3.2213,-3.2398,-3.2398,-3.2398,-3.2398,-3.2398,-3.2398,-3.2598,-3.3306,-3.472,-3.5845,-3.6492,-3.6492,-3.6492,-3.6492,-3.6492,-3.6492,-3.6492,-3.6492,-3.6492,-3.6492,-3.6492,-3.6492,-3.6492,-3.6492,-3.6492,-3.6492,-3.6492,-3.6492,-3.6492,-3.6492,-3.6492,-3.6492,-3.6492,-3.6492,-3.6492,-3.6492,-3.6492,-3.6492,-3.6492,-3.6492,-3.6492,-3.6492,-3.6492,-3.6492,-3.6492,-3.6492,-3.6492,-3.6645,-3.7446,-3.7677,-3.7969,-3.929,-3.9659,-3.9782,-4.0351,-4.0489,-4.0524,-4.0646,-4.0681,-4.0817,-4.1243,-4.1057,-4.0972,-4.1426,-4.1142,-4.1209,-4.2332,-4.252,-4.2738,-4.3423,-4.3512,-4.3542,-4.3676,-4.3968,-4.444,-4.5123,-4.5086,-4.5083,-4.5356,-4.6266,-4.6954,-4.7317,-4.8408,-4.9001,-4.9001,-4.9001,-4.9001,-4.9001,-4.9001,-4.9001,-4.9001,-4.8861,-4.8861,-4.9001,-4.9001,-4.9001,-4.9001,-4.9001,-4.9001,-4.9001,-4.9001,-4.9001,-4.9001,-4.9001,-4.9001,-4.9001,-4.9001,-4.9001,-4.9001,-2.8411,-2.8873,-2.9494,-3.0263,-3.0889,-3.1505,-3.2275,-3.2398,-3.2398,-3.2398,-3.2398,-3.2398,-3.2398,-3.3503,-3.4767,-3.6107,-3.6384,-3.6492,-3.6492,-3.6492,-3.6492,-3.6492,-3.6492,-3.6492,-3.6492,-3.6492,-3.6492,-3.6492,-3.6492,-3.6492,-3.6492,-3.6492,-3.6492,-3.6492,-3.6492,-3.6492,-3.6492,-3.6492,-3.6492,-3.6492,-3.6492,-3.6492,-3.6492,-3.6492,-3.6492,-3.6492,-3.6492,-3.6492,-3.6492,-3.6492,-3.6492,-3.6492,-3.6492,-3.6492,-3.6738,-3.8,-3.8369,-3.8677,-3.9982,-4.0351,-4.0382,-4.0474,-4.0489,-4.0646,-4.1243,-4.136,-4.1243,-4.0749,-4.1492,-4.2078,-4.1575,-4.1901,-4.23,-4.2489,-4.252,-4.2738,-4.3423,-4.3512,-4.3752,-4.4384,-4.4703,-4.4961,-4.5177,-4.5086,-4.5279,-4.5945,-4.6486,-4.7145,-4.7954,-4.8636,-4.9001,-4.9001,-4.9001,-4.9001,-4.9001,-4.9001,-4.9001,-4.9001,-4.8338,-4.837,-4.9001,-4.9001,-4.9001,-4.9001,-4.9001,-4.9001,-4.9001,-4.9001,-4.9001,-4.9001,-4.9001,-4.9001,-4.9001,-4.9001,-4.9001,-4.9001,-2.8411,-2.8642,-2.9231,-3.0417,-3.0877,-3.1435,-3.2505,-3.2676,-3.2621,-3.2425,-3.2398,-3.2398,-3.2398,-3.3673,-3.489,-3.5845,-3.6276,-3.6492,-3.6492,-3.6492,-3.6492,-3.6492,-3.6492,-3.6492,-3.6492,-3.6492,-3.6492,-3.6492,-3.6492,-3.6492,-3.6492,-3.6492,-3.6492,-3.6492,-3.6492,-3.6492,-3.6492,-3.6492,-3.6492,-3.6492,-3.6492,-3.6492,-3.6492,-3.6492,-3.6492,-3.6492,-3.6492,-3.6492,-3.6492,-3.6492,-3.6492,-3.6492,-3.6492,-3.6753,-3.7246,-3.8231,-3.8785,-3.9259,-4.0228,-4.0489,-4.0489,-4.0489,-4.0489,-4.0593,-4.087,-4.1243,-4.1525,-4.1608,-4.1492,-4.1393,-4.1492,-4.1426,-4.1624,-4.2395,-4.252,-4.2862,-4.3943,-4.4105,-4.4265,-4.4665,-4.4803,-4.4913,-4.4951,-4.4923,-4.5192,-4.5931,-4.6479,-4.7166,-4.8031,-4.8657,-4.9001,-4.9001,-4.9001,-4.9001,-4.9001,-4.9001,-4.8798,-4.837,-4.8064,-4.8064,-4.837,-4.837,-4.8604,-4.9004,-4.9015,-4.9238,-4.9576,-4.9171,-4.9001,-4.9001,-4.9001,-4.9001,-4.9001,-4.9001,-4.9255,-4.961]},{"header":{"parameterUnit":"m.s-1","parameterCategory":1,"la1":30.6,"la2":28.766,"lo1":-90.7593,"lo2":-88.6598,"dy":0.0162,"dx":0.0183,"nx":116,"ny":114,"refTime":"2023-11-07T06:00:00:Z","depth":0,"parameterNumber":3,"parameterNumberName":"V-component_of_WINDS"},"data":[0.0,0.0,0.0,0.0,0.0,0.0,0.0,0.0,0.0,0.0,0.0,0.0,0.0,0.0,0.0,0.0,0.0,0.0,0.0,0.0,0.0,0.0,0.0,0.0,0.0,0.0,0.0,0.0,0.0,0.0,0.0,0.0,0.0,0.0,0.0,0.0,0.0,0.0,0.0,0.0,0.0,0.0,0.0,0.0,0.0,0.0,0.0,0.0,0.0,0.0,0.0,0.0,0.0,0.0,0.0,0.0,0.0,0.0,0.0,0.0,0.0,0.0,0.0,0.0,0.0,0.0,0.0,0.0,0.0,0.0,0.0,0.0,0.0,0.0,0.0,0.0,0.0,0.0,0.0,0.0,0.0,0.0,0.0,0.0,0.0,0.0,0.0,0.0,0.0,0.0,0.0,0.0,0.0,0.0,0.0,0.0,0.0,0.0,0.0,0.0,0.0,0.0,0.0,0.0,0.0,0.0,0.0,0.0,0.0,0.0,0.0,0.0,0.0,0.0,0.0,0.0,0.0,0.0,0.0,0.0,0.0,0.0,0.0,0.0,0.0,0.0,0.0,0.0,0.0,0.0,0.0,0.0,0.0,0.0,0.0,0.0,0.0,0.0,0.0,0.0,0.0,0.0,0.0,0.0,0.0,0.0,0.0,0.0,0.0,0.0,0.0,0.0,0.0,0.0,0.0,0.0,0.0,0.0,0.0,0.0,0.0,0.0,0.0,0.0,0.0,0.0,0.0,0.0,0.0,0.0,0.0,0.0,0.0,0.0,0.0,0.0,0.0,0.0,0.0,0.0,0.0,0.0,0.0,0.0,0.0,0.0,0.0,0.0,0.0,0.0,0.0,0.0,0.0,0.0,0.0,0.0,0.0,0.0,0.0,0.0,0.0,0.0,0.0,0.0,0.0,0.0,0.0,0.0,0.0,0.0,0.0,0.0,0.0,0.0,0.0,0.0,0.0,0.0,0.0,0.0,0.0,0.0,0.0,0.0,0.0,0.0,0.0,0.0,0.0,0.0,0.0,0.0,0.0,0.0,0.0,0.0,0.0,0.0,0.0,0.0,0.0,0.0,0.0,0.0,0.0,0.0,0.0,0.0,0.0,0.0,0.0,0.0,0.0,0.0,0.0,0.0,0.0,0.0,0.0,0.0,0.0,0.0,0.0,0.0,0.0,0.0,0.0,0.0,0.0,0.0,0.0,0.0,0.0,0.0,0.0,0.0,0.0,0.0,0.0,0.0,0.0,0.0,0.0,0.0,0.0,0.0,0.0,0.0,0.0,0.0,0.0,0.0,0.0,0.0,0.0,0.0,0.0,0.0,0.0,0.0,0.0,0.0,0.0,0.0,0.0,0.0,0.0,0.0,0.0,0.0,0.0,0.0,0.0,0.0,0.0,0.0,0.0,0.0,0.0,0.0,0.0,0.0,0.0,0.0,0.0,0.0,0.0,0.0,0.0,0.0,0.0,0.0,0.0,0.0,0.0,0.0,0.0,0.0,0.0,0.0,0.0,0.0,0.0,0.0,0.0,0.0,0.0,0.0,0.0,0.0,0.0,0.0,0.0,0.0,0.0,0.0,0.0,0.0,0.0,0.0,0.0,0.0,0.0,0.0,0.0,0.0,0.0,0.0,0.0,0.0,0.0,0.0,0.0,0.0,0.0,0.0,0.0,0.0,0.0,0.0,0.0,0.0,0.0,0.0,0.0,0.0,0.0,0.0,0.0,0.0,0.0,0.0,0.0,0.0,0.0,0.0,0.0,0.0,0.0,0.0,0.0,0.0,0.0,0.0,0.0,0.0,0.0,0.0,0.0,0.0,0.0,0.0,0.0,0.0,0.0,0.0,0.0,0.0,0.0,0.0,0.0,0.0,0.0,0.0,0.0,0.0,0.0,0.0,0.0,0.0,0.0,0.0,0.0,0.0,0.0,0.0,0.0,0.0,0.0,0.0,0.0,0.0,0.0,0.0,0.0,0.0,0.0,0.0,0.0,0.0,0.0,0.0,0.0,0.0,0.0,0.0,0.0,0.0,0.0,0.0,0.0,0.0,0.0,0.0,0.0,0.0,0.0,0.0,0.0,0.0,0.0,0.0,0.0,0.0,0.0,0.0,0.0,0.0,0.0,0.0,0.0,0.0,0.0,0.0,0.0,0.0,0.0,0.0,0.0,0.0,0.0,0.0,0.0,0.0,0.0,0.0,0.0,0.0,0.0,0.0,0.0,0.0,0.0,0.0,0.0,0.0,0.0,0.0,0.0,0.0,0.0,0.0,0.0,0.0,0.0,0.0,0.0,0.0,0.0,0.0,0.0,0.0,0.0,0.0,0.0,0.0,0.0,0.0,0.0,0.0,0.0,0.0,0.0,0.0,0.0,0.0,0.0,0.0,0.0,0.0,0.0,0.0,0.0,0.0,0.0,0.0,0.0,0.0,0.0,0.0,0.0,0.0,0.0,0.0,0.0,0.0,0.0,0.0,0.0,0.0,0.0,0.0,0.0,0.0,0.0,0.0,0.0,0.0,0.0,0.0,0.0,0.0,0.0,0.0,0.0,0.0,0.0,0.0,0.0,0.0,0.0,0.0,0.0,0.0,0.0,0.0,0.0,0.0,0.0,0.0,0.0,0.0,0.0,0.0,0.0,0.0,0.0,0.0,0.0,0.0,0.0,0.0,0.0,0.0,0.0,0.0,0.0,0.0,0.0,0.0,0.0,0.0,0.0,0.0,0.0,0.0,0.0,0.0,0.0,0.0,0.0,0.0,0.0,0.0,0.0,0.0,0.0,0.0,0.0,0.0,0.0,0.0,0.0,0.0,0.0,0.0,0.0,0.0,0.0,0.0,0.0,0.0,0.0,0.0,0.0,0.0,0.0,0.0,0.0,0.0,0.0,0.0,0.0,0.0,0.0,0.0,0.0,0.0,0.0,0.0,0.0,0.0,0.0,0.0,0.0,0.0,0.0,0.0,0.0,0.0,0.0,0.0,0.0,0.0,0.0,0.0,0.0,0.0,0.0,0.0,0.0,0.0,0.0,0.0,0.0,0.0,0.0,0.0,0.0,0.0,0.0,0.0,0.0,0.0,0.0,0.0,0.0,0.0,0.0,0.0,0.0,0.0,0.0,0.0,0.0,0.0,0.0,0.0,0.0,0.0,0.0,0.0,0.0,0.0,0.0,0.0,0.0,0.0,0.0,0.0,0.0,0.0,0.0,0.0,0.0,0.0,0.0,0.0,0.0,0.0,0.0,0.0,0.0,0.0,0.0,0.0,0.0,0.0,0.0,0.0,0.0,0.0,0.0,0.0,0.0,0.0,0.0,0.0,0.0,0.0,0.0,0.0,0.0,0.0,0.0,0.0,0.0,0.0,0.0,0.0,0.0,0.0,0.0,0.0,0.0,0.0,0.0,0.0,0.0,0.0,0.0,0.0,0.0,0.0,0.0,0.0,0.0,0.0,0.0,0.0,0.0,0.0,0.0,0.0,0.0,0.0,0.0,0.0,0.0,0.0,0.0,0.0,0.0,0.0,0.0,0.0,0.0,0.0,0.0,0.0,0.0,0.0,0.0,0.0,0.0,0.0,0.0,0.0,0.0,0.0,0.0,0.0,0.0,0.0,0.0,0.0,0.0,0.0,0.0,0.0,0.0,0.0,0.0,0.0,0.0,0.0,0.0,0.0,0.0,0.0,0.0,0.0,0.0,0.0,0.0,0.0,0.0,0.0,0.0,0.0,0.0,0.0,0.0,0.0,0.0,0.0,0.0,0.0,0.0,0.0,0.0,0.0,0.0,0.0,0.0,0.0,0.0,0.0,0.0,0.0,0.0,0.0,0.0,0.0,0.0,0.0,0.0,0.0,0.0,0.0,0.0,0.0,0.0,0.0,0.0,0.0,0.0,0.0,0.0,0.0,0.0,0.0,0.0,0.0,0.0,0.0,0.0,0.0,0.0,0.0,0.0,0.0,0.0,0.0,0.0,0.0,0.0,0.0,0.0,0.0,0.0,0.0,0.0,0.0,0.0,0.0,0.0,0.0,0.0,0.0,0.0,0.0,0.0,0.0,0.0,0.0,0.0,0.0,0.0,0.0,0.0,0.0,0.0,0.0,0.0,0.0,0.0,0.0,0.0,0.0,0.0,0.0,0.0,0.0,0.0,0.0,0.0,0.0,0.0,0.0,0.0,0.0,0.0,0.0,0.0,0.0,0.0,0.0,0.0,0.0,0.0,0.0,0.0,0.0,0.0,0.0,0.0,0.0,0.0,0.0,0.0,0.0,0.0,0.0,0.0,0.0,0.0,0.0,0.0,0.0,0.0,0.0,0.0,0.0,0.0,0.0,0.0,0.0,0.0,0.0,0.0,0.0,0.0,0.0,0.0,0.0,0.0,0.0,0.0,0.0,0.0,0.0,0.0,0.0,0.0,0.0,0.0,0.0,0.0,0.0,0.0,0.0,0.0,0.0,0.0,0.0,0.0,0.0,0.0,0.0,0.0,0.0,0.0,0.0,0.0,0.0,0.0,0.0,0.0,0.0,0.0,0.0,0.0,0.0,0.0,0.0,0.0,0.0,0.0,0.0,0.0,0.0,0.0,0.0,0.0,0.0,0.0,0.0,0.0,0.0,0.0,0.0,0.0,0.0,0.0,0.0,0.0,0.0,0.0,0.0,0.0,0.0,0.0,0.0,0.0,0.0,0.0,0.0,0.0,0.0,0.0,0.0,0.0,0.0,0.0,0.0,0.0,0.0,0.0,0.0,0.0,0.0,0.0,0.0,0.0,0.0,0.0,0.0,0.0,0.0,0.0,0.0,0.0,0.0,0.0,0.0,0.0,0.0,0.0,0.0,0.0,0.0,0.0,0.0,0.0,0.0,0.0,0.0,0.0,0.0,0.0,0.0,0.0,0.0,0.0,0.0,0.0,0.0,0.0,0.0,0.0,0.0,0.0,0.0,0.0,0.0,0.0,0.0,0.0,0.0,0.0,0.0,0.0,0.0,0.0,0.0,0.0,0.0,0.0,0.0,0.0,0.0,0.0,0.0,0.0,0.0,0.0,0.0,0.0,0.0,0.0,0.0,0.0,0.0,0.0,0.0,0.0,0.0,0.0,0.0,0.0,0.0,0.0,0.0,0.0,0.0,0.0,0.0,0.0,0.0,0.0,0.0,0.0,0.0,0.0,0.0,0.0,0.0,0.0,0.0,0.0,0.0,0.0,0.0,0.0,0.0,0.0,0.0,0.0,0.0,0.0,0.0,0.0,0.0,0.0,0.0,0.0,0.0,0.0,0.0,0.0,0.0,0.0,0.0,0.0,0.0,0.0,0.0,0.0,0.0,0.0,0.0,0.0,0.0,0.0,0.0,0.0,0.0,0.0,0.0,0.0,0.0,0.0,0.0,0.0,0.0,0.0,0.0,0.0,0.0,0.0,0.0,0.0,0.0,0.0,0.0,0.0,0.0,0.0,0.0,0.0,0.0,0.0,0.0,0.0,0.0,0.0,0.0,0.0,0.0,0.0,0.0,0.0,0.0,0.0,0.0,0.0,0.0,0.0,0.0,0.0,0.0,0.0,0.0,0.0,0.0,0.0,0.0,0.0,0.0,0.0,0.0,0.0,0.0,0.0,0.0,0.0,0.0,0.0,0.0,0.0,0.0,0.0,0.0,0.0,0.0,0.0,0.0,0.0,0.0,0.0,0.0,0.0,0.0,0.0,0.0,0.0,0.0,0.0,0.0,0.0,0.0,0.0,0.0,0.0,0.0,0.0,0.0,0.0,0.0,0.0,0.0,0.0,0.0,0.0,0.0,0.0,0.0,0.0,0.0,0.0,0.0,0.0,0.0,0.0,0.0,0.0,0.0,0.0,0.0,0.0,0.0,0.0,0.0,0.0,0.0,0.0,0.0,0.0,0.0,0.0,0.0,0.0,0.0,0.0,0.0,0.0,0.0,0.0,0.0,0.0,0.0,0.0,0.0,0.0,0.0,0.0,0.0,0.0,0.0,0.0,0.0,0.0,0.0,0.0,0.0,0.0,0.0,0.0,0.0,0.0,0.0,0.0,0.0,0.0,0.0,0.0,0.0,0.0,0.0,0.0,0.0,0.0,0.0,0.0,0.0,0.0,0.0,0.0,0.0,1.9045,0.0,0.0,0.0,0.0,0.0,0.0,0.0,0.0,0.0,0.0,0.0,0.0,0.0,0.0,0.0,0.0,0.0,0.0,0.0,0.0,0.0,0.0,0.0,0.0,0.0,0.0,0.0,0.0,0.0,0.0,0.0,0.0,0.0,0.0,0.0,0.0,0.0,0.0,0.0,2.5817,2.6448,2.6823,2.5959,2.5549,2.5556,0.0,0.0,0.0,0.0,0.0,0.0,0.0,0.0,0.0,0.0,0.0,0.0,0.0,0.0,0.0,0.0,0.0,0.0,0.0,0.0,0.0,0.0,0.0,0.0,0.0,0.0,0.0,0.0,0.0,0.0,0.0,0.0,0.0,0.0,0.0,0.0,0.0,0.0,0.0,0.0,0.0,0.0,0.0,0.0,0.0,0.0,0.0,0.0,0.0,0.0,0.0,0.0,0.0,0.0,0.0,0.0,0.0,0.0,0.0,0.0,0.0,0.0,0.0,0.0,0.0,0.0,0.0,0.0,0.0,0.0,0.0,1.9105,0.0,0.0,0.0,0.0,0.0,0.0,0.0,0.0,0.0,0.0,0.0,0.0,0.0,0.0,0.0,0.0,0.0,0.0,0.0,0.0,0.0,0.0,0.0,0.0,0.0,0.0,0.0,0.0,0.0,0.0,0.0,0.0,0.0,0.0,0.0,0.0,0.0,2.591,2.6862,2.7149,2.6795,2.6362,2.6184,2.6158,2.5623,0.0,0.0,0.0,0.0,0.0,0.0,0.0,0.0,0.0,0.0,0.0,0.0,0.0,0.0,0.0,0.0,0.0,0.0,0.0,0.0,0.0,0.0,0.0,0.0,0.0,0.0,0.0,0.0,0.0,0.0,0.0,0.0,0.0,0.0,0.0,0.0,0.0,0.0,0.0,0.0,0.0,0.0,0.0,0.0,0.0,0.0,0.0,0.0,0.0,0.0,0.0,0.0,0.0,0.0,0.0,0.0,0.0,0.0,0.0,0.0,0.0,0.0,0.0,1.9389,1.9138,1.9217,1.935,1.9628,1.9999,2.0049,2.0359,2.0699,1.9118,0.0,0.0,0.0,0.0,0.0,0.0,0.0,0.0,0.0,0.0,0.0,0.0,0.0,0.0,0.0,0.0,0.0,0.0,0.0,0.0,0.0,0.0,0.0,0.0,0.0,0.0,0.0,0.0,0.0,0.0,0.0,0.0,0.0,2.5175,2.599,2.6749,2.832,2.8289,2.6838,2.8227,2.8884,2.8773,2.6436,2.5818,2.6467,0.0,0.0,0.0,0.0,0.0,0.0,0.0,0.0,0.0,0.0,0.0,0.0,0.0,0.0,0.0,0.0,0.0,0.0,0.0,0.0,0.0,0.0,0.0,0.0,0.0,0.0,0.0,0.0,0.0,0.0,0.0,0.0,0.0,0.0,0.0,0.0,0.0,0.0,0.0,0.0,0.0,2.099,2.183,0.0,0.0,0.0,0.0,0.0,0.0,0.0,0.0,0.0,0.0,0.0,0.0,0.0,1.951,2.1154,2.0845,2.1569,2.3373,2.2576,2.2436,2.2796,2.2431,2.2287,2.2309,2.1461,0.0,2.1236,2.0376,0.0,0.0,0.0,0.0,0.0,0.0,0.0,0.0,0.0,0.0,0.0,0.0,0.0,0.0,0.0,0.0,0.0,0.0,0.0,0.0,0.0,0.0,0.0,0.0,0.0,0.0,0.0,0.0,0.0,0.0,0.0,0.0,2.4261,2.5109,2.667,2.8985,2.9255,2.9492,2.9673,2.9945,3.0079,3.0012,2.8846,2.7989,2.7376,2.64,0.0,0.0,0.0,0.0,0.0,0.0,0.0,0.0,0.0,0.0,0.0,0.0,0.0,0.0,0.0,0.0,0.0,0.0,0.0,0.0,0.0,0.0,0.0,0.0,0.0,0.0,0.0,0.0,0.0,0.0,0.0,0.0,0.0,0.0,0.0,0.0,0.0,0.0,0.0,2.1573,2.1996,2.242,2.2301,2.2209,0.0,0.0,0.0,0.0,0.0,0.0,0.0,0.0,0.0,2.0154,2.0153,2.0805,2.2124,2.2364,2.2736,2.3276,2.3098,2.3132,2.3321,2.2925,2.3068,2.3589,2.2732,2.2496,2.2619,2.0938,2.0036,1.964,0.0,0.0,0.0,0.0,1.834,1.8857,0.0,0.0,0.0,0.0,0.0,0.0,0.0,0.0,0.0,0.0,0.0,0.0,0.0,0.0,0.0,2.5831,0.0,0.0,0.0,0.0,0.0,0.0,0.0,2.3957,2.3919,2.5582,2.7692,3.0277,3.0342,3.0998,3.2205,3.177,3.1794,3.2193,3.1748,3.0477,2.8586,2.7455,2.6515,2.5736,0.0,0.0,0.0,0.0,0.0,0.0,0.0,0.0,0.0,0.0,0.0,0.0,0.0,0.0,0.0,0.0,0.0,0.0,0.0,0.0,0.0,0.0,0.0,0.0,0.0,0.0,0.0,0.0,0.0,0.0,0.0,0.0,0.0,0.0,0.0,0.0,0.0,2.2293,2.2748,2.2811,2.2768,2.2688,0.0,0.0,0.0,0.0,0.0,0.0,2.1433,2.0767,2.0828,2.1815,2.1874,2.235,2.3283,2.3931,2.4084,2.3777,2.3915,2.3974,2.3958,2.3426,2.3713,2.4588,2.3691,2.3477,2.3604,2.1649,2.0562,2.0099,1.9828,1.9473,1.9088,1.9072,1.964,2.0272,0.0,0.0,0.0,0.0,0.0,0.0,0.0,0.0,0.0,0.0,0.0,0.0,0.0,0.0,2.6737,2.674,2.6826,2.6531,0.0,0.0,0.0,2.2062,2.2682,2.3001,2.2878,2.6919,2.9135,2.9369,3.1813,3.3027,3.3054,3.3833,3.506,3.6514,3.4853,3.2758,3.0361,2.851,2.7608,2.7235,2.5437,0.0,0.0,0.0,0.0,0.0,0.0,0.0,0.0,0.0,0.0,0.0,0.0,0.0,0.0,0.0,0.0,0.0,0.0,0.0,0.0,0.0,0.0,0.0,0.0,0.0,0.0,0.0,0.0,0.0,0.0,0.0,0.0,0.0,0.0,0.0,0.0,0.0,0.0,2.2589,2.3503,0.0,0.0,0.0,0.0,2.2291,2.2014,2.2233,2.3129,2.2534,2.2603,2.3536,2.3688,2.4128,2.4886,2.5438,2.6036,2.6686,2.6236,2.6051,2.5998,2.4972,2.4881,2.5458,2.414,2.3593,2.3573,2.2859,2.2587,2.2512,2.1579,2.1226,2.1233,2.1159,2.119,2.137,0.0,0.0,0.0,0.0,0.0,0.0,0.0,0.0,0.0,0.0,0.0,0.0,0.0,2.7179,2.7719,2.7764,2.8304,2.8275,2.7382,0.0,0.0,2.4218,2.2897,2.2901,2.4509,2.7634,3.008,3.1753,3.3805,3.4966,3.5315,3.6188,3.6803,3.7181,3.6561,3.5211,3.3199,3.0629,2.8799,2.7523,2.6289,2.4865,0.0,0.0,0.0,0.0,0.0,0.0,0.0,0.0,0.0,0.0,0.0,0.0,0.0,0.0,0.0,0.0,0.0,0.0,0.0,0.0,0.0,0.0,0.0,0.0,0.0,0.0,0.0,0.0,0.0,0.0,0.0,0.0,0.0,0.0,0.0,0.0,0.0,2.3915,2.4702,0.0,2.4627,2.4356,2.4092,2.3873,2.4008,2.4223,2.4569,2.4762,2.4913,2.4983,2.5331,2.5499,2.5499,2.6054,2.6245,2.6085,2.6334,2.6475,2.6421,2.561,2.5615,2.6183,2.5285,2.4896,2.4874,2.4645,2.3579,2.2099,2.2176,2.235,2.2567,2.2528,2.3247,2.4241,0.0,0.0,0.0,0.0,0.0,0.0,0.0,0.0,0.0,0.0,0.0,2.6335,2.7279,2.8393,2.9104,2.914,2.9416,2.8972,2.7515,0.0,0.0,2.3802,2.2949,2.3833,2.6729,2.8965,3.12,3.3392,3.4851,3.5996,3.6851,3.7425,3.7885,3.8221,3.7926,3.7195,3.598,3.3421,3.0825,2.8294,2.7437,2.5751,2.3833,0.0,0.0,0.0,0.0,0.0,0.0,0.0,0.0,0.0,0.0,0.0,0.0,0.0,0.0,0.0,0.0,0.0,0.0,0.0,0.0,0.0,0.0,0.0,0.0,0.0,0.0,0.0,0.0,0.0,0.0,0.0,0.0,0.0,0.0,0.0,2.4457,2.5321,2.623,2.6628,2.613,2.5826,2.5539,2.5237,2.5604,2.5867,2.5867,2.6277,2.6413,2.6146,2.6481,2.6528,2.6211,2.6748,2.6756,2.6273,2.6746,2.6941,2.6926,2.6243,2.6303,2.6896,2.5989,2.5734,2.5944,2.5944,2.4777,2.3056,2.349,2.3805,2.4003,2.4003,2.4771,2.5734,0.0,0.0,0.0,0.0,0.0,0.0,0.0,0.0,0.0,0.0,2.6365,2.7279,2.8242,2.9805,3.08,3.08,3.0061,2.8491,2.5914,2.3951,0.0,2.0552,2.2832,2.5764,2.922,3.0926,3.25,3.3983,3.4887,3.6074,3.7471,3.7509,3.8365,3.9832,3.8986,3.8603,3.8466,3.6778,3.3666,2.9803,2.8891,2.7242,2.535,0.0,0.0,0.0,0.0,0.0,0.0,0.0,0.0,0.0,0.0,0.0,0.0,0.0,0.0,0.0,0.0,0.0,0.0,0.0,0.0,0.0,0.0,0.0,0.0,0.0,0.0,0.0,0.0,0.0,0.0,0.0,0.0,0.0,2.4101,2.5614,2.6625,2.6676,2.8058,2.8372,2.6684,2.7232,2.7288,2.6367,2.6798,2.7087,2.7056,2.7056,2.7072,2.7087,2.7187,2.7222,2.7085,2.7569,2.7771,2.763,2.76,2.76,2.757,2.6941,2.7001,2.7525,2.6228,2.6033,2.6641,2.6641,2.6243,2.5674,2.5644,2.563,2.563,2.563,2.5636,2.5674,0.0,0.0,0.0,0.0,0.0,0.0,0.0,0.0,0.0,0.0,2.6407,2.7556,2.9084,3.0177,3.08,3.08,3.0012,2.8691,2.6699,0.0,0.0,2.2224,2.5734,2.8133,2.9052,3.1891,3.3532,3.3856,3.5269,3.6368,3.7157,3.7783,3.8526,3.9313,3.9075,3.8633,3.8059,3.758,3.6031,3.3743,3.1948,2.927,2.6448,0.0,0.0,0.0,0.0,0.0,0.0,0.0,0.0,0.0,0.0,0.0,0.0,0.0,0.0,0.0,0.0,0.0,0.0,0.0,0.0,0.0,0.0,0.0,0.0,0.0,0.0,0.0,0.0,0.0,0.0,0.0,0.0,2.5145,2.5327,2.6326,2.7359,2.8244,2.9154,2.9572,2.9179,2.9367,2.9138,2.8307,2.8776,2.885,2.8247,2.8451,2.8711,2.8951,2.8786,2.8824,2.9048,2.8602,2.8349,2.8308,2.7839,2.76,2.7585,2.7405,2.742,2.757,2.721,2.7151,2.733,2.733,2.7225,2.7001,2.6497,2.6318,2.6318,2.6318,2.6617,2.6986,0.0,0.0,0.0,0.0,0.0,0.0,0.0,0.0,0.0,0.0,2.6722,2.8039,2.9457,3.0313,3.0804,3.0792,2.9334,2.7675,2.5929,0.0,2.3721,2.5417,2.8124,3.0244,3.1616,3.3803,3.4999,3.5135,3.6083,3.6818,3.738,3.791,3.8482,3.9101,3.9101,3.8841,3.8395,3.8395,3.7585,3.6181,3.4939,3.2348,2.9314,2.9754,2.8664,2.7028,2.7781,2.7649,2.7082,2.6869,0.0,0.0,0.0,0.0,0.0,0.0,0.0,0.0,0.0,0.0,0.0,0.0,0.0,0.0,0.0,0.0,0.0,0.0,0.0,0.0,0.0,0.0,0.0,0.0,2.5442,2.6737,2.7635,2.8006,2.8689,2.9969,3.0679,3.086,3.0379,3.063,3.0418,2.9403,2.971,2.9738,2.9261,2.9437,2.9608,2.9816,2.9654,2.9524,2.9373,2.9203,2.8929,2.8607,2.8498,2.8438,2.8438,2.8438,2.8289,2.8034,2.8319,2.8289,2.8034,2.8034,2.8034,0.0,0.0,0.0,0.0,0.0,2.727,2.754,0.0,0.0,0.0,0.0,0.0,0.0,0.0,0.0,0.0,0.0,0.0,2.8416,2.9341,3.0081,3.0518,3.0507,2.8183,2.6024,0.0,2.3872,2.5267,2.8939,3.0232,3.2236,3.5182,3.5926,3.6518,3.6979,3.6979,3.7286,3.7894,3.7894,3.8321,3.9101,3.9073,3.9055,3.9101,3.8998,3.8401,3.7506,3.7461,3.5604,3.2884,3.2963,3.2027,3.0607,3.0155,2.9593,2.8937,2.8197,0.0,0.0,0.0,0.0,0.0,0.0,0.0,0.0,0.0,0.0,0.0,0.0,0.0,0.0,0.0,0.0,0.0,0.0,0.0,0.0,0.0,0.0,0.0,0.0,2.5963,2.8326,3.0615,3.0417,3.0503,3.1786,3.2346,3.2123,3.0879,3.1369,3.1289,2.9994,3.0023,3.0057,2.9955,0.0,0.0,0.0,0.0,2.9751,2.9117,2.9618,2.9507,2.8816,2.9367,2.9606,2.9606,2.9606,2.9265,2.8715,2.9298,2.9223,2.8659,2.8659,2.8614,2.848,2.7844,2.76,2.76,2.7575,2.7575,2.7575,0.0,0.0,0.0,0.0,0.0,0.0,0.0,0.0,0.0,2.569,2.6599,2.7577,2.8442,2.8648,2.8691,2.8691,2.6861,2.5243,2.4211,2.6594,2.8352,2.8994,3.2423,3.448,3.4804,3.6159,3.6851,3.6845,3.6777,3.716,3.7894,3.7894,3.8321,3.9087,3.8822,3.8836,3.9059,3.8421,3.8152,3.8183,3.7792,3.6141,3.3972,3.4625,3.4071,3.3139,3.439,3.4093,3.3088,3.312,3.2105,3.0637,2.9644,0.0,0.0,0.0,0.0,0.0,0.0,0.0,0.0,0.0,0.0,0.0,0.0,0.0,0.0,0.0,0.0,0.0,0.0,0.0,0.0,2.806,2.9768,3.1463,3.3455,3.3155,3.2886,3.3276,3.3412,3.3156,3.2359,3.2433,3.1923,3.0488,3.0536,3.0365,2.9717,2.9687,2.9886,3.0396,3.0411,3.0578,3.0984,3.0565,3.0295,3.0133,0.0,0.0,2.9606,2.9606,2.9451,2.9154,2.9287,2.9203,2.9003,2.9003,2.8692,2.816,2.7752,2.76,2.76,2.7488,2.7437,2.7437,0.0,0.0,0.0,0.0,0.0,0.0,0.0,0.0,0.0,0.0,2.6377,2.7053,2.7454,2.7117,2.6809,2.6716,2.5498,0.0,2.5326,2.774,3.0059,3.2058,3.4402,3.5923,3.6489,3.7551,3.8047,3.7947,3.792,3.8098,3.8507,3.8317,3.8434,3.8744,3.8405,3.8307,3.8368,3.7959,3.7807,3.7808,3.7953,3.7161,3.5984,3.6827,3.6863,3.6526,3.7011,3.635,3.5209,3.4988,3.4006,3.2724,3.1709,3.0326,2.8735,0.0,0.0,0.0,0.0,0.0,0.0,0.0,0.0,0.0,0.0,0.0,0.0,0.0,0.0,2.4182,0.0,0.0,2.819,2.9595,3.1078,3.2676,3.4279,3.4219,3.4009,3.4087,3.4087,3.3832,3.3171,3.3412,3.3021,3.1614,3.1611,3.1326,3.0597,3.0552,3.0702,3.0972,3.0987,3.0987,3.0987,3.0987,3.0795,3.041,3.0425,3.0412,3.0342,3.0342,3.0093,2.9727,3.0052,2.9965,2.9613,2.9613,2.9215,2.8554,2.804,2.7659,2.7397,2.7335,2.7284,2.7328,0.0,0.0,0.0,0.0,0.0,0.0,0.0,0.0,0.0,0.0,2.6167,2.6549,2.6452,2.5868,2.5238,0.0,0.0,2.5149,2.6436,2.8703,3.1539,3.5028,3.6017,3.7024,3.8213,3.8861,3.9156,3.9101,3.9101,3.9101,3.9101,3.8733,3.8499,3.8387,3.7943,3.7737,3.7684,3.7524,3.7342,3.7222,3.7882,3.8,3.7879,3.873,3.9173,3.928,3.8547,3.7293,3.5907,3.5366,3.4487,3.3517,3.3212,3.2222,3.0754,2.8867,2.7977,0.0,0.0,0.0,0.0,0.0,0.0,0.0,0.0,0.0,2.4922,2.5319,2.6067,2.6768,2.7251,2.8919,3.0372,3.0748,3.2095,3.3469,3.4548,3.4698,3.4698,3.4698,3.4698,3.4412,3.3754,3.4158,3.3978,3.2796,3.2706,3.2392,3.1735,3.169,3.163,3.1511,3.1467,3.1273,3.0839,3.1334,3.1276,3.0641,3.1175,3.1309,3.1117,3.1117,3.0705,3.0046,3.0439,3.0307,2.9784,2.9668,2.9305,2.874,2.8082,2.7512,2.7099,2.7099,2.7125,2.7198,0.0,0.0,0.0,0.0,0.0,0.0,0.0,0.0,0.0,0.0,0.0,0.0,0.0,0.0,0.0,0.0,2.4921,2.6299,2.6249,3.0822,3.3907,3.4727,3.6923,3.811,3.802,3.8728,3.9115,3.9101,3.9101,3.9101,3.9101,3.8636,3.8418,3.8371,3.7614,3.7433,3.7648,3.6939,3.6779,3.7069,3.7447,3.7958,3.857,3.9339,3.9633,3.9548,3.8805,3.6969,3.4912,3.5132,3.3588,3.1888,3.3463,3.2689,3.0898,2.9486,0.0,2.5923,2.2983,2.2183,2.2149,2.2029,2.3419,2.5294,0.0,0.0,2.7976,3.0325,2.997,2.9711,3.1452,3.2004,3.2587,3.3798,3.4635,3.522,3.537,3.5385,3.5385,3.5385,3.5385,3.5115,3.4459,3.4459,3.4204,3.344,3.338,3.3095,3.2407,3.2378,3.2108,3.1525,3.138,3.1545,3.199,3.1974,3.1898,3.1824,3.1898,3.1633,3.1117,3.1117,3.0628,2.9801,2.9083,2.8753,2.8643,2.8118,2.7827,2.7704,2.7036,2.6737,2.6674,2.6793,2.6852,2.6852,0.0,0.0,0.0,0.0,0.0,0.0,0.0,0.0,0.0,0.0,0.0,0.0,0.0,0.0,0.0,2.1696,2.3692,2.578,2.7538,3.1081,3.3997,3.6015,3.7425,3.8295,3.8572,3.8878,3.8946,3.8752,3.8902,3.8781,3.8405,3.8162,3.7875,3.756,3.7018,3.6821,3.6865,3.6533,3.6728,3.7346,3.791,3.8577,3.9215,3.9112,3.906,3.8865,3.7521,3.5463,0.0,0.0,3.2591,3.1502,3.2593,3.165,2.9945,2.8925,2.71,0.0,2.4663,2.452,2.4882,0.0,2.7101,2.7976,2.9301,2.9837,3.0316,3.1386,3.1733,3.2228,3.3425,3.3978,3.4442,0.0,3.5325,3.5504,3.5504,3.516,3.4756,3.4382,3.4337,3.4532,3.5026,3.507,3.4801,3.4113,3.4068,3.3738,3.2958,3.2914,3.2555,3.1797,3.2122,3.2225,3.2092,3.2414,3.2529,3.2405,3.1608,3.1073,3.0735,3.027,3.0039,2.9995,2.9664,2.928,2.8988,2.9077,2.8928,2.8538,2.8173,2.8047,2.7954,2.7014,2.6668,2.6752,0.0,0.0,0.0,0.0,0.0,0.0,0.0,0.0,0.0,0.0,0.0,0.0,0.0,0.0,2.2379,2.1727,2.3208,2.5336,2.8077,3.0623,3.3327,3.6205,3.7181,3.7976,3.8641,3.8882,3.8815,3.8442,3.8631,3.8423,3.7841,3.7667,3.736,3.6981,3.6615,3.6402,3.6301,3.6301,3.6749,3.7564,3.8284,3.8784,3.906,3.8715,3.7757,3.6393,3.5062,3.3134,3.1142,3.0701,2.9872,2.9212,3.0125,2.9523,2.8365,2.7747,2.5919,2.4342,2.5702,2.6233,2.6856,2.8873,2.9858,3.0462,3.1112,3.1864,3.2496,3.2587,3.3395,3.4203,3.4681,3.5175,3.5504,3.5504,3.5504,3.5504,3.5504,3.4756,3.4023,3.3514,3.3274,3.3527,3.4465,3.4782,3.4816,3.4533,3.4503,3.42,3.352,3.349,3.3115,3.2295,3.2503,3.2465,3.2142,3.237,3.2392,3.2248,3.126,3.0671,3.0387,2.9598,2.9468,2.9896,2.9688,2.9379,2.8995,2.9446,2.9366,2.8974,2.8863,2.8818,2.8682,2.7446,2.7022,2.7061,0.0,0.0,0.0,0.0,0.0,0.0,0.0,0.0,0.0,0.0,0.0,0.0,0.0,0.0,2.3435,2.3345,2.4259,2.552,2.7063,2.9642,3.2108,3.4291,3.5963,3.714,3.7826,3.8604,3.8766,3.831,3.8307,3.8111,3.7701,3.7249,3.702,3.6981,3.6516,3.6301,3.6301,3.6301,3.6749,3.7564,3.8284,3.8203,3.765,3.8336,3.5612,3.1426,3.1356,2.9884,2.7699,2.6143,2.4643,2.3768,2.562,2.6142,0.0,2.6072,2.4319,2.2765,2.4562,2.5433,2.6115,2.7303,3.0111,3.2614,3.263,3.3561,3.4608,3.525,3.5415,3.5444,3.5474,3.5489,3.5504,3.5504,3.5504,3.5504,3.5504,3.4352,3.3484,3.3331,3.2734,3.2287,0.0,3.3033,3.3814,3.4459,3.4503,3.4394,3.4174,3.4174,3.3813,3.3004,3.2119,3.19,3.2481,3.1605,3.1165,3.1143,3.1116,3.0769,3.018,2.9438,2.9099,2.909,2.8448,2.817,2.8157,2.817,2.817,2.8157,2.8133,2.8146,2.8133,2.8058,2.8033,2.797,0.0,0.0,0.0,0.0,0.0,0.0,0.0,0.0,0.0,0.0,0.0,0.0,0.0,0.0,0.0,0.0,2.3755,2.4783,2.672,2.8895,3.0826,3.2437,3.4148,3.5403,3.613,3.6148,3.62,3.6307,3.6798,3.6738,3.6182,3.6693,3.6801,3.6536,3.6367,3.6301,3.6335,3.6767,3.7123,3.7381,3.7533,3.7062,3.6088,3.4746,3.2502,2.9761,0.0,2.5624,2.4332,2.3797,2.3095,2.2728,2.4213,2.4128,2.34,2.3054,2.3769,2.5004,2.6461,0.0,2.9465,3.1302,3.3002,3.4273,3.4523,3.4878,3.51,3.4861,3.3877,3.2917,3.246,3.1406,3.1139,3.2781,3.2941,3.3282,3.4458,3.3727,3.2568,3.1246,3.0825,0.0,0.0,0.0,0.0,3.3311,3.2944,3.278,3.2937,3.2931,3.2561,3.1768,3.1868,3.1804,3.1577,3.1692,3.1739,3.1739,3.0859,3.004,2.9325,2.9068,2.9173,2.9542,2.9151,2.8837,2.865,2.8748,2.8724,2.865,2.8887,2.9088,2.9227,2.9227,2.9227,2.9038,0.0,0.0,0.0,0.0,0.0,0.0,0.0,0.0,0.0,0.0,0.0,0.0,0.0,0.0,0.0,0.0,0.0,2.4436,2.5687,2.6963,2.8133,2.9198,3.0587,3.1691,3.243,3.2466,3.2534,3.262,3.3624,3.3812,3.3273,3.4509,3.494,3.468,3.468,3.4832,3.5084,3.55,3.5621,3.548,3.5372,3.4397,3.2828,3.1264,2.9254,0.0,2.4505,2.2666,2.1418,2.1418,2.1035,2.0857,2.2291,2.2513,2.2294,2.2608,2.4077,2.6116,2.8269,3.0054,3.1816,3.3788,3.4789,3.5285,3.5464,3.531,3.4844,3.3776,3.2268,3.085,2.9987,2.8685,2.8526,3.1054,3.1095,3.1516,3.3522,3.2503,3.1116,2.9989,2.9568,2.8903,0.0,0.0,0.0,3.1457,3.1467,3.1606,3.2001,3.2198,3.205,3.1495,3.1594,3.1449,3.1038,3.1169,3.1294,3.1257,3.0383,2.9718,2.9239,2.9239,2.9389,2.965,2.947,2.9232,2.8985,2.9061,2.9038,2.8985,2.9217,2.9404,2.9546,2.9546,2.9546,2.9398,0.0,0.0,0.0,0.0,0.0,0.0,0.0,0.0,0.0,0.0,0.0,0.0,0.0,0.0,0.0,0.0,0.0,0.0,2.4107,2.4172,2.4433,2.4886,2.5694,2.6444,2.7146,2.7891,2.8085,2.768,2.9084,2.9565,2.9231,3.0831,3.1573,3.1555,3.1607,3.1963,3.2574,3.2588,3.2378,3.1989,3.1989,3.0439,2.8141,2.8089,2.6008,2.3053,2.2629,2.1071,1.9207,1.9111,1.8609,1.8344,2.0112,2.1486,2.2804,2.4655,2.5315,2.6254,2.9924,3.1757,3.3036,3.4668,3.5393,3.5655,3.5477,3.4891,3.3852,3.2071,3.0558,2.9202,0.0,0.0,2.7541,3.0162,2.9972,3.0315,3.2676,3.0919,2.9421,0.0,0.0,0.0,0.0,0.0,0.0,2.899,0.0,3.0911,3.1375,3.1913,3.2119,3.1978,3.123,3.0857,3.0857,3.0139,2.9792,2.9792,2.9753,2.9753,2.9753,2.9753,2.9611,2.938,2.938,2.9275,2.9091,2.9091,2.9091,2.9091,2.9052,2.9,2.9013,2.8961,2.8961,2.8939,0.0,0.0,0.0,0.0,0.0,0.0,0.0,0.0,0.0,0.0,0.0,0.0,0.0,0.0,0.0,0.0,0.0,0.0,2.3819,2.4331,2.4367,2.3766,2.4603,2.5175,2.5362,2.5273,2.5473,2.5942,2.6402,2.6583,2.652,2.7838,2.8437,2.8471,2.8971,2.9286,2.9484,2.9942,2.9742,2.9141,2.9095,2.785,2.6002,2.53,2.3668,2.1716,2.1155,2.0953,2.073,1.9176,0.0,2.0218,2.2422,2.3659,2.4757,2.7085,2.8487,2.9911,3.2747,3.4011,3.4729,3.5644,3.579,3.5552,3.5022,3.3642,3.2073,3.0617,2.7468,2.4853,0.0,0.0,0.0,2.6982,2.7943,0.0,3.1509,3.1064,0.0,2.9341,0.0,2.8487,2.7655,2.8041,0.0,0.0,2.8769,2.9634,3.0212,3.0342,3.0432,3.0406,3.0177,3.0062,3.0062,2.9715,2.9509,2.9509,2.9365,2.93,2.93,2.93,2.9248,2.917,2.904,2.9,2.9091,2.8788,2.8828,2.9,2.8211,2.8011,2.8051,2.7395,2.7139,2.7157,0.0,0.0,0.0,0.0,0.0,0.0,0.0,0.0,0.0,0.0,0.0,0.0,0.0,0.0,0.0,0.0,0.0,0.0,0.0,2.352,2.3225,2.203,2.25,2.2594,2.2247,2.2322,2.2198,2.1871,2.2943,2.3232,2.2812,2.4481,2.5208,2.5207,2.588,2.6354,2.6646,2.6984,2.6586,0.0,0.0,2.4474,2.2652,2.213,2.1184,2.0087,1.958,0.0,0.0,0.0,0.0,2.3927,2.5266,2.6451,2.781,3.0018,0.0,3.185,3.4104,3.5126,3.5613,3.5915,3.5636,3.4946,3.3706,3.212,3.0235,2.7854,2.4936,0.0,2.3028,2.1904,0.0,0.0,0.0,0.0,3.0188,3.0113,2.9611,0.0,2.8948,0.0,2.8059,2.8511,2.8712,0.0,2.8725,2.9026,2.9402,2.9654,2.9792,2.9792,2.9792,2.974,2.9611,2.947,2.9341,2.9275,2.917,2.9091,2.9091,2.9091,2.9052,2.8961,0.0,2.8803,2.8776,2.8167,2.8047,2.8155,2.7151,2.6812,2.6853,2.6359,2.6193,2.6193,0.0,0.0,0.0,0.0,0.0,0.0,0.0,0.0,0.0,0.0,0.0,0.0,0.0,0.0,0.0,0.0,0.0,0.0,0.0,0.0,0.0,0.0,2.0445,2.0062,1.9234,1.9787,1.9343,1.7833,1.987,2.0356,1.9432,2.1512,2.2394,2.2329,2.2991,2.3635,2.4178,2.4178,2.3556,2.2616,2.2616,2.1409,1.9638,0.0,0.0,0.0,0.0,0.0,0.0,0.0,2.5857,2.779,2.8137,2.9395,3.1072,3.2889,3.302,3.2975,3.4788,3.5609,3.5926,3.5784,3.519,3.4145,3.2132,3.0499,2.8382,2.4778,0.0,2.2088,2.275,2.1745,2.2207,2.6512,0.0,2.668,2.9009,2.8834,2.8586,2.8988,2.9001,2.9001,2.9001,2.9503,2.9792,2.9792,2.9327,2.9001,2.9001,2.9515,2.9792,2.9792,2.9753,2.965,2.9419,2.9341,2.9223,2.9052,2.9013,2.9013,2.9013,2.9013,2.8934,2.8764,2.8764,2.8657,2.8431,2.7672,2.7307,2.7103,2.6163,2.5746,2.561,2.5495,2.5442,2.5442,0.0,0.0,0.0,0.0,0.0,0.0,0.0,0.0,0.0,0.0,2.45,0.0,0.0,0.0,0.0,0.0,0.0,0.0,0.0,0.0,0.0,0.0,2.1156,2.0722,1.9853,1.9959,1.9866,1.9576,2.03,2.0389,1.9912,2.1178,2.1563,2.1221,2.1947,2.2313,2.2421,2.2421,2.2302,2.2133,2.2133,2.1637,2.0881,0.0,0.0,0.0,0.0,0.0,0.0,2.5114,2.6614,2.7752,2.9921,3.1465,3.2746,3.4197,3.4561,3.4833,3.626,3.6211,3.5784,3.5926,3.5252,3.3901,3.1514,2.9132,0.0,0.0,2.1351,2.0344,2.2366,2.1625,2.2043,2.6135,2.6155,2.6418,2.8682,2.8873,2.9025,0.0,2.9641,2.9641,2.9641,2.9729,0.0,0.0,2.9691,2.9641,2.9641,2.9741,2.9792,2.9792,2.956,2.947,2.9419,2.9067,2.8882,2.8843,2.8697,2.859,2.859,2.859,2.859,2.855,2.855,0.0,2.8471,2.8339,2.7846,2.7103,2.6163,2.5368,2.4616,2.3854,2.356,2.356,0.0,0.0,0.0,0.0,0.0,0.0,0.0,0.0,0.0,0.0,2.45,2.45,0.0,0.0,0.0,0.0,0.0,0.0,0.0,0.0,0.0,0.0,0.0,0.0,0.0,2.1752,2.17,2.0418,0.0,2.1252,2.0337,2.1128,2.1239,2.082,2.1517,2.1838,2.1838,2.1838,2.1838,2.1838,2.1838,2.141,0.0,0.0,0.0,0.0,0.0,0.0,0.0,0.0,2.5218,2.7316,3.0968,3.2924,3.3879,3.4185,3.4743,3.523,3.5177,3.5379,3.5546,3.5296,3.4583,3.3062,2.9566,0.0,0.0,0.0,2.0476,2.0233,2.2234,2.1545,0.0,2.4883,2.5275,2.5762,2.7406,2.8386,0.0,2.9729,2.9792,2.9792,0.0,2.9792,2.9792,2.9792,2.965,2.965,2.9792,2.9663,2.9521,2.9429,2.9326,2.9197,2.9106,2.891,2.8764,2.8657,2.855,2.851,2.851,2.851,2.851,2.8471,2.8007,2.7805,2.7765,2.6794,2.6174,2.5715,2.4776,2.4145,2.3734,2.3266,2.3091,2.3091,0.0,0.0,0.0,0.0,0.0,0.0,0.0,2.4764,2.4631,2.4517,2.4491,2.4482,2.4482,2.443,2.4367,0.0,0.0,0.0,0.0,0.0,0.0,0.0,0.0,0.0,0.0,0.0,0.0,2.1561,2.2769,0.0,0.0,0.0,0.0,0.0,2.1914,2.2099,2.2099,2.2099,2.2099,0.0,0.0,2.1597,0.0,0.0,0.0,0.0,0.0,0.0,0.0,0.0,2.3562,2.6486,3.039,3.2467,3.3478,3.3483,3.4142,3.4718,3.4226,3.4753,3.5275,3.4556,3.3916,3.2286,2.7798,2.6273,0.0,2.0759,1.9876,2.0297,2.1996,2.1145,2.1021,0.0,2.3974,2.4481,2.6084,2.7507,2.8699,0.0,2.9716,0.0,2.9792,2.9792,0.0,2.9792,2.956,2.947,2.9624,2.9443,2.9275,2.9091,2.9052,2.8961,2.8791,2.8764,2.8657,2.851,2.851,2.851,2.851,2.8299,2.8219,2.8179,2.7296,2.6887,2.6805,2.5379,2.4659,2.4413,2.3691,2.3266,2.3091,2.3091,2.3091,2.3091,0.0,0.0,0.0,0.0,0.0,0.0,0.0,2.4673,2.4517,2.45,2.4447,2.4412,2.4412,2.4403,2.4367,0.0,0.0,0.0,0.0,0.0,0.0,0.0,0.0,0.0,0.0,0.0,0.0,2.4068,2.4728,0.0,0.0,0.0,0.0,0.0,0.0,2.343,2.343,2.343,0.0,0.0,0.0,0.0,0.0,0.0,0.0,0.0,0.0,0.0,0.0,0.0,0.0,2.5112,2.675,2.8266,2.9889,3.219,0.0,0.0,3.5374,3.5596,3.5032,3.4236,3.368,3.2104,2.7497,0.0,2.4368,2.0604,1.9422,1.9648,2.1432,1.9948,1.9546,2.2914,0.0,2.2162,0.0,2.6298,2.7268,0.0,0.0,0.0,0.0,0.0,0.0,0.0,0.0,2.9341,2.917,2.9131,2.9131,2.9091,2.8922,2.8843,2.8791,2.8618,2.851,2.851,2.851,2.851,2.8471,2.7684,2.7307,2.7267,2.6329,2.5913,0.0,2.5746,2.52,2.4498,2.4413,2.3864,2.3091,2.3091,2.3091,2.3091,0.0,0.0,0.0,0.0,0.0,0.0,0.0,2.4564,2.443,2.4384,2.4358,2.4339,2.4339,2.4294,2.4266,0.0,0.0,0.0,0.0,0.0,0.0,0.0,0.0,0.0,0.0,0.0,2.5576,2.5058,2.5715,0.0,0.0,0.0,0.0,0.0,0.0,2.3595,2.3595,2.3595,0.0,0.0,0.0,0.0,0.0,0.0,0.0,0.0,0.0,0.0,1.9355,0.0,0.0,0.0,2.2618,2.3433,0.0,0.0,3.0299,3.1861,3.2385,3.374,3.4765,3.3684,3.3273,3.1848,2.6933,0.0,2.4327,2.0578,1.9635,1.9699,2.0425,1.9268,1.8866,2.0898,0.0,0.0,2.3985,0.0,0.0,0.0,0.0,0.0,0.0,0.0,0.0,0.0,0.0,0.0,2.8736,2.8855,2.8855,2.8749,2.8657,2.8618,2.8618,2.855,2.851,2.851,2.851,2.851,2.8471,2.7592,2.7185,2.7115,2.5924,2.54,0.0,2.4815,2.4388,2.4061,2.3757,2.344,2.3091,2.3091,2.3091,2.3091,0.0,0.0,0.0,0.0,0.0,0.0,2.4588,2.4471,2.4348,2.4312,2.4275,2.4275,2.4275,2.4229,2.4191,2.4163,0.0,0.0,0.0,0.0,0.0,0.0,0.0,0.0,0.0,0.0,2.6404,2.5799,2.6268,2.6276,0.0,0.0,2.4863,2.4451,0.0,0.0,0.0,0.0,0.0,0.0,0.0,0.0,0.0,0.0,0.0,0.0,0.0,0.0,0.0,0.0,0.0,0.0,0.0,0.0,2.1376,0.0,2.7552,2.9659,3.0221,3.2133,3.3831,3.305,3.2606,3.1159,0.0,0.0,2.3865,2.05,1.9673,1.9497,1.9296,1.852,1.8133,0.0,0.0,1.9304,2.2278,2.3474,0.0,0.0,0.0,0.0,0.0,0.0,0.0,0.0,0.0,0.0,2.851,2.8618,2.8657,2.851,2.851,2.851,2.851,2.851,2.8391,2.8139,2.8139,2.8049,2.7865,2.6979,2.6629,2.6712,2.5443,2.4808,0.0,2.4048,2.3711,2.3564,2.3218,2.3091,2.3091,2.3091,2.3091,2.3091,0.0,0.0,0.0,0.0,0.0,0.0,0.0,2.4382,2.4294,2.4294,2.4229,2.4201,2.4201,2.42,2.417,2.4103,0.0,0.0,0.0,0.0,0.0,0.0,0.0,0.0,0.0,0.0,2.6624,2.6502,2.6502,2.6398,2.6168,2.5703,2.5275,2.4863,0.0,0.0,0.0,0.0,0.0,0.0,0.0,0.0,0.0,0.0,0.0,0.0,0.0,0.0,0.0,0.0,0.0,0.0,0.0,1.9811,2.0359,2.3124,2.4669,2.6269,2.999,3.144,3.2019,3.2417,3.172,2.9922,0.0,2.4281,2.2714,2.0307,1.9371,1.882,1.8149,1.7577,1.7159,1.7046,1.7024,0.0,2.0029,2.1728,0.0,0.0,0.0,0.0,0.0,0.0,0.0,0.0,0.0,0.0,2.851,2.851,2.851,2.851,2.851,2.851,2.851,2.851,2.8059,2.7226,2.7226,2.6982,2.6497,2.5544,2.5365,2.5743,2.4808,2.418,0.0,2.3789,2.3535,2.3101,2.3091,2.3091,2.3091,2.3091,2.3091,2.3091,0.0,0.0,0.0,0.0,0.0,0.0,0.0,2.4257,2.4237,2.4237,2.4171,2.4124,2.4124,2.4133,2.4103,2.4044,0.0,0.0,0.0,0.0,0.0,0.0,0.0,0.0,0.0,0.0,2.6537,2.6502,2.5898,2.5812,2.6185,2.5248,2.4994,2.5275,2.4599,2.4219,0.0,0.0,0.0,0.0,0.0,0.0,0.0,0.0,0.0,0.0,0.0,0.0,0.0,0.0,0.0,0.0,0.0,0.0,0.0,2.073,2.2463,2.4443,2.602,2.7806,2.9126,2.8725,2.8338,2.7303,2.4319,2.3042,2.1932,1.993,1.9389,1.9216,1.8992,1.8511,1.8388,1.9063,1.8496,0.0,0.0,0.0,0.0,0.0,0.0,0.0,0.0,0.0,0.0,0.0,0.0,0.0,2.851,2.851,2.851,2.851,2.851,2.851,2.851,2.7926,2.747,2.7174,2.6547,2.6157,2.5975,2.5082,2.4788,2.49,2.4252,2.3916,2.3789,2.3789,2.3711,2.3584,2.3584,2.3584,2.3584,2.3584,2.3584,2.3545,0.0,0.0,0.0,0.0,0.0,0.0,0.0,2.4142,2.4113,2.4113,2.4084,2.4064,2.4064,2.4064,2.4044,2.3976,0.0,0.0,0.0,0.0,0.0,0.0,0.0,0.0,0.0,2.694,2.664,2.6416,2.588,2.581,2.6185,2.5476,2.5131,2.5112,2.4693,2.4271,0.0,0.0,0.0,0.0,0.0,0.0,2.4481,0.0,0.0,0.0,0.0,0.0,0.0,0.0,0.0,0.0,0.0,0.0,0.0,0.0,2.0738,2.2273,2.3749,2.5279,2.6482,2.664,2.6196,0.0,2.3056,2.1988,2.1012,1.9672,1.9394,1.9333,1.906,1.8754,1.8655,1.908,1.8503,0.0,0.0,0.0,0.0,0.0,0.0,0.0,0.0,0.0,0.0,0.0,0.0,0.0,2.851,2.851,2.851,2.851,2.851,2.851,2.851,2.7644,2.701,2.667,2.5746,2.5211,2.5038,2.4487,2.4338,2.4466,2.4167,2.4033,0.0,2.4033,2.4033,2.4033,2.4033,2.4033,2.4033,2.4033,2.4033,2.3984,0.0,0.0,0.0,0.0,0.0,0.0,0.0,0.0,0.0,0.0,2.3923,2.3931,2.3968,2.3986,2.3955,0.0,0.0,0.0,0.0,0.0,0.0,0.0,0.0,0.0,0.0,2.7195,2.6774,2.6212,2.6212,2.6176,2.6119,2.6119,2.5545,2.4533,2.4748,2.4142,2.294,2.3009,2.3441,2.4113,2.451,2.4375,0.0,0.0,0.0,0.0,0.0,0.0,0.0,0.0,0.0,0.0,0.0,0.0,0.0,0.0,0.0,0.0,0.0,2.3606,2.4028,2.5658,0.0,0.0,2.2203,2.1006,0.0,1.9466,1.9368,1.9183,1.8567,1.8444,1.8248,1.7677,0.0,0.0,0.0,0.0,0.0,0.0,0.0,0.0,0.0,0.0,0.0,0.0,0.0,0.0,2.851,2.851,2.8471,2.8431,2.8431,2.8431,2.8431,2.747,2.6588,2.5704,2.4829,2.4162,2.374,2.374,2.3955,0.0,2.4355,2.4375,2.4375,2.4404,2.4414,2.4424,2.4453,2.4443,2.4414,2.4414,2.4394,2.4365,0.0,0.0,0.0,0.0,0.0,0.0,0.0,0.0,0.0,0.0,2.2994,2.3131,2.3702,2.3774,2.3678,0.0,0.0,0.0,0.0,0.0,0.0,0.0,0.0,0.0,0.0,2.6725,2.6098,2.5463,2.5411,2.5376,2.5359,2.5359,2.5121,2.4714,2.4316,2.3513,2.2464,2.243,2.3009,2.3909,2.3514,2.3853,0.0,0.0,0.0,0.0,2.2285,2.141,0.0,0.0,0.0,0.0,0.0,0.0,0.0,0.0,1.897,1.8947,2.0388,0.0,2.1154,2.1459,2.1225,2.0838,0.0,1.9797,1.925,1.9129,1.9093,1.9056,1.8897,1.8859,1.8943,1.9206,0.0,0.0,0.0,0.0,0.0,0.0,0.0,0.0,0.0,0.0,0.0,0.0,0.0,2.851,2.851,2.851,2.8179,2.751,2.751,2.751,2.751,2.5924,2.5041,2.4787,2.3854,2.3359,2.3247,2.3247,2.3305,2.3413,2.3789,2.3935,2.3965,2.4287,2.4414,2.4453,2.4785,2.4717,2.4414,2.4414,2.4209,2.3887,0.0,0.0,0.0,0.0,0.0,0.0,0.0,0.0,0.0,0.0,0.0,0.0,0.0,0.0,0.0,0.0,0.0,0.0,0.0,0.0,0.0,0.0,0.0,0.0,2.6583,2.5828,2.5196,2.4647,2.4945,2.511,2.511,2.5008,2.494,2.4905,2.4084,2.3255,2.2494,2.2505,2.3148,2.408,2.356,0.0,0.0,0.0,0.0,0.0,2.1733,2.0997,0.0,1.9617,1.942,1.942,0.0,0.0,0.0,0.0,1.8782,1.8476,1.9218,1.9528,1.9697,1.987,1.9709,1.9516,1.9435,1.9218,1.8987,1.8987,1.8987,1.8987,1.8987,1.8987,0.0,0.0,2.0249,0.0,0.0,0.0,0.0,0.0,0.0,0.0,0.0,0.0,0.0,0.0,0.0,2.851,2.851,2.851,2.8099,2.7226,2.6794,2.6547,2.6547,2.521,2.4498,2.4498,2.356,2.3091,2.3091,2.3091,2.3091,2.312,2.3603,2.3896,2.4111,2.4541,2.4717,2.4736,2.5018,2.4805,2.4414,2.4414,2.4277,2.4043,0.0,0.0,0.0,0.0,0.0,0.0,0.0,0.0,0.0,0.0,0.0,0.0,0.0,0.0,0.0,0.0,0.0,0.0,0.0,0.0,0.0,0.0,0.0,2.6092,2.584,2.4927,2.4319,2.4,2.4695,2.4975,2.4893,2.4903,2.4899,2.4783,2.3692,2.2984,2.2614,2.2608,2.3221,2.4131,2.3722,0.0,0.0,0.0,0.0,0.0,0.0,0.0,0.0,1.9525,1.9275,1.9247,1.9413,0.0,0.0,0.0,0.0,0.0,1.8939,1.9107,1.9218,1.9591,1.9351,1.8987,1.8987,0.0,0.0,0.0,0.0,0.0,0.0,1.9308,0.0,0.0,0.0,0.0,0.0,0.0,0.0,0.0,0.0,0.0,0.0,0.0,0.0,0.0,0.0,2.851,2.851,2.851,2.8059,2.7103,2.6205,2.5652,2.5495,2.4701,2.4284,2.4284,2.3484,2.3091,2.3091,2.3169,2.3159,2.312,0.0,0.0,2.4355,2.4785,2.4971,2.4971,2.4971,2.4697,2.4316,2.4316,2.4277,2.4228,0.0,0.0,0.0,0.0,0.0,0.0,0.0,0.0,0.0,0.0,0.0,0.0,0.0,0.0,0.0,0.0,0.0,0.0,0.0,0.0,0.0,0.0,2.6091,2.6008,2.6455,2.4747,2.3885,2.4,2.4405,2.4368,2.3933,2.5002,2.4826,2.3603,2.2363,2.1951,2.2146,2.1545,2.2011,2.3057,2.2261,0.0,0.0,0.0,0.0,0.0,0.0,0.0,0.0,1.9422,1.9105,1.9255,1.9625,0.0,0.0,0.0,0.0,0.0,1.9423,1.9688,1.9591,1.923,1.9047,1.8987,1.8987,1.8987,0.0,0.0,0.0,0.0,0.0,2.0732,2.1524,0.0,0.0,0.0,0.0,0.0,0.0,0.0,0.0,0.0,0.0,0.0,0.0,0.0,0.0,2.851,2.851,2.851,2.7938,2.6652,2.5913,2.5073,2.4133,2.357,2.3309,2.3309,2.3178,2.3091,2.311,2.3525,2.3486,2.314,0.0,2.415,2.3916,2.4336,2.4521,2.4521,2.4521,2.4258,2.3887,2.3887,2.3652,2.3344,0.0,0.0,0.0,0.0,0.0,0.0,0.0,0.0,0.0,0.0,0.0,0.0,0.0,0.0,0.0,0.0,0.0,0.0,0.0,0.0,0.0,2.6228,2.5493,2.5227,2.5626,2.4362,2.3505,2.3129,2.3765,2.379,2.3293,2.414,2.3744,2.2364,2.2265,2.2235,2.2296,2.2105,2.2469,2.3098,0.0,0.0,0.0,0.0,0.0,0.0,0.0,0.0,0.0,0.0,1.9225,1.9127,1.9302,0.0,0.0,0.0,0.0,0.0,1.917,1.9387,1.9444,1.978,1.9865,1.9865,1.9865,1.9865,0.0,0.0,0.0,0.0,0.0,0.0,2.2439,2.4349,0.0,0.0,0.0,0.0,0.0,0.0,0.0,0.0,0.0,0.0,0.0,0.0,0.0,0.0,2.7805,2.7805,2.7307,2.6227,2.5505,2.4616,2.3667,2.3013,2.2828,2.3091,2.3013,2.3013,2.3101,2.3305,2.3286,2.313,0.0,2.3965,2.3828,2.4248,2.4287,2.4082,2.4082,2.3818,2.3437,2.3437,2.331,2.3188,0.0,0.0,0.0,0.0,0.0,0.0,0.0,0.0,0.0,0.0,0.0,0.0,0.0,0.0,0.0,0.0,0.0,0.0,0.0,0.0,2.5131,2.5872,2.5123,2.4774,2.4974,2.3895,2.3191,2.2896,2.3235,2.3312,2.3158,2.3274,2.2842,2.1966,2.2252,2.2459,2.2589,2.2659,2.2922,2.3246,0.0,0.0,0.0,0.0,0.0,0.0,0.0,0.0,0.0,0.0,0.0,0.0,0.0,0.0,0.0,1.9086,1.8806,1.8506,1.9035,1.9206,1.9408,2.037,2.0684,2.086,2.1098,2.1255,2.1399,0.0,0.0,0.0,0.0,2.2997,0.0,2.5451,0.0,0.0,0.0,0.0,0.0,0.0,0.0,0.0,0.0,0.0,0.0,0.0,0.0,0.0,2.7185,2.7051,2.6599,2.5852,2.4946,2.4112,2.3406,2.2618,2.2485,2.2916,2.2794,2.2794,2.2925,2.311,2.3101,2.2989,2.3559,2.3686,2.3483,2.3939,2.3881,2.3553,2.3553,2.3349,2.3057,2.3091,2.3091,2.3208,0.0,0.0,0.0,0.0,0.0,0.0,0.0,0.0,0.0,0.0,0.0,0.0,0.0,0.0,0.0,0.0,0.0,0.0,0.0,0.0,2.5043,2.561,2.5384,2.5349,2.554,2.3356,2.2919,2.4349,2.3106,2.2971,2.3899,2.299,2.2831,2.3206,2.1779,2.1771,2.2831,2.2294,2.2396,2.2888,2.2417,0.0,0.0,0.0,0.0,0.0,0.0,0.0,0.0,0.0,0.0,0.0,0.0,0.0,1.97,1.9736,1.9375,1.9047,1.9615,1.9748,1.988,2.0458,2.0978,2.159,2.2608,2.3213,2.3716,2.4299,0.0,0.0,0.0,2.6422,0.0,0.0,0.0,0.0,0.0,0.0,0.0,0.0,0.0,0.0,0.0,0.0,0.0,0.0,0.0,0.0,2.7185,2.6599,2.6049,2.5537,2.42,2.3367,2.3135,2.222,2.1998,2.2441,2.2441,2.2441,2.2451,2.3099,2.3025,2.2504,2.3425,2.3297,2.2533,2.3003,2.3091,2.2886,2.2886,2.2867,2.2838,2.3013,2.3091,2.3159,0.0,0.0,0.0,0.0,0.0,0.0,0.0,0.0,0.0,0.0,0.0,0.0,0.0,0.0,0.0,0.0,0.0,0.0,0.0,0.0,2.482,2.455,2.4904,2.4839,2.4248,2.3939,2.3588,2.3182,2.2648,2.2425,2.2448,2.2279,2.23,2.2505,2.1894,2.2106,2.2888,2.2664,2.2626,2.2661,2.2067,2.1722,0.0,0.0,0.0,0.0,0.0,0.0,0.0,0.0,1.9332,1.9287,1.9287,1.9287,1.9287,1.9287,1.9143,1.9035,1.9266,1.978,2.0588,2.1788,2.2494,2.2914,2.2978,2.4216,2.5294,2.5178,2.5095,0.0,0.0,0.0,2.7648,0.0,0.0,0.0,0.0,0.0,0.0,0.0,0.0,0.0,0.0,0.0,0.0,0.0,0.0,0.0,2.6385,2.6135,2.5748,2.5137,2.4178,2.341,2.2925,2.2087,2.1776,2.1954,2.2132,2.2264,2.2397,2.2647,2.2628,2.2451,2.2967,2.2903,2.2441,2.275,2.275,2.2574,2.2706,2.2803,2.2838,2.3013,2.3091,2.3159,0.0,0.0,0.0,0.0,0.0,0.0,0.0,0.0,0.0,0.0,0.0,0.0,0.0,0.0,0.0,0.0,0.0,0.0,2.2898,2.4211,2.4669,2.392,2.4304,2.4069,2.3115,2.3745,2.3685,2.2893,2.2768,2.2454,2.1936,2.198,2.2106,2.2294,2.2091,2.233,2.2888,2.2752,2.2578,2.2347,2.1612,2.1202,0.0,0.0,0.0,0.0,0.0,0.0,0.0,0.0,1.92,1.9179,1.8843,1.8963,1.923,1.9035,1.8987,1.8987,1.8987,1.9906,2.1084,2.2012,2.3399,2.4404,2.3841,2.5025,2.6298,2.6382,2.6759,2.6827,2.6203,0.0,0.0,0.0,0.0,0.0,0.0,0.0,0.0,0.0,0.0,0.0,0.0,0.0,0.0,0.0,0.0,0.0,0.0,2.5464,2.5031,2.4551,2.3627,2.2896,2.2451,2.1954,2.1696,2.1696,2.1874,2.2052,2.2176,2.2264,2.2264,2.222,2.253,2.2485,2.222,2.253,2.253,2.2309,2.2583,2.2618,2.2583,2.2794,2.2925,2.3052,0.0,0.0,0.0,0.0,0.0,0.0,0.0,0.0,0.0,0.0,0.0,0.0,0.0,0.0,0.0,0.0,0.0,0.0,2.2898,2.4211,2.4669,2.392,2.3639,2.3154,2.2427,2.2465,2.2981,2.3982,2.3573,2.3224,2.2873,2.2294,2.2316,2.2859,2.2258,2.233,2.2865,2.2394,2.2114,2.1912,2.1129,2.0709,2.051,0.0,0.0,0.0,0.0,0.0,0.0,0.0,1.8903,1.9615,1.8542,1.8927,1.97,1.917,1.8999,1.9025,1.9025,2.0207,2.1313,2.077,0.0,0.0,2.5449,2.5781,2.6684,2.8278,2.8585,2.8076,2.6408,2.6995,0.0,0.0,0.0,0.0,0.0,0.0,0.0,0.0,0.0,0.0,0.0,0.0,0.0,0.0,0.0,0.0,0.0,2.4584,2.38,2.38,2.2422,2.1696,2.1696,2.1696,2.1696,2.1696,2.1696,2.1696,2.1696,2.1963,2.1963,2.1741,2.2176,2.2132,2.1741,2.222,2.2264,2.2097,2.2309,2.2264,2.2141,2.2309,2.2574,2.2803,0.0,0.0,0.0,0.0,0.0,0.0,0.0,0.0,0.0,0.0,0.0,0.0,0.0,0.0,0.0,0.0,0.0,0.0,2.3238,2.3852,2.3936,2.3231,2.335,2.3099,2.2429,2.2649,2.2922,2.3223,2.2681,2.2374,2.228,2.2519,2.2298,2.1727,2.1996,2.2025,2.1837,2.1599,2.1358,2.1091,2.0497,2.0105,1.9837,0.0,0.0,0.0,0.0,0.0,0.0,0.0,0.0,0.0,1.8734,1.8975,1.9218,1.9035,1.9802,2.0692,2.0692,2.2143,0.0,2.4394,0.0,0.0,0.0,2.7438,0.0,0.0,2.8301,2.8048,2.6528,0.0,0.0,0.0,0.0,0.0,0.0,0.0,0.0,0.0,0.0,0.0,0.0,0.0,0.0,0.0,0.0,0.0,0.0,2.5073,2.4327,2.3844,2.295,2.222,2.1696,2.1696,2.1696,2.1696,2.1696,2.1696,2.1696,2.1785,2.1785,2.1741,2.2052,2.2008,2.1687,2.1865,2.1865,2.183,2.2097,2.2141,2.2141,2.2309,2.2574,2.275,0.0,0.0,0.0,0.0,0.0,0.0,0.0,0.0,0.0,0.0,2.1449,0.0,0.0,0.0,0.0,0.0,0.0,0.0,0.0,2.3732,2.3623,2.2915,2.2991,2.2802,2.2253,2.233,2.2507,2.2775,2.2511,2.2345,2.2345,2.2283,2.2136,2.1913,2.1889,2.1784,2.1623,2.1314,2.1038,2.0758,2.0216,1.9874,1.9648,0.0,0.0,0.0,0.0,0.0,0.0,0.0,0.0,0.0,1.865,1.8819,1.8987,1.8987,1.9979,2.1091,2.1075,2.2947,0.0,2.5411,2.6052,2.6761,2.7531,0.0,0.0,0.0,2.8144,2.8232,2.7326,2.7763,0.0,0.0,0.0,0.0,0.0,0.0,0.0,0.0,0.0,0.0,0.0,0.0,0.0,0.0,0.0,0.0,0.0,2.485,2.4155,2.342,2.274,2.2132,2.1696,2.1696,2.1696,2.1696,2.1696,2.1696,2.1696,2.1696,2.1696,2.1696,2.1874,2.183,2.1696,2.1696,2.1696,2.1741,2.1874,2.1919,2.1963,2.2087,2.2309,2.2495,0.0,0.0,0.0,0.0,0.0,0.0,0.0,0.0,0.0,0.0,2.1246,2.1135,0.0,0.0,0.0,0.0,0.0,0.0,0.0,0.0,2.357,2.2898,2.2587,2.2299,2.1932,2.169,2.1849,2.2463,2.2626,2.274,2.2783,2.1727,2.182,2.2811,2.1708,2.1457,2.1833,2.1264,2.087,2.0619,2.0118,1.983,1.9736,1.9736,0.0,0.0,0.0,0.0,0.0,0.0,0.0,0.0,1.841,1.8602,1.8987,1.8987,1.9787,2.0672,2.0776,2.3064,2.5314,2.4905,2.6663,0.0,2.7866,2.775,2.7726,2.7669,0.0,2.8459,2.841,2.8127,0.0,0.0,0.0,0.0,0.0,0.0,0.0,0.0,0.0,0.0,0.0,0.0,0.0,0.0,0.0,0.0,2.5031,2.4284,2.3637,2.3013,2.222,2.1785,2.1785,2.1731,2.1696,2.1696,2.1696,2.1696,2.1696,2.1696,2.1696,2.1696,2.1696,2.1696,2.1696,2.1696,2.1696,2.1696,2.1696,2.1696,2.1696,2.1696,2.1874,2.2097,0.0,0.0,0.0,0.0,0.0,0.0,0.0,0.0,0.0,0.0,0.0,0.0,0.0,0.0,0.0,0.0,0.0,0.0,0.0,0.0,2.2776,2.2664,2.2318,2.1867,2.1383,2.1216,2.1199,2.1334,2.1282,2.1518,2.203,2.1149,2.1104,2.1691,2.0511,2.0294,2.0761,1.9963,1.9672,1.9659,1.9354,1.9247,1.9313,1.9221,1.9375,0.0,0.0,0.0,0.0,0.0,0.0,0.0,1.8722,1.8903,1.8987,1.8987,2.0061,2.1418,2.2253,2.3927,0.0,0.0,2.7748,2.8448,2.8342,2.8342,2.8114,2.7234,2.781,2.8259,2.7553,0.0,0.0,0.0,0.0,0.0,0.0,0.0,0.0,0.0,0.0,0.0,0.0,0.0,0.0,0.0,0.0,0.0,2.5686,2.5031,2.4605,2.4433,2.3222,2.2574,2.2574,2.1998,2.1696,2.1696,2.1696,2.1696,2.1696,2.1696,2.1696,2.1696,2.1696,2.1696,2.1696,2.1696,2.1696,2.1696,2.1696,2.1696,2.1696,2.1696,2.1874,2.2052,0.0,0.0,0.0,0.0,0.0,0.0,0.0,0.0,0.0,0.0,0.0,0.0,0.0,0.0,0.0,0.0,0.0,0.0,0.0,0.0,0.0,2.2147,2.1803,2.1455,2.1115,2.0919,2.0795,2.0795,2.0541,2.0796,2.1503,2.0563,2.0729,2.1772,2.0195,1.9998,2.0751,1.9993,1.9653,1.9587,1.9519,1.9335,1.9105,1.9025,1.8843,1.8674,1.8915,0.0,0.0,0.0,0.0,0.0,0.0,0.0,1.8987,1.8987,1.9952,2.1252,2.234,0.0,0.0,2.7628,0.0,2.851,2.851,2.851,2.8354,2.7762,2.8126,2.8347,0.0,0.0,0.0,0.0,0.0,0.0,0.0,0.0,0.0,0.0,0.0,0.0,0.0,0.0,0.0,0.0,0.0,2.577,2.5422,2.5084,2.4605,2.3917,2.3188,2.2618,2.2274,2.1874,2.1696,2.1696,2.1696,2.1696,2.1696,2.1696,2.1696,2.1696,2.1696,2.1696,2.1696,2.1696,2.1696,2.1696,2.1696,2.1696,2.1696,2.1696,2.1785,2.1874,0.0,0.0,0.0,0.0,0.0,0.0,0.0,0.0,0.0,0.0,0.0,0.0,0.0,0.0,0.0,0.0,0.0,0.0,0.0,0.0,0.0,2.1313,2.1091,2.0894,2.0696,2.0459,2.0334,2.0334,2.0105,2.0335,2.0977,1.9939,2.0398,2.1982,2.0067,1.9834,2.0883,2.0275,1.9845,1.9558,1.9679,1.9337,1.8762,1.8722,1.8289,1.7796,1.8578,1.8698,1.8602,1.9399,0.0,0.0,0.0,0.0,1.8987,1.8987,1.964,2.0567,2.162,0.0,2.5805,2.7861,2.8438,0.0,2.851,2.851,2.851,2.851,2.851,0.0,0.0,0.0,0.0,0.0,0.0,0.0,0.0,0.0,0.0,0.0,0.0,0.0,0.0,0.0,0.0,0.0,0.0,2.5644,2.5115,2.5073,2.4476,2.3188,2.3057,2.2618,2.1909,2.1785,2.1696,2.1696,2.1696,2.1696,2.1696,2.1696,2.1696,2.1696,2.1696,2.1696,2.1696,2.1696,2.1696,2.1696,2.1696,2.1696,2.1696,2.1696,2.1696,2.1696,0.0,0.0,0.0,0.0,0.0,0.0,0.0,0.0,0.0,0.0,2.0243,0.0,0.0,0.0,0.0,0.0,0.0,0.0,0.0,0.0,0.0,2.0055,2.0118,1.9927,1.9447,1.9303,1.9212,1.9212,1.9726,2.0052,2.0151,1.9307,1.9731,2.111,1.9316,1.9139,2.0116,1.9551,1.9052,1.8602,1.8602,1.8274,1.7776,1.7665,1.8109,1.8734,1.8422,1.8855,1.9543,1.923,1.9047,0.0,0.0,0.0,1.8987,1.8987,1.9095,1.9459,2.0519,0.0,2.5709,0.0,2.8174,2.851,0.0,0.0,2.851,0.0,0.0,0.0,0.0,0.0,0.0,0.0,0.0,0.0,0.0,0.0,0.0,0.0,0.0,0.0,0.0,0.0,0.0,0.0,2.5895,2.5853,2.577,2.577,2.5422,2.4647,2.3983,2.3333,2.2671,2.2008,2.1696,2.1696,2.1696,2.1696,2.1696,2.1696,2.1696,2.1696,2.1696,2.1696,2.1696,2.1696,2.1696,2.1696,2.1696,2.1696,2.1696,2.1696,2.1696,2.1696,0.0,0.0,0.0,0.0,0.0,0.0,0.0,0.0,0.0,0.0,0.0,1.9908,0.0,0.0,0.0,0.0,0.0,0.0,0.0,0.0,0.0,1.9708,1.9617,1.942,1.9078,1.9013,1.8843,1.8554,1.9531,1.9812,1.9429,1.9472,2.0165,2.1407,2.018,1.9942,2.0402,1.9548,1.8855,1.8319,1.871,1.8479,1.7992,1.8532,1.8662,1.8554,1.8626,0.0,1.8903,1.8963,1.8987,1.8987,1.8987,0.0,0.0,0.0,1.8987,1.9287,2.067,2.3123,2.5552,0.0,2.7669,2.851,2.851,0.0,2.851,2.851,0.0,0.0,0.0,0.0,0.0,0.0,0.0,0.0,0.0,0.0,0.0,0.0,0.0,0.0,0.0,0.0,0.0,0.0,2.5895,2.5895,2.5895,2.5549,2.5031,2.4327,2.3594,2.2916,2.2176,2.1865,2.1696,2.1696,2.1696,2.1696,2.1696,2.1696,2.1696,2.1696,2.1696,2.1696,2.1696,2.1696,2.1696,2.1696,2.1696,2.1696,2.1696,2.1696,2.1696,2.1696,0.0,0.0,0.0,0.0,0.0,0.0,0.0,0.0,0.0,0.0,0.0,0.0,0.0,0.0,0.0,0.0,0.0,0.0,0.0,0.0,0.0,1.9448,1.9141,1.8911,1.8794,1.8794,1.8602,1.8205,1.9383,1.9697,1.923,1.9854,2.056,2.1257,2.0668,2.0455,2.0475,1.9567,1.8792,1.8253,1.8756,1.866,1.8301,1.9227,1.9167,1.8638,1.8903,0.0,0.0,0.0,1.8987,1.8987,1.8987,1.8987,0.0,0.0,0.0,0.0,0.0,0.0,2.4566,2.5636,2.6899,2.7966,0.0,0.0,2.8311,0.0,0.0,0.0,0.0,0.0,0.0,0.0,0.0,0.0,0.0,0.0,0.0,0.0,0.0,0.0,0.0,0.0,0.0,0.0,2.5895,2.5895,2.5895,2.5253,2.4551,2.3844,2.3135,2.2441,2.1696,2.1696,2.1696,2.1696,2.1696,2.1696,2.1696,2.1696,2.1696,2.1696,2.1696,2.1696,2.1696,2.1696,2.1696,2.1696,2.1696,2.1696,2.1696,2.1696,2.1696,2.1696,0.0,0.0,0.0,0.0,0.0,0.0,0.0,0.0,0.0,0.0,0.0,0.0,0.0,0.0,1.8884,1.9597,1.9301,1.9083,1.9056,1.904,1.904,1.904,1.8532,0.0,1.8241,1.8241,1.8229,1.8205,1.929,1.9796,1.9772,2.0302,2.0303,1.9813,1.9832,1.9844,1.9817,1.9312,1.8755,1.8202,1.8322,1.8295,1.8265,1.8819,0.0,0.0,0.0,0.0,0.0,0.0,0.0,0.0,0.0,1.8987,1.8987,0.0,0.0,0.0,0.0,2.1115,0.0,2.4723,2.5793,0.0,0.0,0.0,0.0,0.0,0.0,0.0,0.0,0.0,0.0,0.0,0.0,0.0,0.0,0.0,0.0,0.0,0.0,0.0,0.0,0.0,0.0,0.0,2.5895,2.5895,2.5895,2.5253,2.4551,2.3844,2.3135,2.2441,2.1696,2.1696,2.1696,2.1696,2.1696,2.1696,2.1696,2.1696,2.1696,2.1696,2.1696,2.1696,2.1696,2.1696,2.1696,2.1696,2.1696,2.1696,2.1696,2.1696,2.1696,2.1696,0.0,0.0,0.0,0.0,0.0,0.0,0.0,0.0,0.0,0.0,0.0,0.0,0.0,1.8972,1.9043,1.9897,1.937,1.9005,1.9001,1.8987,1.8987,1.8987,1.8482,1.8205,1.8205,1.7869,1.7515,1.7117,1.8563,1.8873,1.8075,1.9316,1.9602,1.9078,1.981,1.9989,1.9662,1.8742,1.8254,1.8145,1.8159,1.8163,1.8315,0.0,0.0,0.0,0.0,0.0,0.0,0.0,0.0,0.0,0.0,0.0,0.0,0.0,0.0,0.0,0.0,0.0,0.0,2.2495,2.3651,2.4636,2.5248,2.6001,0.0,0.0,0.0,0.0,0.0,0.0,0.0,0.0,0.0,0.0,0.0,0.0,0.0,0.0,0.0,0.0,0.0,0.0,0.0,0.0,0.0,2.5728,2.5295,2.4594,2.3897,2.3178,2.2485,2.1954,2.1696,2.1696,2.1696,2.1696,2.1696,2.1696,2.1696,2.1696,2.1696,2.1696,2.1696,2.1696,2.1696,2.1696,2.1696,2.1696,2.1696,2.1696,2.1696,2.1696,2.1696,2.1696,0.0,0.0,0.0,0.0,0.0,0.0,0.0,0.0,0.0,0.0,0.0,0.0,0.0,0.0,1.8497,1.9208,1.8779,1.853,1.871,1.8554,1.8542,1.871,1.7885,1.7416,1.7416,1.6901,1.6502,1.6263,1.7763,1.8105,1.739,1.8672,1.8869,1.8158,1.9019,1.9298,1.9052,1.8065,0.0,1.7804,0.0,0.0,1.8854,0.0,0.0,0.0,0.0,0.0,0.0,0.0,0.0,0.0,0.0,0.0,0.0,0.0,0.0,0.0,1.8987,0.0,0.0,0.0,0.0,2.3078,2.3875,0.0,0.0,0.0,0.0,0.0,0.0,0.0,0.0,0.0,0.0,0.0,0.0,0.0,0.0,0.0,0.0,0.0,0.0,0.0,0.0,0.0,0.0,0.0,2.4946,2.4198,2.3377,2.2441,2.1963,2.1696,2.1696,2.1696,2.1696,2.1696,2.1696,2.1696,2.1696,2.1696,2.1696,2.1696,2.1696,2.1696,2.1696,2.1696,2.1696,2.1696,2.1696,2.1696,2.1696,2.1696,2.1696,2.1696,0.0,0.0,0.0,0.0,0.0,0.0,0.0,0.0,0.0,0.0,0.0,0.0,0.0,0.0,0.0,1.7364,1.7387,1.7603,1.812,1.7676,1.7615,1.8132,1.6688,1.5878,1.5878,1.5363,1.5326,1.5767,1.6911,1.7616,1.7875,1.8452,1.8107,1.6986,1.7369,1.7671,1.789,0.0,1.7132,1.7267,0.0,1.869,1.9869,0.0,0.0,0.0,2.4781,2.5103,0.0,2.5688,0.0,0.0,0.0,0.0,0.0,0.0,0.0,0.0,0.0,0.0,0.0,0.0,0.0,0.0,2.371,0.0,2.4687,0.0,0.0,0.0,0.0,0.0,0.0,0.0,0.0,0.0,0.0,0.0,0.0,0.0,0.0,0.0,0.0,0.0,0.0,0.0,2.5895,2.5591,2.4903,2.4155,2.3115,2.1731,2.1696,2.1696,2.1696,2.1696,2.1696,2.1696,2.1696,2.1696,2.1696,2.1696,2.1696,2.1696,2.1696,2.1696,2.1696,2.1696,2.1696,2.1696,2.1696,2.1696,2.1696,2.1696,2.1696,2.1696,0.0,0.0,0.0,0.0,0.0,0.0,0.0,0.0,0.0,0.0,0.0,0.0,0.0,0.0,1.7714,1.6958,1.7216,1.7325,1.7145,1.6991,1.6943,1.712,1.5968,1.5328,1.5328,1.5121,1.5053,1.5148,1.6531,1.6995,1.6617,0.0,1.7084,1.6347,1.6118,1.6048,1.6123,1.6297,0.0,1.7209,1.8202,1.8994,0.0,0.0,0.0,0.0,0.0,2.6828,2.6763,0.0,2.651,2.3661,0.0,0.0,0.0,0.0,0.0,0.0,1.9672,0.0,0.0,0.0,0.0,0.0,2.2136,2.2487,2.2874,0.0,0.0,0.0,0.0,0.0,0.0,0.0,0.0,0.0,0.0,0.0,0.0,0.0,0.0,0.0,0.0,0.0,0.0,0.0,2.5464,2.485,2.4145,2.294,2.2122,2.1687,2.1696,2.1696,2.1696,2.1696,2.1696,2.1696,2.1696,2.1696,2.1696,2.1696,2.1696,2.1696,2.1696,2.1696,2.1696,2.1696,2.1696,2.1696,2.1696,2.1696,2.1696,2.1696,2.1696,2.1696,0.0,0.0,0.0,0.0,0.0,0.0,0.0,0.0,0.0,0.0,0.0,0.0,0.0,0.0,1.7144,1.6423,1.6216,1.6085,1.6047,1.5817,1.5794,1.6033,1.5222,1.4878,1.5099,1.4817,1.4847,0.0,0.0,0.0,0.0,0.0,0.0,0.0,0.0,0.0,0.0,0.0,0.0,0.0,1.795,0.0,0.0,2.2664,2.4206,0.0,0.0,0.0,2.8587,2.9577,2.8011,0.0,0.0,0.0,0.0,0.0,0.0,0.0,0.0,0.0,0.0,0.0,0.0,0.0,2.1289,2.1353,2.1697,0.0,0.0,0.0,0.0,0.0,0.0,0.0,0.0,0.0,0.0,0.0,0.0,0.0,0.0,0.0,0.0,2.5895,2.5895,2.5895,2.5295,2.4466,2.343,2.2299,2.1696,2.1696,2.1696,2.1696,2.1696,2.1696,2.1696,2.1696,2.1696,2.1696,2.1696,2.1696,2.1696,2.1696,2.1696,2.1696,2.1696,2.1696,2.1696,2.1696,2.1696,2.1696,2.1696,2.1696,2.1696,2.1696,0.0,0.0,0.0,0.0,0.0,0.0,0.0,0.0,0.0,0.0,0.0,0.0,0.0,0.0,0.0,0.0,1.4858,1.4555,1.4955,1.4592,1.4549,1.4966,1.4491,1.4434,1.4904,1.4449,1.463,0.0,0.0,0.0,0.0,0.0,0.0,0.0,0.0,0.0,0.0,0.0,0.0,1.7967,1.7733,1.9247,0.0,0.0,2.4783,2.6746,2.8164,2.9376,3.0255,3.0021,2.8671,0.0,0.0,0.0,0.0,0.0,2.081,0.0,0.0,0.0,0.0,0.0,2.0329,0.0,2.1069,2.0853,2.1006,2.3036,0.0,0.0,0.0,0.0,0.0,0.0,0.0,0.0,0.0,0.0,0.0,0.0,0.0,0.0,2.5895,2.5895,2.5895,2.5895,2.52,2.4176,2.275,2.2052,2.1696,2.1696,2.1696,2.1696,2.1696,2.1696,2.1696,2.1696,2.1696,2.1696,2.1696,2.1696,2.1696,2.1696,2.1696,2.1696,2.1696,2.1696,2.1696,2.1696,2.1696,2.1696,2.1696,2.1696,2.1696,2.1696,0.0,0.0,0.0,0.0,0.0,0.0,0.0,0.0,0.0,0.0,0.0,0.0,0.0,0.0,0.0,0.0,1.4551,1.4731,1.4397,1.4618,1.4649,1.4383,1.3912,1.3711,1.3816,1.4011,0.0,0.0,0.0,0.0,0.0,0.0,0.0,0.0,0.0,0.0,0.0,0.0,0.0,1.8564,1.989,0.0,2.4014,2.6025,2.7332,2.8154,2.8952,2.9412,2.9416,2.8085,2.7638,2.7222,0.0,0.0,0.0,2.2702,0.0,0.0,0.0,0.0,0.0,0.0,0.0,0.0,2.17,2.103,2.0728,0.0,2.2292,0.0,0.0,0.0,0.0,0.0,0.0,0.0,0.0,0.0,0.0,0.0,0.0,0.0,2.5895,2.5895,2.5895,2.5895,2.4712,2.342,2.1998,2.1785,2.1696,2.1696,2.1696,2.1696,2.1696,2.1696,2.1696,2.1696,2.1696,2.1696,2.1696,2.1696,2.1696,2.1696,2.1696,2.1696,2.1696,2.1696,2.1696,2.1696,2.1696,2.1696,2.1696,2.1696,2.1696,2.1696,0.0,0.0,0.0,0.0,0.0,0.0,0.0,0.0,0.0,0.0,0.0,0.0,0.0,0.0,0.0,0.0,0.0,0.0,0.0,0.0,0.0,0.0,0.0,0.0,0.0,0.0,0.0,0.0,0.0,0.0,0.0,0.0,0.0,0.0,0.0,0.0,0.0,0.0,1.7895,1.9933,2.0259,0.0,2.4175,2.6158,2.7245,2.7828,2.866,2.8961,2.8829,2.8064,2.778,0.0,0.0,2.4951,2.4386,0.0,2.2754,2.1965,0.0,0.0,0.0,2.1103,0.0,0.0,0.0,2.05,2.0222,2.2163,2.1015,2.0027,0.0,0.0,0.0,0.0,0.0,0.0,0.0,0.0,0.0,0.0,0.0,0.0,2.5895,2.5895,2.5591,2.4893,2.4188,2.3193,2.1776,2.1696,2.1696,2.1696,2.1696,2.1696,2.1696,2.1696,2.1696,2.1696,2.1696,2.1696,2.1696,2.1696,2.1696,2.1696,2.1696,2.1696,2.1696,2.1696,2.1696,2.1696,2.1696,2.1696,2.1696,2.1696,2.1696,2.1723,1.7999,0.0,0.0,0.0,0.0,0.0,0.0,0.0,0.0,0.0,0.0,0.0,0.0,0.0,0.0,0.0,0.0,0.0,0.0,0.0,0.0,0.0,0.0,1.5089,0.0,0.0,0.0,0.0,0.0,0.0,0.0,0.0,0.0,0.0,0.0,0.0,0.0,0.0,0.0,2.1274,0.0,2.1956,2.4023,2.5864,2.6623,2.6878,2.8047,2.851,2.8505,2.8453,2.8163,2.7681,2.6598,2.5889,0.0,0.0,0.0,0.0,0.0,0.0,0.0,0.0,0.0,2.0064,0.0,0.0,0.0,2.1101,1.9517,0.0,0.0,0.0,0.0,0.0,0.0,0.0,0.0,0.0,0.0,0.0,0.0,0.0,2.5424,2.5744,2.5327,2.393,2.38,2.3193,2.1776,2.1696,2.1696,2.1696,2.1696,2.1696,2.1696,2.1696,2.1696,2.1696,2.1696,2.1696,2.1696,2.1696,2.1696,2.1696,2.1696,2.1696,2.1696,2.1696,2.1696,2.1696,2.1696,2.1696,2.1696,2.1696,2.1696,2.1742,1.6914,1.6679,0.0,0.0,0.0,0.0,0.0,0.0,0.0,0.0,0.0,0.0,0.0,0.0,0.0,0.0,0.0,0.0,1.4717,0.0,0.0,0.0,0.0,0.0,1.4887,0.0,0.0,0.0,0.0,0.0,0.0,0.0,0.0,0.0,1.541,0.0,0.0,0.0,1.9835,0.0,2.3817,2.4703,0.0,2.7394,2.7313,2.6243,2.7889,2.851,2.8426,0.0,2.8068,2.8234,0.0,2.6454,2.5793,2.4747,0.0,0.0,0.0,0.0,0.0,0.0,1.9639,0.0,0.0,0.0,1.8664,1.8866,0.0,0.0,0.0,0.0,0.0,0.0,0.0,0.0,0.0,0.0,0.0,0.0,0.0,0.0,0.0,2.5094,2.5327,2.393,2.38,2.3193,2.1776,2.1696,2.1696,2.1696,2.1696,2.1696,2.1696,2.1696,2.1696,2.1696,2.1696,2.1696,2.1696,2.1696,2.1696,2.1696,2.1696,2.1696,2.1696,2.1696,2.1696,2.1696,2.1696,2.1696,2.1696,2.1696,2.1696,2.1696,1.6389,1.6216,0.0,0.0,0.0,0.0,0.0,0.0,0.0,0.0,0.0,0.0,0.0,0.0,0.0,0.0,0.0,1.7007,0.0,0.0,0.0,0.0,0.0,0.0,0.0,0.0,0.0,0.0,1.5322,0.0,0.0,0.0,0.0,0.0,1.6739,0.0,1.8501,0.0,2.2123,0.0,0.0,0.0,0.0,2.7376,2.8036,2.7494,2.8235,2.851,2.8474,0.0,2.8126,0.0,0.0,0.0,0.0,0.0,0.0,0.0,0.0,0.0,0.0,0.0,0.0,0.0,1.9491,0.0,1.8509,0.0,0.0,0.0,0.0,0.0,0.0,0.0,1.7864,0.0,0.0,0.0,0.0,0.0,0.0,0.0,0.0,0.0,0.0,2.3089,2.2752,2.2076,2.1068,2.1431,2.1696,2.1696,2.1696,2.1696,2.1696,2.1696,2.1696,2.1696,2.1696,2.1696,2.1696,2.1696,2.1696,2.1696,2.1696,2.1696,2.1696,2.1696,2.1696,2.1696,2.1696,2.1833,2.2034,2.2034,2.219,2.24,1.583,0.0,0.0,0.0,0.0,0.0,0.0,0.0,0.0,0.0,0.0,0.0,1.6765,1.6078,0.0,0.0,1.9269,1.9102,0.0,0.0,1.8636,0.0,0.0,0.0,0.0,0.0,0.0,0.0,0.0,0.0,0.0,0.0,0.0,0.0,0.0,1.8375,1.9576,0.0,2.383,2.4134,2.5466,2.553,2.4956,2.6991,2.8088,2.851,2.851,2.851,2.851,2.851,2.8258,0.0,2.8222,0.0,0.0,0.0,0.0,0.0,2.3375,0.0,0.0,0.0,0.0,0.0,0.0,0.0,0.0,0.0,0.0,0.0,0.0,0.0,0.0,0.0,0.0,1.7001,0.0,0.0,0.0,0.0,0.0,0.0,0.0,0.0,0.0,2.197,2.1535,2.1069,2.0554,2.1037,2.1458,2.1687,2.1696,2.1696,2.1696,2.1696,2.1696,2.1696,2.1696,2.1751,2.1851,2.1851,2.1916,2.2025,2.2025,2.2025,2.2025,2.2025,2.2025,2.2025,2.2025,2.2263,2.2584,2.2364,2.2547,2.2904,1.513,1.513,0.0,0.0,0.0,0.0,0.0,0.0,0.0,0.0,0.0,0.0,0.0,0.0,0.0,0.0,0.0,2.0333,2.0399,0.0,1.8636,0.0,0.0,1.7852,0.0,0.0,0.0,0.0,0.0,0.0,0.0,0.0,0.0,0.0,1.5488,1.7616,2.1174,2.1788,2.4205,2.7591,2.817,2.8386,2.8136,0.0,2.7027,2.851,2.851,0.0,0.0,2.851,2.8498,0.0,0.0,0.0,0.0,0.0,0.0,0.0,0.0,0.0,0.0,2.2929,0.0,0.0,0.0,0.0,1.7201,0.0,0.0,0.0,0.0,0.0,0.0,0.0,0.0,0.0,0.0,0.0,0.0,0.0,0.0,0.0,0.0,2.0607,2.1146,2.0518,2.0449,2.045,2.0517,2.0497,2.0882,2.1668,2.1696,2.1696,2.1696,2.1696,2.1696,2.1696,2.1696,2.1888,2.2254,2.2254,2.2483,2.2867,2.2867,2.2867,2.2867,2.2867,2.2867,2.2867,2.2867,2.3114,2.3361,2.2574,2.2547,2.2904,0.0,0.0,0.0,0.0,0.0,0.0,0.0,1.3779,0.0,0.0,0.0,0.0,0.0,2.0033,2.0658,0.0,0.0,2.2522,2.3569,2.2113,0.0,0.0,0.0,1.9552,0.0,0.0,0.0,0.0,0.0,0.0,0.0,0.0,0.0,0.0,0.0,1.9126,0.0,0.0,0.0,0.0,0.0,2.6356,2.5611,0.0,2.7989,2.851,2.851,2.851,0.0,2.851,2.851,2.8474,2.8294,2.7628,2.6851,2.6663,2.6,0.0,0.0,0.0,2.5488,2.5571,0.0,0.0,0.0,0.0,0.0,0.0,0.0,0.0,0.0,0.0,0.0,0.0,0.0,0.0,0.0,0.0,0.0,0.0,0.0,0.0,0.0,0.0,0.0,1.9547,1.9155,1.9141,1.9668,2.0228,2.0854,2.1668,2.1696,2.1696,2.1696,2.1696,2.1824,2.208,2.208,2.23,2.2693,2.2693,2.2776,2.2904,2.2904,2.2904,2.2904,2.2904,2.2904,2.2904,2.2904,2.3151,2.3462,2.3178,2.3391,2.3712,1.3963,0.0,0.0,0.0,0.0,0.0,0.0,0.0,0.0,0.0,1.6907,0.0,2.1181,0.0,2.2374,0.0,2.434,2.4199,2.5228,2.3801,0.0,2.5493,2.282,0.0,0.0,0.0,0.0,0.0,0.0,1.541,0.0,0.0,0.0,0.0,0.0,1.8839,2.1169,2.3181,2.4842,0.0,0.0,2.5501,0.0,0.0,2.766,2.7838,0.0,2.851,2.851,2.851,2.851,2.851,2.851,2.7901,2.7242,2.743,2.688,2.6362,2.7239,2.7021,0.0,2.7316,2.5278,0.0,2.2765,0.0,0.0,0.0,0.0,0.0,0.0,0.0,0.0,0.0,0.0,0.0,0.0,1.6908,0.0,0.0,0.0,0.0,0.0,0.0,1.7295,1.8307,1.7932,1.8164,0.0,1.9797,2.0552,2.1659,2.1696,2.1696,2.1696,2.1833,2.2025,2.2282,2.2428,2.2721,2.3114,2.3114,2.3197,2.3382,2.3382,2.3382,2.3382,2.3382,2.3382,2.3382,2.3382,2.3538,2.3739,2.3544,2.3804,2.4165,0.0,0.0,0.0,0.0,1.2681,0.0,0.0,0.0,1.5843,0.0,1.7435,1.9966,1.9881,2.1758,2.3627,2.518,2.5312,2.5312,2.5312,2.3883,0.0,0.0,2.4119,2.3247,2.3677,0.0,0.0,0.0,0.0,0.0,0.0,0.0,0.0,0.0,1.5439,0.0,1.9395,2.1158,2.3428,2.5923,2.6008,2.602,2.592,2.5981,2.6232,2.6683,2.8028,2.851,2.851,2.851,2.851,2.851,2.851,2.851,2.851,2.851,2.851,2.851,2.851,2.7297,2.6418,2.81,2.5962,0.0,0.0,0.0,2.2182,0.0,0.0,0.0,0.0,0.0,0.0,0.0,0.0,0.0,0.0,0.0,0.0,0.0,0.0,0.0,0.0,1.6908,1.6908,1.6908,1.6908,1.7587,0.0,1.9283,2.0035,2.1577,2.1668,2.1696,2.1696,2.208,2.2291,2.2318,2.2739,2.3142,2.3526,2.3526,2.3785,2.4202,2.4202,2.4202,2.4202,2.4202,2.4202,2.4202,2.4202,2.4202,2.4156,2.3712,2.3822,2.4202,1.2682,1.2312,1.2372,0.0,1.2844,1.2901,0.0,0.0,0.0,0.0,1.8427,2.0646,2.1939,2.3638,2.4836,2.5252,2.5312,0.0,0.0,0.0,0.0,2.5492,2.535,2.4791,2.3735,2.1902,0.0,1.848,0.0,0.0,1.5614,0.0,0.0,0.0,0.0,0.0,1.9341,2.0167,2.2612,2.602,2.7481,2.7356,2.6463,0.0,2.7293,2.6683,2.8028,2.851,2.851,2.851,2.851,2.851,2.851,2.851,2.851,2.851,2.851,2.851,2.851,2.8187,2.7925,2.8398,2.6858,2.5322,0.0,0.0,0.0,0.0,0.0,0.0,0.0,0.0,0.0,0.0,0.0,0.0,0.0,0.0,0.0,1.6908,0.0,0.0,1.6908,1.6908,1.6908,1.6908,1.6908,1.7348,1.8329,0.0,1.9769,2.0796,2.1376,2.1696,2.1696,2.208,2.2437,2.2748,2.3151,2.3602,2.3996,2.3996,2.4101,2.4202,2.4202,2.4202,2.4202,2.4202,2.4202,2.4202,2.4202,2.4202,2.4192,2.4082,2.411,2.4202,1.2329,0.0,0.0,1.3103,0.0,0.0,1.4015,0.0,0.0,1.7375,2.0343,0.0,2.255,2.4255,2.5418,2.5418,2.5418,0.0,2.5418,0.0,0.0,2.5997,2.5853,2.566,2.544,2.3156,0.0,1.9781,0.0,0.0,1.5701,0.0,0.0,0.0,0.0,1.6884,1.8298,2.0517,2.2713,2.4945,2.6779,2.7027,0.0,2.7058,2.7349,2.7486,2.8231,2.851,2.851,2.851,2.851,2.851,2.851,2.851,2.851,2.851,2.851,2.851,2.851,2.851,2.851,2.851,2.7778,2.6988,2.6792,2.595,2.509,0.0,2.404,2.3047,0.0,0.0,0.0,0.0,0.0,0.0,0.0,0.0,0.0,0.0,1.6908,0.0,1.6908,1.6908,1.6908,1.6908,1.6586,1.7045,0.0,0.0,1.9065,2.0689,2.101,2.1156,2.1156,2.2089,2.2584,2.2638,2.3446,2.3932,2.4202,2.4202,2.4202,2.4202,2.4202,2.4202,2.4202,2.4202,2.4202,2.4202,2.4202,2.4202,2.4202,2.4202,2.4202,2.4202,1.2234,0.0,0.0,0.0,0.0,0.0,0.0,1.7477,0.0,1.8592,0.0,2.4186,2.2397,2.4193,2.5571,2.5571,0.0,2.5571,2.5571,2.5455,2.5805,2.6645,2.6009,2.625,2.7546,2.4696,2.2593,0.0,0.0,0.0,0.0,0.0,0.0,0.0,0.0,0.0,0.0,2.1563,2.3479,2.3828,2.5539,2.6236,2.6236,2.6236,2.7187,2.851,2.851,2.851,2.851,2.851,2.851,2.851,2.851,2.851,2.851,2.851,2.851,2.851,2.851,2.851,2.851,2.851,2.851,2.8391,2.8042,2.7962,2.7869,2.7429,2.6325,2.5167,0.0,0.0,0.0,0.0,0.0,0.0,0.0,0.0,0.0,0.0,0.0,0.0,0.0,1.6908,1.6908,1.6908,1.6298,0.0,0.0,0.0,1.8262,2.0689,2.0613,2.0525,2.0677,2.2144,2.2748,2.2455,2.362,2.4202,2.4202,2.4202,2.4202,2.4202,2.4202,2.4202,2.4202,2.4202,2.4202,2.4202,2.4202,2.4202,2.4202,2.4202,2.4202,2.4202,0.0,0.0,0.0,0.0,0.0,1.4451,1.899,1.8519,1.8204,1.9678,2.2104,2.3463,2.2839,2.4304,2.5347,2.5347,2.5347,0.0,0.0,0.0,0.0,2.56,2.6683,2.7186,2.7042,2.5591,2.3833,0.0,0.0,0.0,0.0,0.0,0.0,0.0,0.0,0.0,1.9843,2.238,0.0,2.5817,2.7399,2.8024,2.8024,2.8024,2.8223,2.851,2.851,2.851,2.851,2.851,2.851,2.851,2.851,2.851,2.851,2.851,2.851,2.851,2.851,2.851,2.851,2.851,2.851,2.8471,2.8391,2.8391,2.8351,2.8299,2.7797,2.6891,2.5206,0.0,0.0,0.0,0.0,0.0,0.0,0.0,0.0,0.0,0.0,1.8661,0.0,0.0,0.0,1.6908,0.0,0.0,0.0,0.0,1.8279,0.0,2.0035,0.0,0.0,0.0,2.3032,2.3288,2.3886,2.4202,2.4202,2.4202,2.4202,2.4202,2.4202,2.4202,2.4202,2.4202,2.4202,2.4202,2.4202,2.4202,2.4202,2.4202,2.4202,2.4202,0.0,0.0,0.0,0.0,0.0,0.0,0.0,1.9643,0.0,2.1549,2.3218,2.4145,2.3761,2.4855,2.5571,2.5453,2.5535,2.5571,2.5453,2.5588,2.5829,2.6105,2.6622,0.0,2.7702,2.6633,2.4795,2.2092,0.0,0.0,0.0,0.0,0.0,0.0,0.0,1.8992,0.0,0.0,0.0,2.6315,2.7869,2.851,2.851,2.8618,2.8578,2.851,2.8618,2.8578,2.851,2.851,2.851,2.851,2.851,2.851,2.851,2.851,2.851,2.851,2.851,2.851,2.851,2.851,2.851,2.851,2.851,2.851,2.851,2.851,2.8363,2.754,2.5385,2.3058,0.0,0.0,0.0,0.0,0.0,0.0,0.0,0.0,0.0,0.0,0.0,0.0,0.0,0.0,0.0,0.0,0.0,0.0,1.7646,0.0,0.0,0.0,2.0753,0.0,2.2995,2.2574,2.3657,2.4202,2.4202,2.4202,2.4202,2.4202,2.4202,2.4202,2.4202,2.4202,2.4202,2.4202,2.4202,2.4202,2.4202,2.4202,2.4202,2.4202,0.0,1.3993,0.0,0.0,1.5148,0.0,1.9202,2.0599,2.1886,2.3381,2.4426,2.4932,2.4709,2.5328,2.5723,2.5535,2.5688,2.5723,2.5535,2.5491,2.5805,2.6513,2.649,2.6983,2.8189,2.7611,2.5894,0.0,0.0,0.0,0.0,0.0,0.0,0.0,0.0,0.0,0.0,0.0,2.6297,2.6863,2.8044,2.851,2.851,2.8685,2.8657,2.851,2.8685,2.8618,2.851,2.851,2.851,2.851,2.851,2.851,2.851,2.851,2.851,2.851,2.851,2.851,2.851,2.851,2.851,2.851,2.851,2.851,2.851,2.851,2.8339,2.7679,2.5825,2.4422,0.0,0.0,0.0,0.0,0.0,0.0,0.0,0.0,0.0,0.0,1.9214,0.0,0.0,0.0,0.0,0.0,1.8045,0.0,0.0,0.0,0.0,1.9757,2.0009,0.0,2.2885,2.2263,2.3586,2.4202,2.4202,2.4202,2.4202,2.4202,2.4202,2.4202,2.4202,2.4202,2.4202,2.4202,2.4202,2.4202,2.4202,2.4202,2.4202,2.4202,0.0,0.0,0.0,0.0,0.0,0.0,2.0541,2.1063,2.2046,2.4581,2.4856,2.4929,2.518,2.5311,2.5347,2.5347,2.5347,2.5347,2.5347,2.5757,2.5853,2.548,2.6815,2.7481,2.7331,2.8169,2.7627,0.0,0.0,2.1936,0.0,0.0,0.0,0.0,0.0,0.0,0.0,2.6075,2.7248,2.8527,2.8502,2.851,2.851,2.851,2.851,2.851,2.851,2.851,2.851,2.851,2.851,2.851,2.851,2.851,2.851,2.851,2.851,2.851,2.851,2.851,2.851,2.851,2.851,2.851,2.851,2.851,2.851,2.851,2.7886,2.7232,2.7018,2.515,2.311,0.0,0.0,0.0,0.0,0.0,2.0032,1.9282,0.0,0.0,0.0,1.7758,0.0,0.0,1.6599,0.0,0.0,0.0,0.0,1.8167,1.8608,1.9291,2.0319,2.1725,2.2942,2.3981,2.4137,2.4202,2.4202,2.4202,2.4202,2.4202,2.4202,2.4202,2.4202,2.4202,2.4202,2.4202,2.4202,2.4202,2.4202,2.4202,2.4202,2.4202,0.0,0.0,0.0,0.0,0.0,0.0,0.0,2.1416,2.2503,2.4213,2.4655,2.4941,2.5252,2.5418,2.5418,2.5312,2.5418,2.5418,2.5312,2.5504,2.5817,2.6225,2.7,2.7657,2.8147,2.8702,2.7936,0.0,0.0,0.0,0.0,0.0,0.0,0.0,0.0,2.4738,2.6212,2.7527,2.8363,2.8803,2.8724,2.8685,2.8685,2.8685,2.8685,2.8685,2.8685,2.8618,2.851,2.851,2.851,2.851,2.851,2.851,2.851,2.851,2.851,2.851,2.851,2.851,2.851,2.851,2.851,2.851,2.851,2.851,2.851,2.851,2.7805,2.7103,2.6805,2.5793,2.4491,2.2977,0.0,0.0,0.0,0.0,0.0,0.0,0.0,2.0877,0.0,0.0,0.0,0.0,0.0,0.0,0.0,0.0,0.0,1.9106,0.0,2.0361,2.1516,2.2308,2.2904,2.3437,2.3972,2.4202,2.4202,2.4202,2.4202,2.4202,2.4202,2.4202,2.4202,2.4202,2.4202,2.4202,2.4202,2.4202,2.4202,2.4202,2.4202,2.4238,1.9606,0.0,1.8679,0.0,1.9708,2.0188,2.0505,2.1704,2.2885,2.3838,2.4374,2.4873,2.5252,2.543,2.5453,2.5312,2.5418,2.5453,2.5312,2.5456,2.5889,2.6609,2.7159,0.0,2.8638,2.8993,2.845,2.6989,2.5299,0.0,0.0,0.0,0.0,0.0,2.5571,2.6469,2.7174,2.8526,2.8973,2.8724,2.8724,2.8724,2.8724,2.8724,2.8724,2.8724,2.8724,2.8618,2.851,2.851,2.851,2.851,2.851,2.851,2.851,2.851,2.851,2.851,2.851,2.851,2.851,2.851,2.851,2.851,2.851,2.851,2.851,2.851,2.7805,2.7103,2.6775,2.626,2.5402,2.3843,0.0,0.0,0.0,2.1549,0.0,0.0,2.0411,2.1032,2.0889,1.8816,0.0,0.0,0.0,0.0,0.0,0.0,0.0,0.0,0.0,0.0,2.1716,2.2262,2.2785,2.327,2.3935,2.4202,2.4202,2.4202,2.4202,2.4202,2.4202,2.4202,2.4202,2.4202,2.4202,2.4202,2.4202,2.4202,2.422,2.4339,2.4385,2.445,2.2625,2.203,2.1147,2.1147,2.1051,2.0912,2.0731,2.2008,2.3192,2.3734,2.4206,2.4723,2.5252,2.5312,2.5312,2.5312,2.5312,2.5312,2.5312,2.5793,2.6093,0.0,0.0,2.8078,2.8293,2.9029,2.9509,2.9767,0.0,0.0,2.699,0.0,2.4918,2.6474,2.6687,2.7411,2.8486,2.8934,2.8855,2.851,2.851,2.851,2.851,2.851,2.851,2.851,2.851,2.851,2.851,2.851,2.851,2.851,2.851,2.851,2.851,2.851,2.851,2.851,2.851,2.851,2.851,2.851,2.851,2.851,2.851,2.851,2.851,2.851,2.7805,2.7185,2.7185,2.6456,2.5402,2.3843,0.0,0.0,0.0,0.0,0.0,2.0002,2.0149,2.084,2.1887,1.9206,0.0,0.0,0.0,0.0,0.0,0.0,0.0,1.798,1.8497,0.0,2.0393,2.1293,2.2557,2.4183,2.4192,2.4202,2.4202,2.4202,2.4202,2.4202,2.4202,2.4202,2.4202,2.4202,2.4202,2.4202,2.4202,2.4202,2.4257,2.467,2.4776,2.4831,2.2588,2.2548,2.2244,2.2335,2.2244,2.2104,2.1878,2.2522,2.3204,2.3734,2.4206,2.4688,2.5252,2.5312,2.5312,0.0,2.5312,2.5312,0.0,2.5805,2.6335,2.682,2.77,2.8491,2.9042,2.9293,2.9419,2.9521,0.0,0.0,0.0,2.7334,2.7849,2.8474,2.8409,2.8487,2.8724,2.9118,2.9,2.851,2.8776,2.8816,2.8685,2.8685,2.8685,2.8685,2.855,2.851,2.851,2.851,2.851,2.851,2.851,2.851,2.851,2.851,2.851,2.851,2.851,2.851,2.851,2.851,2.851,2.851,2.851,2.851,2.8431,2.8163,2.7869,2.7493,2.6857,2.6498,2.5711,2.3883,2.448,0.0,0.0,0.0,0.0,2.1084,2.1008,2.1428,2.2332,2.0843,0.0,0.0,0.0,0.0,0.0,0.0,0.0,0.0,2.0925,0.0,2.297,2.2691,2.3098,2.4202,2.4202,2.4202,2.4202,2.4202,2.4202,2.4202,2.4202,2.4202,2.4202,2.4202,2.4202,2.4202,2.4202,2.4202,2.4257,2.4629,2.4785,2.4876,2.2305,2.2591,2.2647,2.28,2.2678,2.2525,2.2359,2.2874,2.3433,2.3758,2.4374,2.4939,2.5264,2.5312,0.0,2.5312,2.5312,2.5312,2.5312,2.5805,2.6407,2.7186,2.7911,2.8654,2.9367,2.9509,0.0,2.956,2.8238,2.7668,2.7806,2.8604,2.9079,2.9275,2.917,2.9013,2.8922,2.9197,2.904,2.8618,2.8816,2.8816,2.8685,2.8685,2.8685,2.8657,2.855,2.851,2.851,2.851,2.851,2.851,2.851,2.851,2.851,2.851,2.851,2.851,2.851,2.851,2.851,2.851,2.851,2.851,2.851,2.851,2.8431,2.8163,2.7869,2.7452,2.6857,2.6498,2.5884,2.4658,2.5285,2.5051,2.2579,0.0,0.0,0.0,0.0,0.0,0.0,2.1873,2.1327,0.0,0.0,0.0,0.0,0.0,0.0,2.122,2.1769,2.2621,2.3694,2.316,2.3354,2.4202,2.4202,2.4202,2.4202,2.4202,2.4202,2.4202,2.4202,2.4202,2.4211,2.4376,2.444,2.4459,2.4606,2.4661,2.4716,2.512,2.5225,2.5317,2.1981,2.2291,2.2451,0.0,2.2512,0.0,2.2216,2.3119,2.3806,2.3806,2.4675,2.5312,2.5312,2.5312,2.5312,2.5312,0.0,0.0,0.0,2.5841,2.648,2.7174,2.7948,2.873,2.9406,2.965,2.9753,2.9714,2.9521,2.9419,2.938,2.8988,2.8922,2.9131,2.9091,2.9091,2.9131,2.9091,2.8961,2.8791,2.8618,2.851,2.851,2.851,2.851,2.851,2.851,2.851,2.851,2.851,2.851,2.851,2.851,2.851,2.851,2.851,2.851,2.851,2.851,2.851,2.851,2.851,2.851,2.851,2.851,2.851,2.851,2.851,2.7846,2.7267,2.7267,2.6592,2.6032,2.5937,2.5937,2.538,2.3822,0.0,0.0,0.0,0.0,0.0,2.3314,2.2335,2.1684,0.0,0.0,0.0,0.0,0.0,2.0237,2.0698,2.1449,2.2227,2.2986,2.2986,2.3409,2.4202,2.4202,2.4202,2.4202,2.4202,2.4251,2.4251,2.4251,2.4251,2.4279,2.4661,2.4826,2.4872,2.5267,2.5424,2.547,2.5865,2.6012,2.6076,0.0,0.0,2.2451,2.2647,2.2512,2.2359,2.2216,2.3119,2.3806,2.3806,2.4675,2.5312,2.5312,2.5312,2.5312,2.5312,2.5312,2.5312,2.5312,2.6336,2.7102,2.7397,2.852,2.9307,2.9702,2.956,2.9353,2.904,2.9495,2.9534,2.917,2.9091,2.926,2.9624,2.9091,2.904,2.9314,2.8988,2.8922,2.9013,2.8803,2.8724,2.8724,2.8724,2.8618,2.851,2.851,2.851,2.851,2.851,2.851,2.851,2.851,2.851,2.851,2.851,2.851,2.851,2.851,2.851,2.851,2.851,2.851,2.851,2.851,2.851,2.851,2.851,2.8339,2.8099,2.7788,2.7557,2.7179,2.6456,2.6373,2.573,2.3852,2.3926,0.0,0.0,2.2989,2.3258,2.4398,2.3279,2.2404,0.0,0.0,0.0,2.0677,2.1608,2.2379,2.2776,2.3318,2.3724,2.3868,2.3868,2.4009,2.4202,2.4202,2.4301,2.444,2.444,2.4538,2.4735,2.4735,2.4735,2.4773,2.4926,2.5204,2.5412,2.5413,2.5528,2.5739,2.5918,2.6012,2.6076,2.2198,2.2323,2.2402,2.2647,2.2494,2.2278,2.2228,2.3119,2.3806,2.3806,2.4675,2.5312,2.5312,2.5312,2.5312,2.5312,2.5312,2.5312,2.5312,2.619,2.6931,2.7459,2.8409,2.9195,2.9792,2.965,2.9404,2.9067,2.9443,2.9404,2.8961,2.8961,2.9131,2.9456,2.9,2.9028,2.938,2.8949,2.8922,2.9052,2.8776,2.8724,2.8803,2.8685,2.8618,2.851,2.851,2.851,2.851,2.851,2.851,2.851,2.851,2.851,2.851,2.851,2.851,2.851,2.851,2.851,2.851,2.851,2.851,2.851,2.851,2.851,2.851,2.851,2.8351,2.8163,2.7933,2.7708,2.7412,2.6899,2.6065,2.5143,2.4089,2.3724,2.3604,2.3604,2.3805,2.4111,2.4605,2.3871,2.313,2.2553,2.1993,0.0,2.1851,2.2336,2.2721,2.2931,2.3749,2.4202,2.4202,2.4301,2.4341,2.4341,2.4449,2.4587,2.4686,2.4686,2.4784,2.4883,2.4883,2.4883,2.493,2.5424,2.5729,2.5897,2.6209,2.6337,2.6365,2.6419,2.6395,2.6333,2.1905,2.2098,2.229,2.2586,2.2414,2.2221,2.2306,2.3168,2.383,2.3914,2.4711,2.5312,2.5312,2.5312,2.5312,2.5312,2.5312,2.5312,2.5312,2.5913,2.6663,2.7459,2.8136,2.8945,2.9779,2.9753,2.9611,2.9341,2.938,2.9184,2.8791,2.8843,2.8961,2.9118,2.8882,2.8988,2.938,2.8961,2.8882,2.9052,2.8669,2.8618,2.8803,2.8578,2.851,2.851,2.851,2.851,2.851,2.851,2.851,2.851,2.851,2.851,2.851,2.851,2.851,2.851,2.851,2.851,2.851,2.851,2.851,2.851,2.851,2.851,2.851,2.851,2.8243,2.8002,2.8002,2.7655,2.729,2.6926,2.5518,2.4298,2.3949,0.0,2.3585,2.3538,2.4597,2.508,2.4396,2.4006,2.3579,2.2951,2.2272,2.23,2.3261,2.2776,2.2437,2.2373,2.3595,2.4251,2.4301,2.444,2.4529,2.4578,2.4784,2.497,2.5085,2.5085,2.5114,2.522,2.522,2.522,2.5286,2.6056,2.637,2.6498,2.7128,2.7215,2.7043,2.6999,2.6791,2.6591,2.2159,2.2249,2.2247,2.2432,2.2309,2.2342,2.283,2.3408,2.395,2.435,2.4927,2.5312,2.5312,2.5312,2.5312,2.5312,2.5312,2.5312,2.5312,2.6542,2.7348,2.7508,2.8823,2.9626,2.9792,2.956,2.9353,2.917,2.9302,2.9184,2.8791,2.8961,2.9157,2.9341,2.8776,2.8843,2.938,2.8776,2.8736,2.9052,2.8669,2.8618,2.8803,2.8578,2.851,2.851,2.851,2.851,2.851,2.851,2.851,2.851,2.851,2.851,2.851,2.851,2.851,2.851,2.851,2.851,2.851,2.851,2.851,2.851,2.851,2.851,2.851,2.851,2.8431,2.8391,2.8391,2.8351,2.7671,2.5818,2.5178,2.4243,2.2367,0.0,2.351,2.3287,2.4021,2.4446,2.4084,2.3458,2.3045,2.2904,2.2794,2.2648,2.2474,2.3004,2.3151,2.2821,2.3888,2.4538,2.4784,2.4587,2.4627,2.4833,2.4883,2.522,2.5822,2.5822,2.6124,2.6654,2.6654,2.6654,2.6703,2.692,2.7226,2.7451,2.7188,2.7152,2.7269,2.6854,2.6636,2.6646,2.2232,2.2278,2.2247,2.2389,2.2278,2.2378,2.2939,2.3469,2.3986,2.4458,2.4975,2.5312,2.5312,2.5312,2.5312,2.5312,2.5312,2.5432,2.5709,2.6749,2.7409,2.7508,2.8847,2.965,2.9792,2.956,2.9341,2.9275,2.9341,2.9184,2.8791,2.9013,2.9079,2.9067,2.8657,2.8697,2.9067,2.8657,2.8657,2.8922,2.8618,2.8618,2.8803,2.8578,2.851,2.851,2.851,2.851,2.851,2.851,2.851,2.851,2.851,2.851,2.851,2.851,2.851,2.851,2.851,2.851,2.851,2.851,2.851,2.851,2.851,2.851,2.8595,2.8871,2.8931,2.8931,2.8931,2.8931,2.8207,2.5954,2.5233,0.0,2.2319,2.3166,2.3824,2.3252,2.4309,2.4911,2.4371,2.3896,2.3602,2.3602,2.3602,2.351,2.3318,2.3666,2.3834,2.3738,2.4147,2.4538,2.4883,2.501,2.5223,2.5481,2.585,2.6222,2.6517,2.6517,2.6725,2.7012,2.7012,2.7012,2.7,2.7315,2.7552,2.7705,2.7699,2.7691,2.7638,2.7377,2.7171,2.7062,2.2231,2.2278,2.2216,2.2328,2.2278,2.2414,2.3095,2.3541,2.3989,2.4614,2.5059,2.5312,2.5312,2.5312,2.5312,2.5312,2.542,2.5661,2.6069,2.6905,2.7456,2.7593,2.8782,2.9521,2.9792,2.9482,2.9341,2.9419,2.9302,2.9106,2.8791,2.9013,2.9,2.8803,2.8657,2.8657,2.8803,2.8578,2.8578,2.8724,2.8538,2.8578,2.8724,2.8538,2.851,2.851,2.851,2.851,2.851,2.851,2.851,2.851,2.851,2.851,2.851,2.851,2.851,2.851,2.851,2.851,2.851,2.851,2.851,2.851,2.851,2.851,2.8631,2.9027,2.9112,2.9112,2.9112,2.922,2.8533,2.6283,0.0,0.0,0.0,2.3742,2.4147,2.3816,2.475,2.5192,2.4593,2.4312,2.4202,2.4202,2.4202,2.4202,2.4202,2.4202,2.4341,2.4578,2.439,2.4585,2.5231,2.5505,2.5815,2.6222,2.6754,2.707,2.7168,2.7168,2.7217,2.7314,2.7314,2.7314,2.7344,2.7676,2.7812,2.7842,2.8111,2.8067,2.7906,2.7799,2.7638,2.7431,2.212,2.2228,2.2197,2.2228,2.2228,2.2534,2.3589,2.3782,2.4155,2.5119,2.5288,2.5312,2.5312,2.5312,2.5312,2.5312,2.5757,2.6057,2.6093,2.7244,2.794,2.7978,2.8876,2.9521,2.9792,2.9339,2.9197,2.9419,2.9028,2.8843,2.8791,2.9013,2.9,2.8791,2.8803,2.8803,2.8803,2.8578,2.851,2.851,2.851,2.851,2.851,2.851,2.851,2.851,2.851,2.851,2.851,2.851,2.851,2.851,2.851,2.851,2.851,2.851,2.851,2.851,2.851,2.851,2.851,2.851,2.851,2.851,2.851,2.851,2.8522,2.8558,2.857,2.857,2.857,2.8967,2.8533,2.6283,0.0,0.0,2.5187,2.442,2.4311,2.5414,2.5028,2.4564,2.4267,2.4233,2.4202,2.4202,2.4202,2.4202,2.4202,2.4202,2.4399,2.4883,2.4637,2.5072,2.6288,2.5808,2.6059,2.6912,2.7002,2.7226,2.7669,2.7669,2.7832,2.8203,2.8203,2.8203,2.8203,2.8232,2.8252,2.8252,2.8004,2.7906,2.7853,2.753,2.7431,2.7422,2.2089,2.2197,2.2197,2.2197,2.2197,2.2546,2.3649,2.3806,2.4167,2.5168,2.5312,2.5312,2.5312,2.5312,2.5312,2.5312,2.5793,2.6238,2.6549,2.7474,2.8185,2.8643,2.9151,2.9392,2.9378,2.917,2.9131,2.9197,2.8922,2.8791,2.8791,2.9013,2.8934,2.8618,2.8724,2.8724,2.8618,2.855,2.851,2.851,2.851,2.851,2.851,2.851,2.851,2.851,2.851,2.851,2.851,2.851,2.851,2.851,2.851,2.851,2.851,2.851,2.851,2.851,2.851,2.851,2.851,2.851,2.8751,2.9003,2.9003,2.9256,2.9581,2.9905,2.9977,2.9977,2.9977,3.0146,2.9541,2.7265,0.0,2.7197,2.5302,2.5871,2.6104,2.5142,2.5484,2.5373,2.4282,2.4202,2.4202,2.4202,2.4202,2.4202,2.4202,2.474,2.523,2.5578,2.5726,2.5963,2.6387,2.6548,2.6946,2.7422,2.7685,2.7891,2.8057,2.8057,2.8144,2.8291,2.8291,2.8291,2.8291,2.8291,2.8291,2.8291,2.8184,2.813,2.813,2.8023,2.797,2.797,2.2125,2.2197,2.2197,2.2197,2.233,2.2751,2.3661,2.3938,2.4314,2.5192,2.5312,2.5312,2.5312,2.5312,2.5372,2.554,2.6045,2.6598,2.7114,2.7772,2.8426,2.9079,2.9236,2.9236,2.9091,2.9091,2.9091,2.9091,2.8855,2.8724,2.8791,2.8922,2.8816,2.851,2.8724,2.8685,2.851,2.851,2.851,2.851,2.851,2.851,2.851,2.851,2.851,2.851,2.851,2.851,2.851,2.851,2.851,2.851,2.851,2.851,2.851,2.851,2.851,2.8546,2.8715,2.8751,2.8715,2.8546,2.8787,2.9088,2.9256,2.9581,2.9989,3.0518,3.0627,3.0627,3.0627,3.0814,3.0331,2.861,2.8816,2.8426,2.6271,2.6886,2.6905,2.5168,2.5421,2.5401,2.439,2.4251,2.4202,2.4202,2.4202,2.4306,2.4485,2.5205,2.5774,2.617,2.6686,2.6926,2.6797,2.7156,2.7515,2.7861,2.8154,2.8291,2.8291,2.8291,2.8291,2.8291,2.8291,2.8291,2.8291,2.8291,2.8291,2.8291,2.8291,2.8291,2.8291,2.8291,2.8291,2.8291,2.2197,2.2197,2.2197,2.2197,2.263,2.3192,2.3722,2.4194,2.4676,2.524,2.5312,2.5312,2.5312,2.5312,2.5516,2.6045,2.661,2.7126,2.7654,2.8222,2.8669,2.9091,2.9091,2.9091,2.9091,2.9091,2.9091,2.9091,2.8709,2.8618,2.8791,2.8791,2.8685,2.851,2.8724,2.8685,2.851,2.851,2.851,2.851,2.851,2.851,2.851,2.851,2.851,2.851,2.851,2.851,2.851,2.851,2.851,2.851,2.851,2.851,2.851,2.851,2.851,2.8631,2.916,2.9304,2.9172,2.8655,2.8522,2.8667,2.9184,2.9316,2.946,2.9989,3.0098,3.0098,3.0098,3.053,3.0711,3.0182,3.0135,2.9761,2.8476,2.7248,2.6312,2.5742,2.4824,2.4301,2.448,2.4341,2.4202,2.4202,2.4211,2.4485,2.5185,2.5465,2.5917,2.6583,2.7338,2.7718,2.7718,2.7457,2.766,2.8291,2.8291,2.8291,2.8291,2.8291,2.8291,2.8291,2.8291,2.8291,2.8291,2.8291,2.8291,2.8291,2.8291,2.8291,2.8291,2.8291,2.8291,2.8291,2.2197,2.2197,2.2197,2.2197,2.263,2.3192,2.3722,2.4194,2.4676,2.524,2.5312,2.5312,2.5312,2.5312,2.5372,2.5528,2.6357,2.7282,2.8222,2.8426,2.855,2.8669,2.8934,2.8973,2.8709,2.8973,2.8973,2.8669,2.855,2.855,2.8578,2.8724,2.8685,2.851,2.8724,2.8685,2.851,2.851,2.851,2.851,2.851,2.851,2.851,2.851,2.851,2.851,2.851,2.851,2.851,2.851,2.851,2.851,2.851,2.851,2.851,2.851,2.851,2.8631,2.916,2.9304,2.9352,2.9569,2.9893,3.0218,3.0374,3.0687,3.1043,3.1199,3.1235,3.1235,3.1235,3.1368,3.1285,3.0734,2.9953,2.8982,2.7706,2.6927,2.6071,2.4962,2.4913,2.4873,2.4529,2.4341,2.4202,2.4202,2.4477,2.489,2.5456,2.6073,2.6712,2.7357,2.7881,2.8105,2.8105,2.8052,2.8111,2.8291,2.8291,2.8291,2.8291,2.8291,2.8291,2.8291,2.8291,2.8291,2.8291,2.8291,2.8291,2.8291,2.8291,2.8291,2.8291,2.8291,2.8291,2.8291,2.2197,2.2197,2.2258,2.2474,2.2975,2.3505,2.3989,2.4506,2.4939,2.5264,2.5312,2.5312,2.5312,2.5312,2.548,2.5913,2.6898,2.7798,2.8474,2.851,2.851,2.851,2.8816,2.8816,2.851,2.8816,2.8816,2.851,2.851,2.851,2.851,2.8618,2.8618,2.851,2.8618,2.8618,2.851,2.851,2.851,2.851,2.851,2.851,2.851,2.851,2.851,2.851,2.851,2.851,2.851,2.851,2.851,2.851,2.851,2.851,2.851,2.851,2.851,2.8667,2.9412,2.9617,2.9785,3.053,3.0639,3.0657,3.0874,3.1163,3.1452,3.1669,3.1705,3.1705,3.1705,3.1705,3.1484,3.0746,2.9875,2.8899,2.7804,2.7247,2.6542,2.5538,2.5528,2.5333,2.4726,2.439,2.4202,2.4202,2.4788,2.5339,2.5793,2.656,2.7261,2.791,2.8164,2.8291,2.8291,2.8291,2.8291,2.8291,2.8291,2.8291,2.8291,2.8291,2.8291,2.8291,2.8291,2.8291,2.8291,2.8291,2.8291,2.8291,2.8291,2.8291,2.8291,2.8291,2.8291,2.8291,2.2197,2.2197,2.2354,2.2927,2.3445,2.3974,2.4446,2.4975,2.5312,2.5312,2.5312,2.5312,2.5312,2.5348,2.5745,2.6729,2.7825,2.8462,2.851,2.851,2.851,2.851,2.8685,2.8685,2.851,2.8685,2.8685,2.851,2.851,2.851,2.851,2.851,2.851,2.851,2.851,2.851,2.851,2.851,2.851,2.851,2.851,2.851,2.851,2.851,2.851,2.851,2.851,2.851,2.851,2.851,2.851,2.851,2.851,2.851,2.8522,2.857,2.8582,2.8811,2.9869,3.0158,3.0398,3.1452,3.0983,3.035,3.0874,3.0995,3.1127,3.1609,3.1617,3.1572,3.1661,3.1617,3.1282,3.0407,2.9829,2.9233,2.8366,2.7814,2.7305,2.6733,2.6186,2.5615,2.4971,2.4489,2.4202,2.4202,2.5117,2.5835,2.6205,2.6921,2.7617,2.8281,2.8291,2.8291,2.8291,2.8291,2.8291,2.8291,2.8291,2.8291,2.8291,2.8291,2.8291,2.8291,2.8291,2.8291,2.8291,2.8291,2.8291,2.8291,2.8291,2.8291,2.8291,2.8291,2.8291,2.8291,2.2197,2.2197,2.2354,2.2927,2.3445,2.3974,2.4446,2.4975,2.5312,2.5312,2.5312,2.5312,2.5312,2.5673,2.6021,2.625,2.726,2.8065,2.8486,2.851,2.851,2.851,2.855,2.855,2.851,2.8685,2.8685,2.851,2.851,2.851,2.851,2.851,2.851,2.851,2.851,2.851,2.851,2.851,2.851,2.851,2.851,2.851,2.851,2.851,2.851,2.851,2.851,2.851,2.851,2.851,2.851,2.851,2.851,2.851,2.8595,2.9003,2.9124,2.9364,3.0422,3.0742,3.0898,3.1548,3.1536,3.1392,3.1512,3.1536,3.1573,3.1681,3.1059,3.0779,3.1572,3.1059,3.0588,3.0701,3.0193,2.9268,2.7966,2.7105,2.6398,2.5703,2.5157,2.4815,2.4883,2.4637,2.439,2.4202,2.537,2.6129,2.6224,2.7199,2.7917,2.8291,2.8291,2.8291,2.8291,2.8291,2.8291,2.8291,2.8291,2.8291,2.8291,2.8291,2.8291,2.8291,2.8291,2.8291,2.8291,2.8291,2.8291,2.8291,2.8291,2.8291,2.8291,2.8291,2.8291,2.8291,2.2197,2.2197,2.2438,2.3252,2.3613,2.4059,2.4783,2.5131,2.5312,2.5312,2.5312,2.5312,2.5312,2.5552,2.5925,2.6454,2.7476,2.8222,2.8498,2.851,2.851,2.851,2.851,2.851,2.851,2.8618,2.8618,2.851,2.851,2.851,2.851,2.851,2.851,2.851,2.851,2.851,2.851,2.851,2.851,2.851,2.851,2.851,2.851,2.851,2.851,2.851,2.851,2.851,2.851,2.851,2.851,2.851,2.851,2.851,2.8619,2.9136,2.9304,2.9532,3.0591,3.0922,3.1043,3.1573,3.1705,3.1705,3.1705,3.1705,3.156,3.1104,3.0958,3.0913,3.0958,3.0958,3.0689,2.9954,2.9521,2.883,2.7579,2.7047,2.6628,2.6264,2.5722,2.5197,2.4726,2.4686,2.4587,2.4341,2.5708,2.649,2.6224,2.7391,2.8184,2.8291,2.8291,2.8291,2.8291,2.8291,2.8291,2.8291,2.8291,2.8291,2.8291,2.8291,2.8291,2.8291,2.8291,2.8291,2.8291,2.8291,2.8291,2.8291,2.8291,2.8291,2.8291,2.8291,2.8291,2.8291,2.2197,2.2258,2.263,2.3637,2.3878,2.4218,2.5168,2.5312,2.5312,2.5312,2.5312,2.5312,2.5312,2.5468,2.6021,2.7066,2.8005,2.851,2.851,2.851,2.851,2.851,2.851,2.851,2.851,2.851,2.851,2.851,2.851,2.851,2.851,2.851,2.851,2.851,2.851,2.851,2.851,2.851,2.851,2.851,2.851,2.851,2.851,2.851,2.851,2.851,2.851,2.851,2.851,2.851,2.851,2.851,2.851,2.851,2.8631,2.9256,2.9436,2.9665,3.0766,3.1055,3.1151,3.1597,3.1705,3.1661,3.1472,3.1427,3.125,3.0588,3.0869,3.1015,3.0306,3.0722,3.0633,2.8958,2.868,2.8355,2.7332,2.7189,2.7142,2.6962,2.6484,2.5722,2.4627,2.4735,2.4862,2.469,2.6109,2.6836,2.6431,2.7598,2.8291,2.8291,2.8291,2.8291,2.8291,2.8291,2.8291,2.8291,2.8495,2.8495,2.8291,2.8291,2.8291,2.8291,2.8291,2.8291,2.8291,2.8291,2.8291,2.8291,2.8291,2.8291,2.8291,2.8291,2.8291,2.8291,2.2197,2.2558,2.3095,2.3697,2.4133,2.4614,2.5216,2.5312,2.5312,2.5312,2.5312,2.5312,2.5312,2.6117,2.7102,2.821,2.8426,2.851,2.851,2.851,2.851,2.851,2.851,2.851,2.851,2.851,2.851,2.851,2.851,2.851,2.851,2.851,2.851,2.851,2.851,2.851,2.851,2.851,2.851,2.851,2.851,2.851,2.851,2.851,2.851,2.851,2.851,2.851,2.851,2.851,2.851,2.851,2.851,2.851,2.8703,2.9689,2.9977,3.0218,3.1308,3.1597,3.1621,3.1693,3.1705,3.1472,3.0588,3.0396,3.0588,3.1339,3.0215,2.9326,3.0068,2.9612,2.9004,2.8727,2.868,2.8355,2.7332,2.7189,2.6877,2.6014,2.5421,2.4922,2.4529,2.4735,2.5034,2.5402,2.6435,2.7014,2.7131,2.7868,2.8291,2.8291,2.8291,2.8291,2.8291,2.8291,2.8291,2.8291,2.926,2.9207,2.8291,2.8291,2.8291,2.8291,2.8291,2.8291,2.8291,2.8291,2.8291,2.8291,2.8291,2.8291,2.8291,2.8291,2.8291,2.8291,2.2197,2.2378,2.2735,2.334,2.3639,2.4066,2.4886,2.5016,2.5087,2.5276,2.5312,2.5312,2.5312,2.6249,2.7198,2.8005,2.8342,2.851,2.851,2.851,2.851,2.851,2.851,2.851,2.851,2.851,2.851,2.851,2.851,2.851,2.851,2.851,2.851,2.851,2.851,2.851,2.851,2.851,2.851,2.851,2.851,2.851,2.851,2.851,2.851,2.851,2.851,2.851,2.851,2.851,2.851,2.851,2.851,2.8715,2.91,2.9869,3.0302,3.0742,3.15,3.1705,3.1705,3.1705,3.1705,3.1572,3.1149,3.0588,3.017,3.0022,3.0215,3.0351,3.0215,3.0306,3.0034,2.8866,2.868,2.8168,2.66,2.637,2.6139,2.5528,2.5284,2.5088,2.4981,2.503,2.5309,2.5789,2.6565,2.7094,2.7313,2.795,2.8291,2.8291,2.8291,2.8291,2.8291,2.8291,2.8601,2.9207,2.967,2.967,2.9207,2.9207,2.9349,2.9517,2.8656,2.8428,2.8623,2.8389,2.8291,2.8291,2.8291,2.8291,2.8291,2.8291,2.8437,2.8643]}]]